<?xml version="1.0" encoding="UTF-8" standalone="no" ?>
<gpx xmlns="http://www.topografix.com/GPX/1/1" xmlns:xsi="http://www.w3.org/2001/XMLSchema-instance" xsi:schemaLocation="http://www.topografix.com/GPX/1/1 http://www.topografix.com/GPX/1/1/gpx.xsd" version="1.1" creator="VisuGPX - https://www.visugpx.com">
  <metadata>
    <name>Pic St Michel Nocturne</name>
    <desc><![CDATA[A développer A développer A développer A développer A développer A développer A développer A développer ]]></desc>
  </metadata>
  <trk>
    <name><![CDATA[Nocturne Pic St Michel]]></name>
    <trkseg>
      <trkpt lat="45.10704" lon="5.60376">
        <ele>1298</ele>
        <time>2014-01-31T16:31:59Z</time>
      </trkpt>
      <trkpt lat="45.10704" lon="5.60376">
        <ele>1298</ele>
        <time>2014-01-31T16:32:00Z</time>
      </trkpt>
      <trkpt lat="45.10704" lon="5.60375">
        <ele>1298.199951172</ele>
        <time>2014-01-31T16:32:07Z</time>
      </trkpt>
      <trkpt lat="45.10704" lon="5.60375">
        <ele>1298.199951172</ele>
        <time>2014-01-31T16:32:08Z</time>
      </trkpt>
      <trkpt lat="45.10703" lon="5.60376">
        <ele>1298.199951172</ele>
        <time>2014-01-31T16:32:11Z</time>
      </trkpt>
      <trkpt lat="45.10703" lon="5.60377">
        <ele>1298</ele>
        <time>2014-01-31T16:32:12Z</time>
      </trkpt>
      <trkpt lat="45.107" lon="5.60374">
        <ele>1298.800048828</ele>
        <time>2014-01-31T16:32:16Z</time>
      </trkpt>
      <trkpt lat="45.10699" lon="5.6037">
        <ele>1299.599975586</ele>
        <time>2014-01-31T16:32:18Z</time>
      </trkpt>
      <trkpt lat="45.10697" lon="5.60366">
        <ele>1300.400024414</ele>
        <time>2014-01-31T16:32:21Z</time>
      </trkpt>
      <trkpt lat="45.10696" lon="5.60364">
        <ele>1300.599975586</ele>
        <time>2014-01-31T16:32:22Z</time>
      </trkpt>
      <trkpt lat="45.10696" lon="5.60354">
        <ele>1302.199951172</ele>
        <time>2014-01-31T16:32:28Z</time>
      </trkpt>
      <trkpt lat="45.10695" lon="5.60352">
        <ele>1302.800048828</ele>
        <time>2014-01-31T16:32:33Z</time>
      </trkpt>
      <trkpt lat="45.10695" lon="5.60353">
        <ele>1302.599975586</ele>
        <time>2014-01-31T16:32:35Z</time>
      </trkpt>
      <trkpt lat="45.10695" lon="5.60353">
        <ele>1302.599975586</ele>
        <time>2014-01-31T16:32:36Z</time>
      </trkpt>
      <trkpt lat="45.10695" lon="5.60353">
        <ele>1302.400024414</ele>
        <time>2014-01-31T16:32:37Z</time>
      </trkpt>
      <trkpt lat="45.10695" lon="5.60353">
        <ele>1302.599975586</ele>
        <time>2014-01-31T16:32:38Z</time>
      </trkpt>
      <trkpt lat="45.10696" lon="5.60354">
        <ele>1302.199951172</ele>
        <time>2014-01-31T16:32:40Z</time>
      </trkpt>
      <trkpt lat="45.10696" lon="5.60354">
        <ele>1302.199951172</ele>
        <time>2014-01-31T16:32:42Z</time>
      </trkpt>
      <trkpt lat="45.10697" lon="5.60356">
        <ele>1302</ele>
        <time>2014-01-31T16:32:58Z</time>
      </trkpt>
      <trkpt lat="45.10696" lon="5.60355">
        <ele>1302</ele>
        <time>2014-01-31T16:33:00Z</time>
      </trkpt>
      <trkpt lat="45.10697" lon="5.60357">
        <ele>1301.599975586</ele>
        <time>2014-01-31T16:33:10Z</time>
      </trkpt>
      <trkpt lat="45.10698" lon="5.60357">
        <ele>1301.599975586</ele>
        <time>2014-01-31T16:33:11Z</time>
      </trkpt>
      <trkpt lat="45.10698" lon="5.60357">
        <ele>1301.599975586</ele>
        <time>2014-01-31T16:33:12Z</time>
      </trkpt>
      <trkpt lat="45.10698" lon="5.60357">
        <ele>1301.599975586</ele>
        <time>2014-01-31T16:33:13Z</time>
      </trkpt>
      <trkpt lat="45.10697" lon="5.60356">
        <ele>1301.800048828</ele>
        <time>2014-01-31T16:33:26Z</time>
      </trkpt>
      <trkpt lat="45.10693" lon="5.60356">
        <ele>1302.199951172</ele>
        <time>2014-01-31T16:33:33Z</time>
      </trkpt>
      <trkpt lat="45.10693" lon="5.60356">
        <ele>1302.199951172</ele>
        <time>2014-01-31T16:33:34Z</time>
      </trkpt>
      <trkpt lat="45.10693" lon="5.60355">
        <ele>1302.400024414</ele>
        <time>2014-01-31T16:33:43Z</time>
      </trkpt>
      <trkpt lat="45.10696" lon="5.60351">
        <ele>1302.800048828</ele>
        <time>2014-01-31T16:33:48Z</time>
      </trkpt>
      <trkpt lat="45.10697" lon="5.6035">
        <ele>1302.800048828</ele>
        <time>2014-01-31T16:33:51Z</time>
      </trkpt>
      <trkpt lat="45.10697" lon="5.60353">
        <ele>1302.400024414</ele>
        <time>2014-01-31T16:33:56Z</time>
      </trkpt>
      <trkpt lat="45.10693" lon="5.60354">
        <ele>1302.599975586</ele>
        <time>2014-01-31T16:34:10Z</time>
      </trkpt>
      <trkpt lat="45.10691" lon="5.60353">
        <ele>1303</ele>
        <time>2014-01-31T16:34:13Z</time>
      </trkpt>
      <trkpt lat="45.10689" lon="5.60353">
        <ele>1303.400024414</ele>
        <time>2014-01-31T16:34:22Z</time>
      </trkpt>
      <trkpt lat="45.10689" lon="5.60353">
        <ele>1303.400024414</ele>
        <time>2014-01-31T16:34:25Z</time>
      </trkpt>
      <trkpt lat="45.10688" lon="5.60354">
        <ele>1303.199951172</ele>
        <time>2014-01-31T16:34:33Z</time>
      </trkpt>
      <trkpt lat="45.10688" lon="5.60354">
        <ele>1303.199951172</ele>
        <time>2014-01-31T16:34:36Z</time>
      </trkpt>
      <trkpt lat="45.10687" lon="5.60355">
        <ele>1303.199951172</ele>
        <time>2014-01-31T16:34:39Z</time>
      </trkpt>
      <trkpt lat="45.10684" lon="5.60357">
        <ele>1303.400024414</ele>
        <time>2014-01-31T16:34:44Z</time>
      </trkpt>
      <trkpt lat="45.10679" lon="5.60357">
        <ele>1304</ele>
        <time>2014-01-31T16:34:49Z</time>
      </trkpt>
      <trkpt lat="45.10675" lon="5.60358">
        <ele>1304.199951172</ele>
        <time>2014-01-31T16:34:52Z</time>
      </trkpt>
      <trkpt lat="45.10673" lon="5.60357">
        <ele>1304.599975586</ele>
        <time>2014-01-31T16:34:54Z</time>
      </trkpt>
      <trkpt lat="45.10669" lon="5.60356">
        <ele>1305.199951172</ele>
        <time>2014-01-31T16:34:57Z</time>
      </trkpt>
      <trkpt lat="45.10668" lon="5.60356">
        <ele>1305.400024414</ele>
        <time>2014-01-31T16:34:58Z</time>
      </trkpt>
      <trkpt lat="45.10667" lon="5.60356">
        <ele>1305.599975586</ele>
        <time>2014-01-31T16:34:59Z</time>
      </trkpt>
      <trkpt lat="45.10658" lon="5.60358">
        <ele>1305.800048828</ele>
        <time>2014-01-31T16:35:07Z</time>
      </trkpt>
      <trkpt lat="45.10653" lon="5.60358">
        <ele>1306</ele>
        <time>2014-01-31T16:35:11Z</time>
      </trkpt>
      <trkpt lat="45.10649" lon="5.60359">
        <ele>1306</ele>
        <time>2014-01-31T16:35:14Z</time>
      </trkpt>
      <trkpt lat="45.10647" lon="5.6036">
        <ele>1306.199951172</ele>
        <time>2014-01-31T16:35:16Z</time>
      </trkpt>
      <trkpt lat="45.10643" lon="5.60361">
        <ele>1306.199951172</ele>
        <time>2014-01-31T16:35:20Z</time>
      </trkpt>
      <trkpt lat="45.10642" lon="5.60361">
        <ele>1306.199951172</ele>
        <time>2014-01-31T16:35:21Z</time>
      </trkpt>
      <trkpt lat="45.10638" lon="5.60363">
        <ele>1306.199951172</ele>
        <time>2014-01-31T16:35:26Z</time>
      </trkpt>
      <trkpt lat="45.10635" lon="5.60363">
        <ele>1306.199951172</ele>
        <time>2014-01-31T16:35:28Z</time>
      </trkpt>
      <trkpt lat="45.10631" lon="5.60362">
        <ele>1306.599975586</ele>
        <time>2014-01-31T16:35:31Z</time>
      </trkpt>
      <trkpt lat="45.1063" lon="5.60362">
        <ele>1306.599975586</ele>
        <time>2014-01-31T16:35:32Z</time>
      </trkpt>
      <trkpt lat="45.10625" lon="5.60363">
        <ele>1306.800048828</ele>
        <time>2014-01-31T16:35:35Z</time>
      </trkpt>
      <trkpt lat="45.10619" lon="5.60362">
        <ele>1307.400024414</ele>
        <time>2014-01-31T16:35:40Z</time>
      </trkpt>
      <trkpt lat="45.10615" lon="5.60361">
        <ele>1307.800048828</ele>
        <time>2014-01-31T16:35:43Z</time>
      </trkpt>
      <trkpt lat="45.10613" lon="5.60361">
        <ele>1307.800048828</ele>
        <time>2014-01-31T16:35:44Z</time>
      </trkpt>
      <trkpt lat="45.10612" lon="5.6036">
        <ele>1308</ele>
        <time>2014-01-31T16:35:45Z</time>
      </trkpt>
      <trkpt lat="45.1061" lon="5.60359">
        <ele>1308.400024414</ele>
        <time>2014-01-31T16:35:47Z</time>
      </trkpt>
      <trkpt lat="45.10607" lon="5.6036">
        <ele>1308.400024414</ele>
        <time>2014-01-31T16:35:50Z</time>
      </trkpt>
      <trkpt lat="45.10604" lon="5.6036">
        <ele>1308.599975586</ele>
        <time>2014-01-31T16:35:53Z</time>
      </trkpt>
      <trkpt lat="45.10603" lon="5.6036">
        <ele>1308.599975586</ele>
        <time>2014-01-31T16:35:54Z</time>
      </trkpt>
      <trkpt lat="45.10602" lon="5.60361">
        <ele>1308.599975586</ele>
        <time>2014-01-31T16:35:55Z</time>
      </trkpt>
      <trkpt lat="45.10592" lon="5.60361">
        <ele>1309.199951172</ele>
        <time>2014-01-31T16:36:03Z</time>
      </trkpt>
      <trkpt lat="45.10586" lon="5.6036">
        <ele>1309.599975586</ele>
        <time>2014-01-31T16:36:08Z</time>
      </trkpt>
      <trkpt lat="45.10583" lon="5.60359">
        <ele>1310</ele>
        <time>2014-01-31T16:36:11Z</time>
      </trkpt>
      <trkpt lat="45.10579" lon="5.60361">
        <ele>1310.199951172</ele>
        <time>2014-01-31T16:36:14Z</time>
      </trkpt>
      <trkpt lat="45.10574" lon="5.60362">
        <ele>1310.400024414</ele>
        <time>2014-01-31T16:36:18Z</time>
      </trkpt>
      <trkpt lat="45.10574" lon="5.60361">
        <ele>1310.400024414</ele>
        <time>2014-01-31T16:36:19Z</time>
      </trkpt>
      <trkpt lat="45.10571" lon="5.6036">
        <ele>1310.800048828</ele>
        <time>2014-01-31T16:36:21Z</time>
      </trkpt>
      <trkpt lat="45.1057" lon="5.6036">
        <ele>1310.800048828</ele>
        <time>2014-01-31T16:36:22Z</time>
      </trkpt>
      <trkpt lat="45.10568" lon="5.6036">
        <ele>1311.199951172</ele>
        <time>2014-01-31T16:36:24Z</time>
      </trkpt>
      <trkpt lat="45.10566" lon="5.60359">
        <ele>1311.400024414</ele>
        <time>2014-01-31T16:36:26Z</time>
      </trkpt>
      <trkpt lat="45.10563" lon="5.60359">
        <ele>1311.599975586</ele>
        <time>2014-01-31T16:36:29Z</time>
      </trkpt>
      <trkpt lat="45.1056" lon="5.60359">
        <ele>1311.800048828</ele>
        <time>2014-01-31T16:36:31Z</time>
      </trkpt>
      <trkpt lat="45.10555" lon="5.60359">
        <ele>1312.199951172</ele>
        <time>2014-01-31T16:36:35Z</time>
      </trkpt>
      <trkpt lat="45.10549" lon="5.60359">
        <ele>1312.800048828</ele>
        <time>2014-01-31T16:36:40Z</time>
      </trkpt>
      <trkpt lat="45.10542" lon="5.60359">
        <ele>1313.400024414</ele>
        <time>2014-01-31T16:36:45Z</time>
      </trkpt>
      <trkpt lat="45.10537" lon="5.60358">
        <ele>1313.800048828</ele>
        <time>2014-01-31T16:36:49Z</time>
      </trkpt>
      <trkpt lat="45.10529" lon="5.60359">
        <ele>1314.400024414</ele>
        <time>2014-01-31T16:36:55Z</time>
      </trkpt>
      <trkpt lat="45.10528" lon="5.60359">
        <ele>1314.599975586</ele>
        <time>2014-01-31T16:36:56Z</time>
      </trkpt>
      <trkpt lat="45.10526" lon="5.60359">
        <ele>1314.800048828</ele>
        <time>2014-01-31T16:36:57Z</time>
      </trkpt>
      <trkpt lat="45.10523" lon="5.60358">
        <ele>1315</ele>
        <time>2014-01-31T16:37:00Z</time>
      </trkpt>
      <trkpt lat="45.10522" lon="5.60357">
        <ele>1315.199951172</ele>
        <time>2014-01-31T16:37:01Z</time>
      </trkpt>
      <trkpt lat="45.10516" lon="5.60355">
        <ele>1316</ele>
        <time>2014-01-31T16:37:06Z</time>
      </trkpt>
      <trkpt lat="45.10516" lon="5.60353">
        <ele>1316.199951172</ele>
        <time>2014-01-31T16:37:07Z</time>
      </trkpt>
      <trkpt lat="45.10514" lon="5.60353">
        <ele>1316.400024414</ele>
        <time>2014-01-31T16:37:09Z</time>
      </trkpt>
      <trkpt lat="45.10512" lon="5.60352">
        <ele>1316.400024414</ele>
        <time>2014-01-31T16:37:10Z</time>
      </trkpt>
      <trkpt lat="45.10509" lon="5.60352">
        <ele>1316.800048828</ele>
        <time>2014-01-31T16:37:13Z</time>
      </trkpt>
      <trkpt lat="45.10507" lon="5.60352">
        <ele>1316.800048828</ele>
        <time>2014-01-31T16:37:14Z</time>
      </trkpt>
      <trkpt lat="45.10505" lon="5.60352">
        <ele>1317</ele>
        <time>2014-01-31T16:37:16Z</time>
      </trkpt>
      <trkpt lat="45.10503" lon="5.60352">
        <ele>1317.199951172</ele>
        <time>2014-01-31T16:37:17Z</time>
      </trkpt>
      <trkpt lat="45.10501" lon="5.60352">
        <ele>1317.400024414</ele>
        <time>2014-01-31T16:37:18Z</time>
      </trkpt>
      <trkpt lat="45.10499" lon="5.60352">
        <ele>1317.599975586</ele>
        <time>2014-01-31T16:37:20Z</time>
      </trkpt>
      <trkpt lat="45.10495" lon="5.60351">
        <ele>1318</ele>
        <time>2014-01-31T16:37:23Z</time>
      </trkpt>
      <trkpt lat="45.1049" lon="5.60351">
        <ele>1318.400024414</ele>
        <time>2014-01-31T16:37:27Z</time>
      </trkpt>
      <trkpt lat="45.10487" lon="5.6035">
        <ele>1318.599975586</ele>
        <time>2014-01-31T16:37:30Z</time>
      </trkpt>
      <trkpt lat="45.10486" lon="5.6035">
        <ele>1318.800048828</ele>
        <time>2014-01-31T16:37:31Z</time>
      </trkpt>
      <trkpt lat="45.10479" lon="5.60348">
        <ele>1319.400024414</ele>
        <time>2014-01-31T16:37:37Z</time>
      </trkpt>
      <trkpt lat="45.10475" lon="5.60347">
        <ele>1319.800048828</ele>
        <time>2014-01-31T16:37:40Z</time>
      </trkpt>
      <trkpt lat="45.1047" lon="5.60346">
        <ele>1320.400024414</ele>
        <time>2014-01-31T16:37:44Z</time>
      </trkpt>
      <trkpt lat="45.10463" lon="5.60346">
        <ele>1320.800048828</ele>
        <time>2014-01-31T16:37:50Z</time>
      </trkpt>
      <trkpt lat="45.10458" lon="5.60346">
        <ele>1321.199951172</ele>
        <time>2014-01-31T16:37:54Z</time>
      </trkpt>
      <trkpt lat="45.10453" lon="5.60346">
        <ele>1321.599975586</ele>
        <time>2014-01-31T16:37:58Z</time>
      </trkpt>
      <trkpt lat="45.10449" lon="5.60346">
        <ele>1322</ele>
        <time>2014-01-31T16:38:01Z</time>
      </trkpt>
      <trkpt lat="45.10442" lon="5.60345">
        <ele>1322.599975586</ele>
        <time>2014-01-31T16:38:06Z</time>
      </trkpt>
      <trkpt lat="45.10439" lon="5.60345">
        <ele>1322.800048828</ele>
        <time>2014-01-31T16:38:08Z</time>
      </trkpt>
      <trkpt lat="45.10437" lon="5.60345">
        <ele>1323</ele>
        <time>2014-01-31T16:38:09Z</time>
      </trkpt>
      <trkpt lat="45.10435" lon="5.60346">
        <ele>1323</ele>
        <time>2014-01-31T16:38:10Z</time>
      </trkpt>
      <trkpt lat="45.10428" lon="5.60346">
        <ele>1323.599975586</ele>
        <time>2014-01-31T16:38:14Z</time>
      </trkpt>
      <trkpt lat="45.10426" lon="5.60345">
        <ele>1323.800048828</ele>
        <time>2014-01-31T16:38:15Z</time>
      </trkpt>
      <trkpt lat="45.10419" lon="5.60346">
        <ele>1324.400024414</ele>
        <time>2014-01-31T16:38:19Z</time>
      </trkpt>
      <trkpt lat="45.10411" lon="5.60345">
        <ele>1325.400024414</ele>
        <time>2014-01-31T16:38:24Z</time>
      </trkpt>
      <trkpt lat="45.10408" lon="5.60346">
        <ele>1325.800048828</ele>
        <time>2014-01-31T16:38:26Z</time>
      </trkpt>
      <trkpt lat="45.10404" lon="5.60347">
        <ele>1326.400024414</ele>
        <time>2014-01-31T16:38:28Z</time>
      </trkpt>
      <trkpt lat="45.10401" lon="5.60347">
        <ele>1326.800048828</ele>
        <time>2014-01-31T16:38:30Z</time>
      </trkpt>
      <trkpt lat="45.10398" lon="5.60346">
        <ele>1327.199951172</ele>
        <time>2014-01-31T16:38:32Z</time>
      </trkpt>
      <trkpt lat="45.10397" lon="5.60346">
        <ele>1327.599975586</ele>
        <time>2014-01-31T16:38:33Z</time>
      </trkpt>
      <trkpt lat="45.10388" lon="5.60345">
        <ele>1328.800048828</ele>
        <time>2014-01-31T16:38:40Z</time>
      </trkpt>
      <trkpt lat="45.10387" lon="5.60345">
        <ele>1329</ele>
        <time>2014-01-31T16:38:41Z</time>
      </trkpt>
      <trkpt lat="45.10381" lon="5.60346">
        <ele>1329.800048828</ele>
        <time>2014-01-31T16:38:45Z</time>
      </trkpt>
      <trkpt lat="45.10378" lon="5.60346">
        <ele>1330.400024414</ele>
        <time>2014-01-31T16:38:47Z</time>
      </trkpt>
      <trkpt lat="45.10372" lon="5.60343">
        <ele>1331.199951172</ele>
        <time>2014-01-31T16:38:52Z</time>
      </trkpt>
      <trkpt lat="45.1037" lon="5.60342">
        <ele>1331.400024414</ele>
        <time>2014-01-31T16:38:54Z</time>
      </trkpt>
      <trkpt lat="45.10368" lon="5.60342">
        <ele>1331.800048828</ele>
        <time>2014-01-31T16:38:56Z</time>
      </trkpt>
      <trkpt lat="45.10362" lon="5.60341">
        <ele>1332.599975586</ele>
        <time>2014-01-31T16:39:00Z</time>
      </trkpt>
      <trkpt lat="45.10357" lon="5.6034">
        <ele>1333.199951172</ele>
        <time>2014-01-31T16:39:04Z</time>
      </trkpt>
      <trkpt lat="45.10355" lon="5.60339">
        <ele>1333.400024414</ele>
        <time>2014-01-31T16:39:06Z</time>
      </trkpt>
      <trkpt lat="45.10354" lon="5.60338">
        <ele>1333.599975586</ele>
        <time>2014-01-31T16:39:07Z</time>
      </trkpt>
      <trkpt lat="45.10349" lon="5.60338">
        <ele>1334.199951172</ele>
        <time>2014-01-31T16:39:10Z</time>
      </trkpt>
      <trkpt lat="45.10348" lon="5.60337">
        <ele>1334.199951172</ele>
        <time>2014-01-31T16:39:11Z</time>
      </trkpt>
      <trkpt lat="45.10344" lon="5.60336">
        <ele>1334.800048828</ele>
        <time>2014-01-31T16:39:14Z</time>
      </trkpt>
      <trkpt lat="45.10338" lon="5.60331">
        <ele>1336.199951172</ele>
        <time>2014-01-31T16:39:19Z</time>
      </trkpt>
      <trkpt lat="45.10332" lon="5.60328">
        <ele>1338</ele>
        <time>2014-01-31T16:39:24Z</time>
      </trkpt>
      <trkpt lat="45.1033" lon="5.60328">
        <ele>1338.199951172</ele>
        <time>2014-01-31T16:39:25Z</time>
      </trkpt>
      <trkpt lat="45.10327" lon="5.60327">
        <ele>1339</ele>
        <time>2014-01-31T16:39:27Z</time>
      </trkpt>
      <trkpt lat="45.10321" lon="5.60326">
        <ele>1340.199951172</ele>
        <time>2014-01-31T16:39:32Z</time>
      </trkpt>
      <trkpt lat="45.10315" lon="5.60327">
        <ele>1340.800048828</ele>
        <time>2014-01-31T16:39:37Z</time>
      </trkpt>
      <trkpt lat="45.10312" lon="5.60324">
        <ele>1342</ele>
        <time>2014-01-31T16:39:40Z</time>
      </trkpt>
      <trkpt lat="45.10311" lon="5.60324">
        <ele>1342.199951172</ele>
        <time>2014-01-31T16:39:41Z</time>
      </trkpt>
      <trkpt lat="45.10306" lon="5.60326">
        <ele>1342.400024414</ele>
        <time>2014-01-31T16:39:44Z</time>
      </trkpt>
      <trkpt lat="45.10305" lon="5.60326">
        <ele>1342.599975586</ele>
        <time>2014-01-31T16:39:45Z</time>
      </trkpt>
      <trkpt lat="45.10303" lon="5.60326">
        <ele>1342.800048828</ele>
        <time>2014-01-31T16:39:48Z</time>
      </trkpt>
      <trkpt lat="45.10299" lon="5.60327">
        <ele>1343.199951172</ele>
        <time>2014-01-31T16:39:51Z</time>
      </trkpt>
      <trkpt lat="45.10292" lon="5.60328">
        <ele>1343.800048828</ele>
        <time>2014-01-31T16:39:55Z</time>
      </trkpt>
      <trkpt lat="45.10291" lon="5.60328">
        <ele>1344</ele>
        <time>2014-01-31T16:39:56Z</time>
      </trkpt>
      <trkpt lat="45.10288" lon="5.60329">
        <ele>1344.199951172</ele>
        <time>2014-01-31T16:39:58Z</time>
      </trkpt>
      <trkpt lat="45.1028" lon="5.6033">
        <ele>1345.199951172</ele>
        <time>2014-01-31T16:40:03Z</time>
      </trkpt>
      <trkpt lat="45.10278" lon="5.6033">
        <ele>1345.400024414</ele>
        <time>2014-01-31T16:40:04Z</time>
      </trkpt>
      <trkpt lat="45.10273" lon="5.60329">
        <ele>1346.400024414</ele>
        <time>2014-01-31T16:40:08Z</time>
      </trkpt>
      <trkpt lat="45.10268" lon="5.60329">
        <ele>1347.199951172</ele>
        <time>2014-01-31T16:40:11Z</time>
      </trkpt>
      <trkpt lat="45.10265" lon="5.60328">
        <ele>1347.800048828</ele>
        <time>2014-01-31T16:40:14Z</time>
      </trkpt>
      <trkpt lat="45.10261" lon="5.60326">
        <ele>1349</ele>
        <time>2014-01-31T16:40:18Z</time>
      </trkpt>
      <trkpt lat="45.10257" lon="5.60328">
        <ele>1349.199951172</ele>
        <time>2014-01-31T16:40:22Z</time>
      </trkpt>
      <trkpt lat="45.10255" lon="5.60327">
        <ele>1349.599975586</ele>
        <time>2014-01-31T16:40:23Z</time>
      </trkpt>
      <trkpt lat="45.10252" lon="5.60327">
        <ele>1350</ele>
        <time>2014-01-31T16:40:25Z</time>
      </trkpt>
      <trkpt lat="45.10247" lon="5.60327">
        <ele>1350.400024414</ele>
        <time>2014-01-31T16:40:29Z</time>
      </trkpt>
      <trkpt lat="45.10239" lon="5.60325">
        <ele>1351.199951172</ele>
        <time>2014-01-31T16:40:35Z</time>
      </trkpt>
      <trkpt lat="45.10229" lon="5.60322">
        <ele>1352.199951172</ele>
        <time>2014-01-31T16:40:42Z</time>
      </trkpt>
      <trkpt lat="45.10225" lon="5.6032">
        <ele>1352.599975586</ele>
        <time>2014-01-31T16:40:46Z</time>
      </trkpt>
      <trkpt lat="45.10223" lon="5.6032">
        <ele>1352.800048828</ele>
        <time>2014-01-31T16:40:47Z</time>
      </trkpt>
      <trkpt lat="45.1022" lon="5.60318">
        <ele>1353.199951172</ele>
        <time>2014-01-31T16:40:50Z</time>
      </trkpt>
      <trkpt lat="45.10217" lon="5.60317">
        <ele>1353.599975586</ele>
        <time>2014-01-31T16:40:52Z</time>
      </trkpt>
      <trkpt lat="45.10212" lon="5.60317">
        <ele>1353.800048828</ele>
        <time>2014-01-31T16:40:57Z</time>
      </trkpt>
      <trkpt lat="45.10211" lon="5.60318">
        <ele>1353.599975586</ele>
        <time>2014-01-31T16:40:58Z</time>
      </trkpt>
      <trkpt lat="45.10209" lon="5.60319">
        <ele>1353.599975586</ele>
        <time>2014-01-31T16:41:00Z</time>
      </trkpt>
      <trkpt lat="45.10209" lon="5.60317">
        <ele>1353.800048828</ele>
        <time>2014-01-31T16:41:01Z</time>
      </trkpt>
      <trkpt lat="45.10202" lon="5.60316">
        <ele>1354.400024414</ele>
        <time>2014-01-31T16:41:09Z</time>
      </trkpt>
      <trkpt lat="45.10195" lon="5.60317">
        <ele>1354.400024414</ele>
        <time>2014-01-31T16:41:14Z</time>
      </trkpt>
      <trkpt lat="45.10191" lon="5.60317">
        <ele>1354.400024414</ele>
        <time>2014-01-31T16:41:17Z</time>
      </trkpt>
      <trkpt lat="45.1019" lon="5.60317">
        <ele>1354.800048828</ele>
        <time>2014-01-31T16:41:18Z</time>
      </trkpt>
      <trkpt lat="45.10189" lon="5.60317">
        <ele>1354.599975586</ele>
        <time>2014-01-31T16:41:20Z</time>
      </trkpt>
      <trkpt lat="45.10186" lon="5.60316">
        <ele>1355</ele>
        <time>2014-01-31T16:41:22Z</time>
      </trkpt>
      <trkpt lat="45.10183" lon="5.60317">
        <ele>1355</ele>
        <time>2014-01-31T16:41:25Z</time>
      </trkpt>
      <trkpt lat="45.10182" lon="5.60317">
        <ele>1355</ele>
        <time>2014-01-31T16:41:26Z</time>
      </trkpt>
      <trkpt lat="45.10179" lon="5.60317">
        <ele>1355</ele>
        <time>2014-01-31T16:41:28Z</time>
      </trkpt>
      <trkpt lat="45.10178" lon="5.60317">
        <ele>1355</ele>
        <time>2014-01-31T16:41:30Z</time>
      </trkpt>
      <trkpt lat="45.10174" lon="5.60317">
        <ele>1355.199951172</ele>
        <time>2014-01-31T16:41:34Z</time>
      </trkpt>
      <trkpt lat="45.1017" lon="5.60315">
        <ele>1355.800048828</ele>
        <time>2014-01-31T16:41:39Z</time>
      </trkpt>
      <trkpt lat="45.10169" lon="5.60315">
        <ele>1356</ele>
        <time>2014-01-31T16:41:41Z</time>
      </trkpt>
      <trkpt lat="45.10167" lon="5.60314">
        <ele>1356</ele>
        <time>2014-01-31T16:41:43Z</time>
      </trkpt>
      <trkpt lat="45.10165" lon="5.60315">
        <ele>1356</ele>
        <time>2014-01-31T16:41:45Z</time>
      </trkpt>
      <trkpt lat="45.10163" lon="5.60315">
        <ele>1356</ele>
        <time>2014-01-31T16:41:47Z</time>
      </trkpt>
      <trkpt lat="45.10161" lon="5.60315">
        <ele>1356.199951172</ele>
        <time>2014-01-31T16:41:49Z</time>
      </trkpt>
      <trkpt lat="45.1016" lon="5.60314">
        <ele>1356.400024414</ele>
        <time>2014-01-31T16:41:51Z</time>
      </trkpt>
      <trkpt lat="45.10155" lon="5.60314">
        <ele>1356.599975586</ele>
        <time>2014-01-31T16:41:56Z</time>
      </trkpt>
      <trkpt lat="45.10152" lon="5.60314">
        <ele>1356.599975586</ele>
        <time>2014-01-31T16:41:59Z</time>
      </trkpt>
      <trkpt lat="45.10151" lon="5.60314">
        <ele>1356.599975586</ele>
        <time>2014-01-31T16:42:00Z</time>
      </trkpt>
      <trkpt lat="45.10148" lon="5.60315">
        <ele>1356.800048828</ele>
        <time>2014-01-31T16:42:03Z</time>
      </trkpt>
      <trkpt lat="45.10145" lon="5.60315">
        <ele>1356.800048828</ele>
        <time>2014-01-31T16:42:06Z</time>
      </trkpt>
      <trkpt lat="45.10142" lon="5.60313">
        <ele>1357.199951172</ele>
        <time>2014-01-31T16:42:09Z</time>
      </trkpt>
      <trkpt lat="45.10138" lon="5.60313">
        <ele>1357.400024414</ele>
        <time>2014-01-31T16:42:13Z</time>
      </trkpt>
      <trkpt lat="45.10138" lon="5.60312">
        <ele>1357.599975586</ele>
        <time>2014-01-31T16:42:14Z</time>
      </trkpt>
      <trkpt lat="45.10135" lon="5.60312">
        <ele>1357.800048828</ele>
        <time>2014-01-31T16:42:16Z</time>
      </trkpt>
      <trkpt lat="45.10133" lon="5.60312">
        <ele>1357.800048828</ele>
        <time>2014-01-31T16:42:18Z</time>
      </trkpt>
      <trkpt lat="45.10129" lon="5.60313">
        <ele>1357.800048828</ele>
        <time>2014-01-31T16:42:22Z</time>
      </trkpt>
      <trkpt lat="45.10126" lon="5.60312">
        <ele>1358</ele>
        <time>2014-01-31T16:42:25Z</time>
      </trkpt>
      <trkpt lat="45.10125" lon="5.60312">
        <ele>1358</ele>
        <time>2014-01-31T16:42:27Z</time>
      </trkpt>
      <trkpt lat="45.10122" lon="5.60312">
        <ele>1358.199951172</ele>
        <time>2014-01-31T16:42:29Z</time>
      </trkpt>
      <trkpt lat="45.10117" lon="5.60312">
        <ele>1358.199951172</ele>
        <time>2014-01-31T16:42:33Z</time>
      </trkpt>
      <trkpt lat="45.10112" lon="5.60313">
        <ele>1358.400024414</ele>
        <time>2014-01-31T16:42:37Z</time>
      </trkpt>
      <trkpt lat="45.10108" lon="5.60313">
        <ele>1358.599975586</ele>
        <time>2014-01-31T16:42:41Z</time>
      </trkpt>
      <trkpt lat="45.10107" lon="5.60314">
        <ele>1358.400024414</ele>
        <time>2014-01-31T16:42:47Z</time>
      </trkpt>
      <trkpt lat="45.10106" lon="5.60314">
        <ele>1358.400024414</ele>
        <time>2014-01-31T16:42:57Z</time>
      </trkpt>
      <trkpt lat="45.10106" lon="5.60314">
        <ele>1358.400024414</ele>
        <time>2014-01-31T16:43:00Z</time>
      </trkpt>
      <trkpt lat="45.10106" lon="5.60314">
        <ele>1358.400024414</ele>
        <time>2014-01-31T16:43:03Z</time>
      </trkpt>
      <trkpt lat="45.10106" lon="5.60314">
        <ele>1358.400024414</ele>
        <time>2014-01-31T16:43:11Z</time>
      </trkpt>
      <trkpt lat="45.10106" lon="5.60314">
        <ele>1358.400024414</ele>
        <time>2014-01-31T16:43:12Z</time>
      </trkpt>
      <trkpt lat="45.10106" lon="5.60314">
        <ele>1358.400024414</ele>
        <time>2014-01-31T16:43:13Z</time>
      </trkpt>
      <trkpt lat="45.10106" lon="5.60314">
        <ele>1358.400024414</ele>
        <time>2014-01-31T16:43:14Z</time>
      </trkpt>
      <trkpt lat="45.10106" lon="5.60314">
        <ele>1358.400024414</ele>
        <time>2014-01-31T16:43:16Z</time>
      </trkpt>
      <trkpt lat="45.10106" lon="5.60314">
        <ele>1358.400024414</ele>
        <time>2014-01-31T16:43:17Z</time>
      </trkpt>
      <trkpt lat="45.10106" lon="5.60314">
        <ele>1358.400024414</ele>
        <time>2014-01-31T16:43:19Z</time>
      </trkpt>
      <trkpt lat="45.10106" lon="5.60314">
        <ele>1358.400024414</ele>
        <time>2014-01-31T16:43:23Z</time>
      </trkpt>
      <trkpt lat="45.10106" lon="5.60314">
        <ele>1358.400024414</ele>
        <time>2014-01-31T16:43:24Z</time>
      </trkpt>
      <trkpt lat="45.10105" lon="5.60315">
        <ele>1358.400024414</ele>
        <time>2014-01-31T16:43:29Z</time>
      </trkpt>
      <trkpt lat="45.10101" lon="5.60314">
        <ele>1358.599975586</ele>
        <time>2014-01-31T16:43:34Z</time>
      </trkpt>
      <trkpt lat="45.10095" lon="5.60313">
        <ele>1359</ele>
        <time>2014-01-31T16:43:39Z</time>
      </trkpt>
      <trkpt lat="45.1009" lon="5.60312">
        <ele>1359.400024414</ele>
        <time>2014-01-31T16:43:43Z</time>
      </trkpt>
      <trkpt lat="45.10084" lon="5.60312">
        <ele>1359.599975586</ele>
        <time>2014-01-31T16:43:47Z</time>
      </trkpt>
      <trkpt lat="45.10082" lon="5.60312">
        <ele>1359.800048828</ele>
        <time>2014-01-31T16:43:48Z</time>
      </trkpt>
      <trkpt lat="45.1008" lon="5.60312">
        <ele>1360.199951172</ele>
        <time>2014-01-31T16:43:50Z</time>
      </trkpt>
      <trkpt lat="45.10079" lon="5.60311">
        <ele>1360.599975586</ele>
        <time>2014-01-31T16:43:51Z</time>
      </trkpt>
      <trkpt lat="45.10072" lon="5.60312">
        <ele>1361.599975586</ele>
        <time>2014-01-31T16:43:56Z</time>
      </trkpt>
      <trkpt lat="45.1007" lon="5.60312">
        <ele>1362</ele>
        <time>2014-01-31T16:43:57Z</time>
      </trkpt>
      <trkpt lat="45.10067" lon="5.60308">
        <ele>1363.199951172</ele>
        <time>2014-01-31T16:44:00Z</time>
      </trkpt>
      <trkpt lat="45.10064" lon="5.60308">
        <ele>1363.800048828</ele>
        <time>2014-01-31T16:44:02Z</time>
      </trkpt>
      <trkpt lat="45.10063" lon="5.60308">
        <ele>1363.800048828</ele>
        <time>2014-01-31T16:44:03Z</time>
      </trkpt>
      <trkpt lat="45.1006" lon="5.60308">
        <ele>1364.400024414</ele>
        <time>2014-01-31T16:44:05Z</time>
      </trkpt>
      <trkpt lat="45.10054" lon="5.60308">
        <ele>1365.599975586</ele>
        <time>2014-01-31T16:44:09Z</time>
      </trkpt>
      <trkpt lat="45.1005" lon="5.60307">
        <ele>1366.400024414</ele>
        <time>2014-01-31T16:44:12Z</time>
      </trkpt>
      <trkpt lat="45.10049" lon="5.60306">
        <ele>1366.800048828</ele>
        <time>2014-01-31T16:44:14Z</time>
      </trkpt>
      <trkpt lat="45.10042" lon="5.60306">
        <ele>1368.199951172</ele>
        <time>2014-01-31T16:44:19Z</time>
      </trkpt>
      <trkpt lat="45.10035" lon="5.60305">
        <ele>1369.400024414</ele>
        <time>2014-01-31T16:44:24Z</time>
      </trkpt>
      <trkpt lat="45.10031" lon="5.60304">
        <ele>1370.199951172</ele>
        <time>2014-01-31T16:44:27Z</time>
      </trkpt>
      <trkpt lat="45.10028" lon="5.60304">
        <ele>1371</ele>
        <time>2014-01-31T16:44:30Z</time>
      </trkpt>
      <trkpt lat="45.10023" lon="5.60304">
        <ele>1371.800048828</ele>
        <time>2014-01-31T16:44:35Z</time>
      </trkpt>
      <trkpt lat="45.10019" lon="5.60303">
        <ele>1372.800048828</ele>
        <time>2014-01-31T16:44:39Z</time>
      </trkpt>
      <trkpt lat="45.10016" lon="5.60303">
        <ele>1373.400024414</ele>
        <time>2014-01-31T16:44:40Z</time>
      </trkpt>
      <trkpt lat="45.10011" lon="5.60303">
        <ele>1374.400024414</ele>
        <time>2014-01-31T16:44:43Z</time>
      </trkpt>
      <trkpt lat="45.10002" lon="5.603">
        <ele>1376.400024414</ele>
        <time>2014-01-31T16:44:47Z</time>
      </trkpt>
      <trkpt lat="45.1" lon="5.603">
        <ele>1376.800048828</ele>
        <time>2014-01-31T16:44:49Z</time>
      </trkpt>
      <trkpt lat="45.09997" lon="5.60301">
        <ele>1377</ele>
        <time>2014-01-31T16:44:51Z</time>
      </trkpt>
      <trkpt lat="45.09996" lon="5.60301">
        <ele>1377.199951172</ele>
        <time>2014-01-31T16:44:52Z</time>
      </trkpt>
      <trkpt lat="45.09995" lon="5.60301">
        <ele>1377.199951172</ele>
        <time>2014-01-31T16:44:53Z</time>
      </trkpt>
      <trkpt lat="45.09993" lon="5.60301">
        <ele>1377.400024414</ele>
        <time>2014-01-31T16:44:56Z</time>
      </trkpt>
      <trkpt lat="45.09988" lon="5.603">
        <ele>1378</ele>
        <time>2014-01-31T16:45:01Z</time>
      </trkpt>
      <trkpt lat="45.09987" lon="5.603">
        <ele>1378.199951172</ele>
        <time>2014-01-31T16:45:02Z</time>
      </trkpt>
      <trkpt lat="45.09981" lon="5.60301">
        <ele>1378.599975586</ele>
        <time>2014-01-31T16:45:07Z</time>
      </trkpt>
      <trkpt lat="45.09981" lon="5.60301">
        <ele>1378.800048828</ele>
        <time>2014-01-31T16:45:08Z</time>
      </trkpt>
      <trkpt lat="45.09977" lon="5.603">
        <ele>1379.199951172</ele>
        <time>2014-01-31T16:45:11Z</time>
      </trkpt>
      <trkpt lat="45.09972" lon="5.603">
        <ele>1379.800048828</ele>
        <time>2014-01-31T16:45:15Z</time>
      </trkpt>
      <trkpt lat="45.09969" lon="5.60299">
        <ele>1380.199951172</ele>
        <time>2014-01-31T16:45:18Z</time>
      </trkpt>
      <trkpt lat="45.09966" lon="5.60299">
        <ele>1380.599975586</ele>
        <time>2014-01-31T16:45:21Z</time>
      </trkpt>
      <trkpt lat="45.09963" lon="5.60298">
        <ele>1381</ele>
        <time>2014-01-31T16:45:25Z</time>
      </trkpt>
      <trkpt lat="45.09958" lon="5.60298">
        <ele>1381.599975586</ele>
        <time>2014-01-31T16:45:28Z</time>
      </trkpt>
      <trkpt lat="45.09953" lon="5.60298">
        <ele>1382.199951172</ele>
        <time>2014-01-31T16:45:33Z</time>
      </trkpt>
      <trkpt lat="45.09948" lon="5.60298">
        <ele>1382.599975586</ele>
        <time>2014-01-31T16:45:37Z</time>
      </trkpt>
      <trkpt lat="45.09938" lon="5.60298">
        <ele>1383.599975586</ele>
        <time>2014-01-31T16:45:44Z</time>
      </trkpt>
      <trkpt lat="45.09932" lon="5.60297">
        <ele>1384.400024414</ele>
        <time>2014-01-31T16:45:49Z</time>
      </trkpt>
      <trkpt lat="45.09923" lon="5.60297">
        <ele>1385.400024414</ele>
        <time>2014-01-31T16:45:56Z</time>
      </trkpt>
      <trkpt lat="45.09916" lon="5.60295">
        <ele>1386.400024414</ele>
        <time>2014-01-31T16:46:03Z</time>
      </trkpt>
      <trkpt lat="45.09909" lon="5.60294">
        <ele>1387.400024414</ele>
        <time>2014-01-31T16:46:09Z</time>
      </trkpt>
      <trkpt lat="45.09905" lon="5.60293">
        <ele>1388</ele>
        <time>2014-01-31T16:46:13Z</time>
      </trkpt>
      <trkpt lat="45.099" lon="5.60293">
        <ele>1388.800048828</ele>
        <time>2014-01-31T16:46:17Z</time>
      </trkpt>
      <trkpt lat="45.09895" lon="5.60292">
        <ele>1389.599975586</ele>
        <time>2014-01-31T16:46:21Z</time>
      </trkpt>
      <trkpt lat="45.09892" lon="5.60292">
        <ele>1390</ele>
        <time>2014-01-31T16:46:24Z</time>
      </trkpt>
      <trkpt lat="45.09889" lon="5.60291">
        <ele>1390.599975586</ele>
        <time>2014-01-31T16:46:28Z</time>
      </trkpt>
      <trkpt lat="45.09887" lon="5.6029">
        <ele>1390.800048828</ele>
        <time>2014-01-31T16:46:29Z</time>
      </trkpt>
      <trkpt lat="45.09884" lon="5.6029">
        <ele>1391.400024414</ele>
        <time>2014-01-31T16:46:32Z</time>
      </trkpt>
      <trkpt lat="45.09881" lon="5.60289">
        <ele>1391.800048828</ele>
        <time>2014-01-31T16:46:35Z</time>
      </trkpt>
      <trkpt lat="45.0988" lon="5.60289">
        <ele>1392</ele>
        <time>2014-01-31T16:46:36Z</time>
      </trkpt>
      <trkpt lat="45.09874" lon="5.60288">
        <ele>1393</ele>
        <time>2014-01-31T16:46:42Z</time>
      </trkpt>
      <trkpt lat="45.09866" lon="5.60287">
        <ele>1394.199951172</ele>
        <time>2014-01-31T16:46:49Z</time>
      </trkpt>
      <trkpt lat="45.0986" lon="5.60286">
        <ele>1395.199951172</ele>
        <time>2014-01-31T16:46:55Z</time>
      </trkpt>
      <trkpt lat="45.09853" lon="5.60288">
        <ele>1396</ele>
        <time>2014-01-31T16:47:01Z</time>
      </trkpt>
      <trkpt lat="45.09845" lon="5.60292">
        <ele>1396.800048828</ele>
        <time>2014-01-31T16:47:08Z</time>
      </trkpt>
      <trkpt lat="45.0984" lon="5.60294">
        <ele>1397.199951172</ele>
        <time>2014-01-31T16:47:13Z</time>
      </trkpt>
      <trkpt lat="45.09839" lon="5.60295">
        <ele>1397.400024414</ele>
        <time>2014-01-31T16:47:14Z</time>
      </trkpt>
      <trkpt lat="45.09832" lon="5.60297">
        <ele>1398.199951172</ele>
        <time>2014-01-31T16:47:20Z</time>
      </trkpt>
      <trkpt lat="45.09825" lon="5.60298">
        <ele>1400</ele>
        <time>2014-01-31T16:47:27Z</time>
      </trkpt>
      <trkpt lat="45.09817" lon="5.60299">
        <ele>1401.800048828</ele>
        <time>2014-01-31T16:47:34Z</time>
      </trkpt>
      <trkpt lat="45.09812" lon="5.60299">
        <ele>1403</ele>
        <time>2014-01-31T16:47:39Z</time>
      </trkpt>
      <trkpt lat="45.09806" lon="5.603">
        <ele>1404.599975586</ele>
        <time>2014-01-31T16:47:45Z</time>
      </trkpt>
      <trkpt lat="45.09797" lon="5.60301">
        <ele>1406.599975586</ele>
        <time>2014-01-31T16:47:53Z</time>
      </trkpt>
      <trkpt lat="45.09791" lon="5.60302">
        <ele>1408</ele>
        <time>2014-01-31T16:47:59Z</time>
      </trkpt>
      <trkpt lat="45.09785" lon="5.60303">
        <ele>1409.599975586</ele>
        <time>2014-01-31T16:48:05Z</time>
      </trkpt>
      <trkpt lat="45.09784" lon="5.60302">
        <ele>1409.800048828</ele>
        <time>2014-01-31T16:48:06Z</time>
      </trkpt>
      <trkpt lat="45.09781" lon="5.60303">
        <ele>1410.400024414</ele>
        <time>2014-01-31T16:48:09Z</time>
      </trkpt>
      <trkpt lat="45.09776" lon="5.60303">
        <ele>1411.800048828</ele>
        <time>2014-01-31T16:48:14Z</time>
      </trkpt>
      <trkpt lat="45.09774" lon="5.60304">
        <ele>1412.199951172</ele>
        <time>2014-01-31T16:48:16Z</time>
      </trkpt>
      <trkpt lat="45.09771" lon="5.60304">
        <ele>1413</ele>
        <time>2014-01-31T16:48:19Z</time>
      </trkpt>
      <trkpt lat="45.09764" lon="5.60305">
        <ele>1414.599975586</ele>
        <time>2014-01-31T16:48:26Z</time>
      </trkpt>
      <trkpt lat="45.09761" lon="5.60305">
        <ele>1415.400024414</ele>
        <time>2014-01-31T16:48:30Z</time>
      </trkpt>
      <trkpt lat="45.09757" lon="5.60304">
        <ele>1416.400024414</ele>
        <time>2014-01-31T16:48:34Z</time>
      </trkpt>
      <trkpt lat="45.09753" lon="5.60305">
        <ele>1417.400024414</ele>
        <time>2014-01-31T16:48:39Z</time>
      </trkpt>
      <trkpt lat="45.09746" lon="5.60306">
        <ele>1418.199951172</ele>
        <time>2014-01-31T16:48:45Z</time>
      </trkpt>
      <trkpt lat="45.0974" lon="5.60308">
        <ele>1418.599975586</ele>
        <time>2014-01-31T16:48:51Z</time>
      </trkpt>
      <trkpt lat="45.09737" lon="5.60308">
        <ele>1418.800048828</ele>
        <time>2014-01-31T16:48:54Z</time>
      </trkpt>
      <trkpt lat="45.09734" lon="5.60309">
        <ele>1419</ele>
        <time>2014-01-31T16:48:57Z</time>
      </trkpt>
      <trkpt lat="45.09728" lon="5.60309">
        <ele>1419.599975586</ele>
        <time>2014-01-31T16:49:03Z</time>
      </trkpt>
      <trkpt lat="45.09722" lon="5.60309">
        <ele>1420.199951172</ele>
        <time>2014-01-31T16:49:09Z</time>
      </trkpt>
      <trkpt lat="45.09715" lon="5.60309">
        <ele>1420.800048828</ele>
        <time>2014-01-31T16:49:15Z</time>
      </trkpt>
      <trkpt lat="45.09709" lon="5.60309">
        <ele>1421.400024414</ele>
        <time>2014-01-31T16:49:21Z</time>
      </trkpt>
      <trkpt lat="45.09701" lon="5.60308">
        <ele>1422.199951172</ele>
        <time>2014-01-31T16:49:28Z</time>
      </trkpt>
      <trkpt lat="45.09696" lon="5.60308">
        <ele>1422.599975586</ele>
        <time>2014-01-31T16:49:33Z</time>
      </trkpt>
      <trkpt lat="45.09689" lon="5.60308">
        <ele>1423.400024414</ele>
        <time>2014-01-31T16:49:39Z</time>
      </trkpt>
      <trkpt lat="45.09681" lon="5.60308">
        <ele>1424.199951172</ele>
        <time>2014-01-31T16:49:46Z</time>
      </trkpt>
      <trkpt lat="45.09675" lon="5.60307">
        <ele>1424.599975586</ele>
        <time>2014-01-31T16:49:51Z</time>
      </trkpt>
      <trkpt lat="45.09668" lon="5.60307">
        <ele>1425.400024414</ele>
        <time>2014-01-31T16:49:57Z</time>
      </trkpt>
      <trkpt lat="45.09661" lon="5.60305">
        <ele>1426</ele>
        <time>2014-01-31T16:50:04Z</time>
      </trkpt>
      <trkpt lat="45.09654" lon="5.60304">
        <ele>1426.400024414</ele>
        <time>2014-01-31T16:50:10Z</time>
      </trkpt>
      <trkpt lat="45.09649" lon="5.60304">
        <ele>1426.800048828</ele>
        <time>2014-01-31T16:50:15Z</time>
      </trkpt>
      <trkpt lat="45.09645" lon="5.60303">
        <ele>1427.199951172</ele>
        <time>2014-01-31T16:50:19Z</time>
      </trkpt>
      <trkpt lat="45.09638" lon="5.60302">
        <ele>1427.599975586</ele>
        <time>2014-01-31T16:50:25Z</time>
      </trkpt>
      <trkpt lat="45.09631" lon="5.603">
        <ele>1428</ele>
        <time>2014-01-31T16:50:32Z</time>
      </trkpt>
      <trkpt lat="45.09624" lon="5.60298">
        <ele>1428.599975586</ele>
        <time>2014-01-31T16:50:38Z</time>
      </trkpt>
      <trkpt lat="45.09616" lon="5.60297">
        <ele>1429</ele>
        <time>2014-01-31T16:50:45Z</time>
      </trkpt>
      <trkpt lat="45.09606" lon="5.60295">
        <ele>1429.599975586</ele>
        <time>2014-01-31T16:50:53Z</time>
      </trkpt>
      <trkpt lat="45.09599" lon="5.60294">
        <ele>1430.199951172</ele>
        <time>2014-01-31T16:51:00Z</time>
      </trkpt>
      <trkpt lat="45.09591" lon="5.60291">
        <ele>1430.599975586</ele>
        <time>2014-01-31T16:51:08Z</time>
      </trkpt>
      <trkpt lat="45.09582" lon="5.60289">
        <ele>1431.400024414</ele>
        <time>2014-01-31T16:51:16Z</time>
      </trkpt>
      <trkpt lat="45.09573" lon="5.60288">
        <ele>1432.800048828</ele>
        <time>2014-01-31T16:51:24Z</time>
      </trkpt>
      <trkpt lat="45.09565" lon="5.60288">
        <ele>1434</ele>
        <time>2014-01-31T16:51:31Z</time>
      </trkpt>
      <trkpt lat="45.09561" lon="5.60289">
        <ele>1434.599975586</ele>
        <time>2014-01-31T16:51:36Z</time>
      </trkpt>
      <trkpt lat="45.09561" lon="5.6029">
        <ele>1434.800048828</ele>
        <time>2014-01-31T16:51:37Z</time>
      </trkpt>
      <trkpt lat="45.0956" lon="5.6029">
        <ele>1434.800048828</ele>
        <time>2014-01-31T16:51:43Z</time>
      </trkpt>
      <trkpt lat="45.09561" lon="5.60291">
        <ele>1434.800048828</ele>
        <time>2014-01-31T16:51:49Z</time>
      </trkpt>
      <trkpt lat="45.09562" lon="5.60287">
        <ele>1434.599975586</ele>
        <time>2014-01-31T16:51:52Z</time>
      </trkpt>
      <trkpt lat="45.09562" lon="5.60286">
        <ele>1434.599975586</ele>
        <time>2014-01-31T16:51:54Z</time>
      </trkpt>
      <trkpt lat="45.09563" lon="5.60286">
        <ele>1434.599975586</ele>
        <time>2014-01-31T16:51:56Z</time>
      </trkpt>
      <trkpt lat="45.09563" lon="5.60285">
        <ele>1434.599975586</ele>
        <time>2014-01-31T16:51:58Z</time>
      </trkpt>
      <trkpt lat="45.09563" lon="5.60285">
        <ele>1434.599975586</ele>
        <time>2014-01-31T16:51:59Z</time>
      </trkpt>
      <trkpt lat="45.09563" lon="5.60285">
        <ele>1434.599975586</ele>
        <time>2014-01-31T16:52:01Z</time>
      </trkpt>
      <trkpt lat="45.09563" lon="5.60285">
        <ele>1434.599975586</ele>
        <time>2014-01-31T16:52:11Z</time>
      </trkpt>
      <trkpt lat="45.09563" lon="5.60285">
        <ele>1434.599975586</ele>
        <time>2014-01-31T16:52:14Z</time>
      </trkpt>
      <trkpt lat="45.09563" lon="5.60285">
        <ele>1434.599975586</ele>
        <time>2014-01-31T16:52:15Z</time>
      </trkpt>
      <trkpt lat="45.09563" lon="5.60285">
        <ele>1434.599975586</ele>
        <time>2014-01-31T16:52:16Z</time>
      </trkpt>
      <trkpt lat="45.09562" lon="5.60286">
        <ele>1434.599975586</ele>
        <time>2014-01-31T16:52:27Z</time>
      </trkpt>
      <trkpt lat="45.09562" lon="5.60286">
        <ele>1434.599975586</ele>
        <time>2014-01-31T16:52:28Z</time>
      </trkpt>
      <trkpt lat="45.09562" lon="5.60285">
        <ele>1434.800048828</ele>
        <time>2014-01-31T16:52:34Z</time>
      </trkpt>
      <trkpt lat="45.09561" lon="5.60285">
        <ele>1434.800048828</ele>
        <time>2014-01-31T16:52:35Z</time>
      </trkpt>
      <trkpt lat="45.09559" lon="5.60283">
        <ele>1435.400024414</ele>
        <time>2014-01-31T16:52:38Z</time>
      </trkpt>
      <trkpt lat="45.09557" lon="5.60281">
        <ele>1435.599975586</ele>
        <time>2014-01-31T16:52:40Z</time>
      </trkpt>
      <trkpt lat="45.09556" lon="5.60281">
        <ele>1435.800048828</ele>
        <time>2014-01-31T16:52:42Z</time>
      </trkpt>
      <trkpt lat="45.09554" lon="5.60281">
        <ele>1436.199951172</ele>
        <time>2014-01-31T16:52:44Z</time>
      </trkpt>
      <trkpt lat="45.09551" lon="5.60281">
        <ele>1436.599975586</ele>
        <time>2014-01-31T16:52:46Z</time>
      </trkpt>
      <trkpt lat="45.09549" lon="5.60281">
        <ele>1436.800048828</ele>
        <time>2014-01-31T16:52:48Z</time>
      </trkpt>
      <trkpt lat="45.09546" lon="5.60281">
        <ele>1437.400024414</ele>
        <time>2014-01-31T16:52:51Z</time>
      </trkpt>
      <trkpt lat="45.09543" lon="5.60281">
        <ele>1437.800048828</ele>
        <time>2014-01-31T16:52:54Z</time>
      </trkpt>
      <trkpt lat="45.09543" lon="5.60281">
        <ele>1438</ele>
        <time>2014-01-31T16:52:55Z</time>
      </trkpt>
      <trkpt lat="45.09538" lon="5.60282">
        <ele>1438.599975586</ele>
        <time>2014-01-31T16:52:59Z</time>
      </trkpt>
      <trkpt lat="45.09534" lon="5.6028">
        <ele>1439.199951172</ele>
        <time>2014-01-31T16:53:03Z</time>
      </trkpt>
      <trkpt lat="45.09531" lon="5.60279">
        <ele>1439.800048828</ele>
        <time>2014-01-31T16:53:07Z</time>
      </trkpt>
      <trkpt lat="45.0953" lon="5.60279">
        <ele>1440</ele>
        <time>2014-01-31T16:53:08Z</time>
      </trkpt>
      <trkpt lat="45.09525" lon="5.60278">
        <ele>1440.599975586</ele>
        <time>2014-01-31T16:53:12Z</time>
      </trkpt>
      <trkpt lat="45.09523" lon="5.60279">
        <ele>1441.199951172</ele>
        <time>2014-01-31T16:53:15Z</time>
      </trkpt>
      <trkpt lat="45.09519" lon="5.60279">
        <ele>1441.599975586</ele>
        <time>2014-01-31T16:53:18Z</time>
      </trkpt>
      <trkpt lat="45.09514" lon="5.6028">
        <ele>1442.599975586</ele>
        <time>2014-01-31T16:53:23Z</time>
      </trkpt>
      <trkpt lat="45.09512" lon="5.6028">
        <ele>1442.599975586</ele>
        <time>2014-01-31T16:53:24Z</time>
      </trkpt>
      <trkpt lat="45.09506" lon="5.60279">
        <ele>1443.599975586</ele>
        <time>2014-01-31T16:53:30Z</time>
      </trkpt>
      <trkpt lat="45.09505" lon="5.60279">
        <ele>1443.800048828</ele>
        <time>2014-01-31T16:53:31Z</time>
      </trkpt>
      <trkpt lat="45.09501" lon="5.60279">
        <ele>1444.400024414</ele>
        <time>2014-01-31T16:53:35Z</time>
      </trkpt>
      <trkpt lat="45.09496" lon="5.60277">
        <ele>1445.199951172</ele>
        <time>2014-01-31T16:53:40Z</time>
      </trkpt>
      <trkpt lat="45.09496" lon="5.60277">
        <ele>1445.199951172</ele>
        <time>2014-01-31T16:53:41Z</time>
      </trkpt>
      <trkpt lat="45.09491" lon="5.60277">
        <ele>1445.800048828</ele>
        <time>2014-01-31T16:53:45Z</time>
      </trkpt>
      <trkpt lat="45.09488" lon="5.60275">
        <ele>1446.199951172</ele>
        <time>2014-01-31T16:53:49Z</time>
      </trkpt>
      <trkpt lat="45.09485" lon="5.60274">
        <ele>1446.800048828</ele>
        <time>2014-01-31T16:53:53Z</time>
      </trkpt>
      <trkpt lat="45.09481" lon="5.60273">
        <ele>1447.199951172</ele>
        <time>2014-01-31T16:53:57Z</time>
      </trkpt>
      <trkpt lat="45.09476" lon="5.60272">
        <ele>1447.800048828</ele>
        <time>2014-01-31T16:54:03Z</time>
      </trkpt>
      <trkpt lat="45.09474" lon="5.60272">
        <ele>1448</ele>
        <time>2014-01-31T16:54:05Z</time>
      </trkpt>
      <trkpt lat="45.09471" lon="5.60272">
        <ele>1448.599975586</ele>
        <time>2014-01-31T16:54:09Z</time>
      </trkpt>
      <trkpt lat="45.09468" lon="5.60272">
        <ele>1448.800048828</ele>
        <time>2014-01-31T16:54:12Z</time>
      </trkpt>
      <trkpt lat="45.09465" lon="5.60273">
        <ele>1449.199951172</ele>
        <time>2014-01-31T16:54:16Z</time>
      </trkpt>
      <trkpt lat="45.09461" lon="5.60276">
        <ele>1449.800048828</ele>
        <time>2014-01-31T16:54:20Z</time>
      </trkpt>
      <trkpt lat="45.09458" lon="5.6028">
        <ele>1450.599975586</ele>
        <time>2014-01-31T16:54:25Z</time>
      </trkpt>
      <trkpt lat="45.09454" lon="5.60283">
        <ele>1451</ele>
        <time>2014-01-31T16:54:29Z</time>
      </trkpt>
      <trkpt lat="45.0945" lon="5.60287">
        <ele>1451.800048828</ele>
        <time>2014-01-31T16:54:34Z</time>
      </trkpt>
      <trkpt lat="45.09448" lon="5.60288">
        <ele>1452.199951172</ele>
        <time>2014-01-31T16:54:37Z</time>
      </trkpt>
      <trkpt lat="45.09444" lon="5.60291">
        <ele>1452.800048828</ele>
        <time>2014-01-31T16:54:41Z</time>
      </trkpt>
      <trkpt lat="45.0944" lon="5.60293">
        <ele>1453.400024414</ele>
        <time>2014-01-31T16:54:45Z</time>
      </trkpt>
      <trkpt lat="45.09436" lon="5.60296">
        <ele>1454.199951172</ele>
        <time>2014-01-31T16:54:50Z</time>
      </trkpt>
      <trkpt lat="45.09433" lon="5.60299">
        <ele>1455</ele>
        <time>2014-01-31T16:54:54Z</time>
      </trkpt>
      <trkpt lat="45.09426" lon="5.60302">
        <ele>1456.199951172</ele>
        <time>2014-01-31T16:55:00Z</time>
      </trkpt>
      <trkpt lat="45.09419" lon="5.60305">
        <ele>1457.599975586</ele>
        <time>2014-01-31T16:55:05Z</time>
      </trkpt>
      <trkpt lat="45.09415" lon="5.60308">
        <ele>1458.400024414</ele>
        <time>2014-01-31T16:55:10Z</time>
      </trkpt>
      <trkpt lat="45.09411" lon="5.6031">
        <ele>1459</ele>
        <time>2014-01-31T16:55:17Z</time>
      </trkpt>
      <trkpt lat="45.09404" lon="5.60313">
        <ele>1460.199951172</ele>
        <time>2014-01-31T16:55:23Z</time>
      </trkpt>
      <trkpt lat="45.09401" lon="5.60322">
        <ele>1461.400024414</ele>
        <time>2014-01-31T16:55:30Z</time>
      </trkpt>
      <trkpt lat="45.09399" lon="5.60331">
        <ele>1462.400024414</ele>
        <time>2014-01-31T16:55:36Z</time>
      </trkpt>
      <trkpt lat="45.09397" lon="5.60337">
        <ele>1463.400024414</ele>
        <time>2014-01-31T16:55:42Z</time>
      </trkpt>
      <trkpt lat="45.09396" lon="5.60341">
        <ele>1464.199951172</ele>
        <time>2014-01-31T16:55:46Z</time>
      </trkpt>
      <trkpt lat="45.09394" lon="5.60351">
        <ele>1465.800048828</ele>
        <time>2014-01-31T16:55:53Z</time>
      </trkpt>
      <trkpt lat="45.09393" lon="5.60354">
        <ele>1466.400024414</ele>
        <time>2014-01-31T16:55:56Z</time>
      </trkpt>
      <trkpt lat="45.09394" lon="5.60356">
        <ele>1466.400024414</ele>
        <time>2014-01-31T16:55:58Z</time>
      </trkpt>
      <trkpt lat="45.09394" lon="5.60358">
        <ele>1467</ele>
        <time>2014-01-31T16:56:00Z</time>
      </trkpt>
      <trkpt lat="45.09392" lon="5.60362">
        <ele>1467.599975586</ele>
        <time>2014-01-31T16:56:02Z</time>
      </trkpt>
      <trkpt lat="45.09393" lon="5.60366">
        <ele>1468.199951172</ele>
        <time>2014-01-31T16:56:05Z</time>
      </trkpt>
      <trkpt lat="45.09392" lon="5.60369">
        <ele>1468.800048828</ele>
        <time>2014-01-31T16:56:08Z</time>
      </trkpt>
      <trkpt lat="45.09392" lon="5.60377">
        <ele>1470</ele>
        <time>2014-01-31T16:56:14Z</time>
      </trkpt>
      <trkpt lat="45.09391" lon="5.60379">
        <ele>1470.400024414</ele>
        <time>2014-01-31T16:56:15Z</time>
      </trkpt>
      <trkpt lat="45.0939" lon="5.60383">
        <ele>1471</ele>
        <time>2014-01-31T16:56:19Z</time>
      </trkpt>
      <trkpt lat="45.0939" lon="5.60385">
        <ele>1471.199951172</ele>
        <time>2014-01-31T16:56:20Z</time>
      </trkpt>
      <trkpt lat="45.09389" lon="5.60387">
        <ele>1471.599975586</ele>
        <time>2014-01-31T16:56:22Z</time>
      </trkpt>
      <trkpt lat="45.09388" lon="5.60391">
        <ele>1472.400024414</ele>
        <time>2014-01-31T16:56:27Z</time>
      </trkpt>
      <trkpt lat="45.09387" lon="5.60396">
        <ele>1473.400024414</ele>
        <time>2014-01-31T16:56:31Z</time>
      </trkpt>
      <trkpt lat="45.09384" lon="5.60398">
        <ele>1474</ele>
        <time>2014-01-31T16:56:36Z</time>
      </trkpt>
      <trkpt lat="45.09384" lon="5.60403">
        <ele>1474.599975586</ele>
        <time>2014-01-31T16:56:44Z</time>
      </trkpt>
      <trkpt lat="45.09382" lon="5.60406">
        <ele>1475.199951172</ele>
        <time>2014-01-31T16:56:47Z</time>
      </trkpt>
      <trkpt lat="45.0938" lon="5.60408">
        <ele>1475.800048828</ele>
        <time>2014-01-31T16:56:52Z</time>
      </trkpt>
      <trkpt lat="45.09377" lon="5.60414">
        <ele>1476.800048828</ele>
        <time>2014-01-31T16:56:57Z</time>
      </trkpt>
      <trkpt lat="45.09376" lon="5.60415">
        <ele>1477</ele>
        <time>2014-01-31T16:56:59Z</time>
      </trkpt>
      <trkpt lat="45.09377" lon="5.60416">
        <ele>1477.199951172</ele>
        <time>2014-01-31T16:57:00Z</time>
      </trkpt>
      <trkpt lat="45.09376" lon="5.60417">
        <ele>1477.599975586</ele>
        <time>2014-01-31T16:57:01Z</time>
      </trkpt>
      <trkpt lat="45.09375" lon="5.6042">
        <ele>1478.199951172</ele>
        <time>2014-01-31T16:57:04Z</time>
      </trkpt>
      <trkpt lat="45.09374" lon="5.60425">
        <ele>1479.599975586</ele>
        <time>2014-01-31T16:57:08Z</time>
      </trkpt>
      <trkpt lat="45.09374" lon="5.60427">
        <ele>1479.800048828</ele>
        <time>2014-01-31T16:57:09Z</time>
      </trkpt>
      <trkpt lat="45.09374" lon="5.60429">
        <ele>1480.199951172</ele>
        <time>2014-01-31T16:57:12Z</time>
      </trkpt>
      <trkpt lat="45.09373" lon="5.60431">
        <ele>1480.800048828</ele>
        <time>2014-01-31T16:57:17Z</time>
      </trkpt>
      <trkpt lat="45.09371" lon="5.60433">
        <ele>1481.400024414</ele>
        <time>2014-01-31T16:57:19Z</time>
      </trkpt>
      <trkpt lat="45.09371" lon="5.60437">
        <ele>1482.199951172</ele>
        <time>2014-01-31T16:57:22Z</time>
      </trkpt>
      <trkpt lat="45.09371" lon="5.60441">
        <ele>1483</ele>
        <time>2014-01-31T16:57:25Z</time>
      </trkpt>
      <trkpt lat="45.09371" lon="5.60441">
        <ele>1483.199951172</ele>
        <time>2014-01-31T16:57:26Z</time>
      </trkpt>
      <trkpt lat="45.09371" lon="5.60443">
        <ele>1483.599975586</ele>
        <time>2014-01-31T16:57:28Z</time>
      </trkpt>
      <trkpt lat="45.09371" lon="5.60446">
        <ele>1484.199951172</ele>
        <time>2014-01-31T16:57:30Z</time>
      </trkpt>
      <trkpt lat="45.09371" lon="5.6045">
        <ele>1485</ele>
        <time>2014-01-31T16:57:34Z</time>
      </trkpt>
      <trkpt lat="45.0937" lon="5.60451">
        <ele>1485.400024414</ele>
        <time>2014-01-31T16:57:35Z</time>
      </trkpt>
      <trkpt lat="45.09369" lon="5.60455">
        <ele>1486.400024414</ele>
        <time>2014-01-31T16:57:38Z</time>
      </trkpt>
      <trkpt lat="45.09369" lon="5.60455">
        <ele>1486.400024414</ele>
        <time>2014-01-31T16:57:39Z</time>
      </trkpt>
      <trkpt lat="45.09367" lon="5.60459">
        <ele>1487.199951172</ele>
        <time>2014-01-31T16:57:42Z</time>
      </trkpt>
      <trkpt lat="45.09366" lon="5.60464">
        <ele>1488.599975586</ele>
        <time>2014-01-31T16:57:48Z</time>
      </trkpt>
      <trkpt lat="45.09366" lon="5.60467">
        <ele>1489.199951172</ele>
        <time>2014-01-31T16:57:51Z</time>
      </trkpt>
      <trkpt lat="45.09365" lon="5.60467">
        <ele>1489.400024414</ele>
        <time>2014-01-31T16:57:52Z</time>
      </trkpt>
      <trkpt lat="45.09364" lon="5.6047">
        <ele>1490</ele>
        <time>2014-01-31T16:57:56Z</time>
      </trkpt>
      <trkpt lat="45.09363" lon="5.60474">
        <ele>1490.800048828</ele>
        <time>2014-01-31T16:58:00Z</time>
      </trkpt>
      <trkpt lat="45.09362" lon="5.60479">
        <ele>1492.199951172</ele>
        <time>2014-01-31T16:58:05Z</time>
      </trkpt>
      <trkpt lat="45.09361" lon="5.60482">
        <ele>1493</ele>
        <time>2014-01-31T16:58:09Z</time>
      </trkpt>
      <trkpt lat="45.0936" lon="5.60487">
        <ele>1493.800048828</ele>
        <time>2014-01-31T16:58:12Z</time>
      </trkpt>
      <trkpt lat="45.0936" lon="5.60487">
        <ele>1494</ele>
        <time>2014-01-31T16:58:13Z</time>
      </trkpt>
      <trkpt lat="45.09359" lon="5.60489">
        <ele>1494.599975586</ele>
        <time>2014-01-31T16:58:15Z</time>
      </trkpt>
      <trkpt lat="45.0936" lon="5.60492">
        <ele>1495.199951172</ele>
        <time>2014-01-31T16:58:18Z</time>
      </trkpt>
      <trkpt lat="45.09361" lon="5.60498">
        <ele>1496.199951172</ele>
        <time>2014-01-31T16:58:23Z</time>
      </trkpt>
      <trkpt lat="45.09362" lon="5.60498">
        <ele>1496.199951172</ele>
        <time>2014-01-31T16:58:24Z</time>
      </trkpt>
      <trkpt lat="45.09361" lon="5.605">
        <ele>1496.800048828</ele>
        <time>2014-01-31T16:58:26Z</time>
      </trkpt>
      <trkpt lat="45.09358" lon="5.60503">
        <ele>1497.599975586</ele>
        <time>2014-01-31T16:58:29Z</time>
      </trkpt>
      <trkpt lat="45.09355" lon="5.60508">
        <ele>1498.800048828</ele>
        <time>2014-01-31T16:58:34Z</time>
      </trkpt>
      <trkpt lat="45.09355" lon="5.6051">
        <ele>1499.400024414</ele>
        <time>2014-01-31T16:58:36Z</time>
      </trkpt>
      <trkpt lat="45.09355" lon="5.60513">
        <ele>1500</ele>
        <time>2014-01-31T16:58:39Z</time>
      </trkpt>
      <trkpt lat="45.09355" lon="5.60516">
        <ele>1500.800048828</ele>
        <time>2014-01-31T16:58:43Z</time>
      </trkpt>
      <trkpt lat="45.09353" lon="5.60521">
        <ele>1502</ele>
        <time>2014-01-31T16:58:47Z</time>
      </trkpt>
      <trkpt lat="45.09352" lon="5.60522">
        <ele>1502.400024414</ele>
        <time>2014-01-31T16:58:49Z</time>
      </trkpt>
      <trkpt lat="45.09351" lon="5.60524">
        <ele>1503</ele>
        <time>2014-01-31T16:58:51Z</time>
      </trkpt>
      <trkpt lat="45.09347" lon="5.60531">
        <ele>1504.599975586</ele>
        <time>2014-01-31T16:58:56Z</time>
      </trkpt>
      <trkpt lat="45.09347" lon="5.60536">
        <ele>1505.800048828</ele>
        <time>2014-01-31T16:59:01Z</time>
      </trkpt>
      <trkpt lat="45.09346" lon="5.60538">
        <ele>1506.199951172</ele>
        <time>2014-01-31T16:59:02Z</time>
      </trkpt>
      <trkpt lat="45.09344" lon="5.60541">
        <ele>1507</ele>
        <time>2014-01-31T16:59:04Z</time>
      </trkpt>
      <trkpt lat="45.09343" lon="5.60542">
        <ele>1507.400024414</ele>
        <time>2014-01-31T16:59:06Z</time>
      </trkpt>
      <trkpt lat="45.09344" lon="5.60546">
        <ele>1508.199951172</ele>
        <time>2014-01-31T16:59:09Z</time>
      </trkpt>
      <trkpt lat="45.09344" lon="5.60547">
        <ele>1508.400024414</ele>
        <time>2014-01-31T16:59:10Z</time>
      </trkpt>
      <trkpt lat="45.09345" lon="5.6055">
        <ele>1509</ele>
        <time>2014-01-31T16:59:15Z</time>
      </trkpt>
      <trkpt lat="45.09345" lon="5.60551">
        <ele>1509.400024414</ele>
        <time>2014-01-31T16:59:19Z</time>
      </trkpt>
      <trkpt lat="45.09343" lon="5.60556">
        <ele>1510.599975586</ele>
        <time>2014-01-31T16:59:24Z</time>
      </trkpt>
      <trkpt lat="45.09344" lon="5.6056">
        <ele>1511.199951172</ele>
        <time>2014-01-31T16:59:28Z</time>
      </trkpt>
      <trkpt lat="45.09345" lon="5.60563">
        <ele>1511.800048828</ele>
        <time>2014-01-31T16:59:32Z</time>
      </trkpt>
      <trkpt lat="45.09345" lon="5.60568">
        <ele>1512.800048828</ele>
        <time>2014-01-31T16:59:36Z</time>
      </trkpt>
      <trkpt lat="45.09345" lon="5.60571">
        <ele>1513.599975586</ele>
        <time>2014-01-31T16:59:41Z</time>
      </trkpt>
      <trkpt lat="45.09344" lon="5.60573">
        <ele>1514</ele>
        <time>2014-01-31T16:59:43Z</time>
      </trkpt>
      <trkpt lat="45.09342" lon="5.60575">
        <ele>1514.800048828</ele>
        <time>2014-01-31T16:59:46Z</time>
      </trkpt>
      <trkpt lat="45.09341" lon="5.60577">
        <ele>1515</ele>
        <time>2014-01-31T16:59:47Z</time>
      </trkpt>
      <trkpt lat="45.09341" lon="5.60579">
        <ele>1515.599975586</ele>
        <time>2014-01-31T16:59:50Z</time>
      </trkpt>
      <trkpt lat="45.09342" lon="5.60583">
        <ele>1516.400024414</ele>
        <time>2014-01-31T16:59:54Z</time>
      </trkpt>
      <trkpt lat="45.09343" lon="5.60583">
        <ele>1516.400024414</ele>
        <time>2014-01-31T16:59:55Z</time>
      </trkpt>
      <trkpt lat="45.09346" lon="5.60585">
        <ele>1516.599975586</ele>
        <time>2014-01-31T16:59:58Z</time>
      </trkpt>
      <trkpt lat="45.09347" lon="5.60587">
        <ele>1517.400024414</ele>
        <time>2014-01-31T17:00:00Z</time>
      </trkpt>
      <trkpt lat="45.09347" lon="5.60586">
        <ele>1517</ele>
        <time>2014-01-31T17:00:01Z</time>
      </trkpt>
      <trkpt lat="45.0935" lon="5.60591">
        <ele>1518.599975586</ele>
        <time>2014-01-31T17:00:05Z</time>
      </trkpt>
      <trkpt lat="45.09349" lon="5.60594">
        <ele>1519.599975586</ele>
        <time>2014-01-31T17:00:09Z</time>
      </trkpt>
      <trkpt lat="45.0935" lon="5.60597">
        <ele>1520.400024414</ele>
        <time>2014-01-31T17:00:12Z</time>
      </trkpt>
      <trkpt lat="45.09349" lon="5.60598">
        <ele>1520.800048828</ele>
        <time>2014-01-31T17:00:14Z</time>
      </trkpt>
      <trkpt lat="45.09351" lon="5.60602">
        <ele>1522</ele>
        <time>2014-01-31T17:00:18Z</time>
      </trkpt>
      <trkpt lat="45.09352" lon="5.60602">
        <ele>1522.199951172</ele>
        <time>2014-01-31T17:00:19Z</time>
      </trkpt>
      <trkpt lat="45.09353" lon="5.60604">
        <ele>1522.400024414</ele>
        <time>2014-01-31T17:00:22Z</time>
      </trkpt>
      <trkpt lat="45.09356" lon="5.60605">
        <ele>1523</ele>
        <time>2014-01-31T17:00:26Z</time>
      </trkpt>
      <trkpt lat="45.09357" lon="5.60607">
        <ele>1523.599975586</ele>
        <time>2014-01-31T17:00:30Z</time>
      </trkpt>
      <trkpt lat="45.09361" lon="5.60611">
        <ele>1524.400024414</ele>
        <time>2014-01-31T17:00:35Z</time>
      </trkpt>
      <trkpt lat="45.09363" lon="5.60614">
        <ele>1525.199951172</ele>
        <time>2014-01-31T17:00:40Z</time>
      </trkpt>
      <trkpt lat="45.09366" lon="5.60616">
        <ele>1526.199951172</ele>
        <time>2014-01-31T17:00:46Z</time>
      </trkpt>
      <trkpt lat="45.09367" lon="5.6062">
        <ele>1527</ele>
        <time>2014-01-31T17:00:50Z</time>
      </trkpt>
      <trkpt lat="45.09369" lon="5.60621">
        <ele>1527.199951172</ele>
        <time>2014-01-31T17:00:53Z</time>
      </trkpt>
      <trkpt lat="45.09372" lon="5.60622">
        <ele>1527.400024414</ele>
        <time>2014-01-31T17:00:58Z</time>
      </trkpt>
      <trkpt lat="45.09374" lon="5.60623">
        <ele>1527.800048828</ele>
        <time>2014-01-31T17:01:00Z</time>
      </trkpt>
      <trkpt lat="45.09375" lon="5.60625">
        <ele>1528.400024414</ele>
        <time>2014-01-31T17:01:03Z</time>
      </trkpt>
      <trkpt lat="45.09376" lon="5.60629">
        <ele>1529.800048828</ele>
        <time>2014-01-31T17:01:06Z</time>
      </trkpt>
      <trkpt lat="45.09376" lon="5.60629">
        <ele>1530</ele>
        <time>2014-01-31T17:01:07Z</time>
      </trkpt>
      <trkpt lat="45.09379" lon="5.6063">
        <ele>1530.199951172</ele>
        <time>2014-01-31T17:01:10Z</time>
      </trkpt>
      <trkpt lat="45.0938" lon="5.60632">
        <ele>1530.400024414</ele>
        <time>2014-01-31T17:01:11Z</time>
      </trkpt>
      <trkpt lat="45.09381" lon="5.60633">
        <ele>1531</ele>
        <time>2014-01-31T17:01:15Z</time>
      </trkpt>
      <trkpt lat="45.09383" lon="5.60635">
        <ele>1531.400024414</ele>
        <time>2014-01-31T17:01:18Z</time>
      </trkpt>
      <trkpt lat="45.09384" lon="5.60636">
        <ele>1532</ele>
        <time>2014-01-31T17:01:22Z</time>
      </trkpt>
      <trkpt lat="45.09386" lon="5.60638">
        <ele>1532.599975586</ele>
        <time>2014-01-31T17:01:26Z</time>
      </trkpt>
      <trkpt lat="45.09387" lon="5.60641">
        <ele>1533.400024414</ele>
        <time>2014-01-31T17:01:30Z</time>
      </trkpt>
      <trkpt lat="45.0939" lon="5.60643">
        <ele>1533.800048828</ele>
        <time>2014-01-31T17:01:34Z</time>
      </trkpt>
      <trkpt lat="45.09393" lon="5.60644">
        <ele>1534.199951172</ele>
        <time>2014-01-31T17:01:38Z</time>
      </trkpt>
      <trkpt lat="45.09395" lon="5.60645">
        <ele>1534.400024414</ele>
        <time>2014-01-31T17:01:43Z</time>
      </trkpt>
      <trkpt lat="45.09397" lon="5.60647">
        <ele>1535</ele>
        <time>2014-01-31T17:01:46Z</time>
      </trkpt>
      <trkpt lat="45.09398" lon="5.60647">
        <ele>1534.800048828</ele>
        <time>2014-01-31T17:01:53Z</time>
      </trkpt>
      <trkpt lat="45.09397" lon="5.60646">
        <ele>1534.800048828</ele>
        <time>2014-01-31T17:02:00Z</time>
      </trkpt>
      <trkpt lat="45.09397" lon="5.60647">
        <ele>1535</ele>
        <time>2014-01-31T17:02:04Z</time>
      </trkpt>
      <trkpt lat="45.09397" lon="5.60647">
        <ele>1535</ele>
        <time>2014-01-31T17:02:06Z</time>
      </trkpt>
      <trkpt lat="45.09397" lon="5.60647">
        <ele>1535</ele>
        <time>2014-01-31T17:02:08Z</time>
      </trkpt>
      <trkpt lat="45.09397" lon="5.60647">
        <ele>1534.800048828</ele>
        <time>2014-01-31T17:02:10Z</time>
      </trkpt>
      <trkpt lat="45.09397" lon="5.60647">
        <ele>1534.800048828</ele>
        <time>2014-01-31T17:02:18Z</time>
      </trkpt>
      <trkpt lat="45.09397" lon="5.60647">
        <ele>1534.800048828</ele>
        <time>2014-01-31T17:02:20Z</time>
      </trkpt>
      <trkpt lat="45.09397" lon="5.60647">
        <ele>1535</ele>
        <time>2014-01-31T17:02:23Z</time>
      </trkpt>
      <trkpt lat="45.09396" lon="5.60646">
        <ele>1534.800048828</ele>
        <time>2014-01-31T17:02:28Z</time>
      </trkpt>
      <trkpt lat="45.09396" lon="5.60648">
        <ele>1535.199951172</ele>
        <time>2014-01-31T17:02:34Z</time>
      </trkpt>
      <trkpt lat="45.09396" lon="5.60647">
        <ele>1535.199951172</ele>
        <time>2014-01-31T17:02:37Z</time>
      </trkpt>
      <trkpt lat="45.09396" lon="5.60648">
        <ele>1535.199951172</ele>
        <time>2014-01-31T17:02:40Z</time>
      </trkpt>
      <trkpt lat="45.09396" lon="5.60648">
        <ele>1535.199951172</ele>
        <time>2014-01-31T17:02:46Z</time>
      </trkpt>
      <trkpt lat="45.09397" lon="5.60648">
        <ele>1535.199951172</ele>
        <time>2014-01-31T17:02:49Z</time>
      </trkpt>
      <trkpt lat="45.09398" lon="5.6065">
        <ele>1536</ele>
        <time>2014-01-31T17:02:55Z</time>
      </trkpt>
      <trkpt lat="45.09399" lon="5.60652">
        <ele>1536.599975586</ele>
        <time>2014-01-31T17:02:58Z</time>
      </trkpt>
      <trkpt lat="45.09402" lon="5.60656">
        <ele>1537.800048828</ele>
        <time>2014-01-31T17:03:03Z</time>
      </trkpt>
      <trkpt lat="45.09404" lon="5.60657">
        <ele>1538</ele>
        <time>2014-01-31T17:03:07Z</time>
      </trkpt>
      <trkpt lat="45.09408" lon="5.60659">
        <ele>1538.599975586</ele>
        <time>2014-01-31T17:03:11Z</time>
      </trkpt>
      <trkpt lat="45.09411" lon="5.60661">
        <ele>1539.199951172</ele>
        <time>2014-01-31T17:03:15Z</time>
      </trkpt>
      <trkpt lat="45.09414" lon="5.60664">
        <ele>1540.400024414</ele>
        <time>2014-01-31T17:03:21Z</time>
      </trkpt>
      <trkpt lat="45.09416" lon="5.60667">
        <ele>1541</ele>
        <time>2014-01-31T17:03:25Z</time>
      </trkpt>
      <trkpt lat="45.09417" lon="5.60668">
        <ele>1541.599975586</ele>
        <time>2014-01-31T17:03:27Z</time>
      </trkpt>
      <trkpt lat="45.09419" lon="5.6067">
        <ele>1542.400024414</ele>
        <time>2014-01-31T17:03:30Z</time>
      </trkpt>
      <trkpt lat="45.0942" lon="5.60671">
        <ele>1543.199951172</ele>
        <time>2014-01-31T17:03:33Z</time>
      </trkpt>
      <trkpt lat="45.09422" lon="5.60673">
        <ele>1544</ele>
        <time>2014-01-31T17:03:37Z</time>
      </trkpt>
      <trkpt lat="45.09426" lon="5.60677">
        <ele>1545.599975586</ele>
        <time>2014-01-31T17:03:43Z</time>
      </trkpt>
      <trkpt lat="45.09428" lon="5.60679">
        <ele>1546.599975586</ele>
        <time>2014-01-31T17:03:47Z</time>
      </trkpt>
      <trkpt lat="45.09433" lon="5.60682">
        <ele>1547.800048828</ele>
        <time>2014-01-31T17:03:53Z</time>
      </trkpt>
      <trkpt lat="45.09436" lon="5.60684">
        <ele>1548.800048828</ele>
        <time>2014-01-31T17:03:59Z</time>
      </trkpt>
      <trkpt lat="45.0944" lon="5.60688">
        <ele>1550.400024414</ele>
        <time>2014-01-31T17:04:05Z</time>
      </trkpt>
      <trkpt lat="45.09444" lon="5.60692">
        <ele>1552</ele>
        <time>2014-01-31T17:04:12Z</time>
      </trkpt>
      <trkpt lat="45.09447" lon="5.60695">
        <ele>1553.400024414</ele>
        <time>2014-01-31T17:04:18Z</time>
      </trkpt>
      <trkpt lat="45.09449" lon="5.60698">
        <ele>1554.800048828</ele>
        <time>2014-01-31T17:04:23Z</time>
      </trkpt>
      <trkpt lat="45.09453" lon="5.60701">
        <ele>1556</ele>
        <time>2014-01-31T17:04:28Z</time>
      </trkpt>
      <trkpt lat="45.09456" lon="5.60705">
        <ele>1557.400024414</ele>
        <time>2014-01-31T17:04:33Z</time>
      </trkpt>
      <trkpt lat="45.09458" lon="5.60706">
        <ele>1557.800048828</ele>
        <time>2014-01-31T17:04:35Z</time>
      </trkpt>
      <trkpt lat="45.09459" lon="5.60706">
        <ele>1558</ele>
        <time>2014-01-31T17:04:38Z</time>
      </trkpt>
      <trkpt lat="45.09462" lon="5.60709">
        <ele>1559.400024414</ele>
        <time>2014-01-31T17:04:43Z</time>
      </trkpt>
      <trkpt lat="45.09465" lon="5.60713">
        <ele>1560.800048828</ele>
        <time>2014-01-31T17:04:49Z</time>
      </trkpt>
      <trkpt lat="45.09469" lon="5.60717">
        <ele>1562.400024414</ele>
        <time>2014-01-31T17:04:56Z</time>
      </trkpt>
      <trkpt lat="45.09472" lon="5.6072">
        <ele>1563.599975586</ele>
        <time>2014-01-31T17:05:00Z</time>
      </trkpt>
      <trkpt lat="45.09474" lon="5.60723">
        <ele>1565</ele>
        <time>2014-01-31T17:05:04Z</time>
      </trkpt>
      <trkpt lat="45.09475" lon="5.60724">
        <ele>1565.400024414</ele>
        <time>2014-01-31T17:05:05Z</time>
      </trkpt>
      <trkpt lat="45.09477" lon="5.60727">
        <ele>1566.599975586</ele>
        <time>2014-01-31T17:05:09Z</time>
      </trkpt>
      <trkpt lat="45.09481" lon="5.6073">
        <ele>1567.400024414</ele>
        <time>2014-01-31T17:05:14Z</time>
      </trkpt>
      <trkpt lat="45.09482" lon="5.6073">
        <ele>1567.599975586</ele>
        <time>2014-01-31T17:05:16Z</time>
      </trkpt>
      <trkpt lat="45.09485" lon="5.60732">
        <ele>1568.199951172</ele>
        <time>2014-01-31T17:05:19Z</time>
      </trkpt>
      <trkpt lat="45.09487" lon="5.60734">
        <ele>1568.599975586</ele>
        <time>2014-01-31T17:05:23Z</time>
      </trkpt>
      <trkpt lat="45.09491" lon="5.60736">
        <ele>1569.400024414</ele>
        <time>2014-01-31T17:05:27Z</time>
      </trkpt>
      <trkpt lat="45.09491" lon="5.60736">
        <ele>1569.599975586</ele>
        <time>2014-01-31T17:05:28Z</time>
      </trkpt>
      <trkpt lat="45.09495" lon="5.60738">
        <ele>1570</ele>
        <time>2014-01-31T17:05:33Z</time>
      </trkpt>
      <trkpt lat="45.09502" lon="5.60741">
        <ele>1571</ele>
        <time>2014-01-31T17:05:41Z</time>
      </trkpt>
      <trkpt lat="45.09506" lon="5.60744">
        <ele>1572.400024414</ele>
        <time>2014-01-31T17:05:47Z</time>
      </trkpt>
      <trkpt lat="45.09509" lon="5.60747">
        <ele>1573.400024414</ele>
        <time>2014-01-31T17:05:51Z</time>
      </trkpt>
      <trkpt lat="45.09509" lon="5.60748">
        <ele>1573.800048828</ele>
        <time>2014-01-31T17:05:52Z</time>
      </trkpt>
      <trkpt lat="45.09513" lon="5.60752">
        <ele>1575.199951172</ele>
        <time>2014-01-31T17:05:59Z</time>
      </trkpt>
      <trkpt lat="45.09516" lon="5.60755">
        <ele>1576.599975586</ele>
        <time>2014-01-31T17:06:05Z</time>
      </trkpt>
      <trkpt lat="45.09519" lon="5.6076">
        <ele>1578.400024414</ele>
        <time>2014-01-31T17:06:11Z</time>
      </trkpt>
      <trkpt lat="45.0952" lon="5.60762">
        <ele>1579.400024414</ele>
        <time>2014-01-31T17:06:14Z</time>
      </trkpt>
      <trkpt lat="45.09521" lon="5.60765">
        <ele>1580.400024414</ele>
        <time>2014-01-31T17:06:18Z</time>
      </trkpt>
      <trkpt lat="45.09523" lon="5.60768">
        <ele>1581.599975586</ele>
        <time>2014-01-31T17:06:22Z</time>
      </trkpt>
      <trkpt lat="45.09525" lon="5.6077">
        <ele>1582.400024414</ele>
        <time>2014-01-31T17:06:26Z</time>
      </trkpt>
      <trkpt lat="45.09529" lon="5.60773">
        <ele>1583.599975586</ele>
        <time>2014-01-31T17:06:32Z</time>
      </trkpt>
      <trkpt lat="45.09532" lon="5.60777">
        <ele>1584.800048828</ele>
        <time>2014-01-31T17:06:38Z</time>
      </trkpt>
      <trkpt lat="45.09535" lon="5.60779">
        <ele>1586</ele>
        <time>2014-01-31T17:06:44Z</time>
      </trkpt>
      <trkpt lat="45.09538" lon="5.60782">
        <ele>1586.800048828</ele>
        <time>2014-01-31T17:06:49Z</time>
      </trkpt>
      <trkpt lat="45.0954" lon="5.60783">
        <ele>1587.400024414</ele>
        <time>2014-01-31T17:06:53Z</time>
      </trkpt>
      <trkpt lat="45.09543" lon="5.60785">
        <ele>1588</ele>
        <time>2014-01-31T17:06:58Z</time>
      </trkpt>
      <trkpt lat="45.09545" lon="5.60787">
        <ele>1588.800048828</ele>
        <time>2014-01-31T17:07:02Z</time>
      </trkpt>
      <trkpt lat="45.09547" lon="5.60789">
        <ele>1589.400024414</ele>
        <time>2014-01-31T17:07:06Z</time>
      </trkpt>
      <trkpt lat="45.09548" lon="5.60791">
        <ele>1590.199951172</ele>
        <time>2014-01-31T17:07:10Z</time>
      </trkpt>
      <trkpt lat="45.0955" lon="5.60793">
        <ele>1591</ele>
        <time>2014-01-31T17:07:15Z</time>
      </trkpt>
      <trkpt lat="45.09551" lon="5.60796">
        <ele>1592</ele>
        <time>2014-01-31T17:07:20Z</time>
      </trkpt>
      <trkpt lat="45.09552" lon="5.60797">
        <ele>1592.599975586</ele>
        <time>2014-01-31T17:07:26Z</time>
      </trkpt>
      <trkpt lat="45.09554" lon="5.60799">
        <ele>1593.199951172</ele>
        <time>2014-01-31T17:07:32Z</time>
      </trkpt>
      <trkpt lat="45.09556" lon="5.608">
        <ele>1593.400024414</ele>
        <time>2014-01-31T17:07:36Z</time>
      </trkpt>
      <trkpt lat="45.09559" lon="5.608">
        <ele>1593.400024414</ele>
        <time>2014-01-31T17:07:41Z</time>
      </trkpt>
      <trkpt lat="45.09562" lon="5.60803">
        <ele>1594.599975586</ele>
        <time>2014-01-31T17:07:47Z</time>
      </trkpt>
      <trkpt lat="45.09565" lon="5.60804">
        <ele>1595</ele>
        <time>2014-01-31T17:07:52Z</time>
      </trkpt>
      <trkpt lat="45.09568" lon="5.60806">
        <ele>1595.599975586</ele>
        <time>2014-01-31T17:07:56Z</time>
      </trkpt>
      <trkpt lat="45.0957" lon="5.6081">
        <ele>1596.800048828</ele>
        <time>2014-01-31T17:08:01Z</time>
      </trkpt>
      <trkpt lat="45.0957" lon="5.60812">
        <ele>1598</ele>
        <time>2014-01-31T17:08:06Z</time>
      </trkpt>
      <trkpt lat="45.09571" lon="5.60813">
        <ele>1598.400024414</ele>
        <time>2014-01-31T17:08:10Z</time>
      </trkpt>
      <trkpt lat="45.09572" lon="5.60813">
        <ele>1598.199951172</ele>
        <time>2014-01-31T17:08:19Z</time>
      </trkpt>
      <trkpt lat="45.09572" lon="5.60813">
        <ele>1598.199951172</ele>
        <time>2014-01-31T17:08:24Z</time>
      </trkpt>
      <trkpt lat="45.09571" lon="5.60814">
        <ele>1598.400024414</ele>
        <time>2014-01-31T17:08:28Z</time>
      </trkpt>
      <trkpt lat="45.09571" lon="5.60814">
        <ele>1598.400024414</ele>
        <time>2014-01-31T17:08:31Z</time>
      </trkpt>
      <trkpt lat="45.09571" lon="5.60813">
        <ele>1598.400024414</ele>
        <time>2014-01-31T17:08:32Z</time>
      </trkpt>
      <trkpt lat="45.09571" lon="5.60813">
        <ele>1598.400024414</ele>
        <time>2014-01-31T17:08:34Z</time>
      </trkpt>
      <trkpt lat="45.0957" lon="5.60814">
        <ele>1598.800048828</ele>
        <time>2014-01-31T17:08:41Z</time>
      </trkpt>
      <trkpt lat="45.0957" lon="5.60814">
        <ele>1598.800048828</ele>
        <time>2014-01-31T17:08:43Z</time>
      </trkpt>
      <trkpt lat="45.0957" lon="5.60814">
        <ele>1598.800048828</ele>
        <time>2014-01-31T17:08:45Z</time>
      </trkpt>
      <trkpt lat="45.09571" lon="5.60815">
        <ele>1599</ele>
        <time>2014-01-31T17:08:53Z</time>
      </trkpt>
      <trkpt lat="45.09571" lon="5.60815">
        <ele>1598.800048828</ele>
        <time>2014-01-31T17:09:05Z</time>
      </trkpt>
      <trkpt lat="45.09571" lon="5.60815">
        <ele>1598.800048828</ele>
        <time>2014-01-31T17:09:07Z</time>
      </trkpt>
      <trkpt lat="45.09571" lon="5.60814">
        <ele>1598.800048828</ele>
        <time>2014-01-31T17:09:09Z</time>
      </trkpt>
      <trkpt lat="45.09571" lon="5.60814">
        <ele>1598.800048828</ele>
        <time>2014-01-31T17:09:18Z</time>
      </trkpt>
      <trkpt lat="45.09571" lon="5.60815">
        <ele>1598.800048828</ele>
        <time>2014-01-31T17:09:20Z</time>
      </trkpt>
      <trkpt lat="45.09571" lon="5.60815">
        <ele>1599</ele>
        <time>2014-01-31T17:09:28Z</time>
      </trkpt>
      <trkpt lat="45.0957" lon="5.60812">
        <ele>1598</ele>
        <time>2014-01-31T17:09:42Z</time>
      </trkpt>
      <trkpt lat="45.0957" lon="5.60812">
        <ele>1598</ele>
        <time>2014-01-31T17:09:55Z</time>
      </trkpt>
      <trkpt lat="45.09571" lon="5.60814">
        <ele>1598.800048828</ele>
        <time>2014-01-31T17:10:13Z</time>
      </trkpt>
      <trkpt lat="45.09572" lon="5.60817">
        <ele>1599.800048828</ele>
        <time>2014-01-31T17:10:16Z</time>
      </trkpt>
      <trkpt lat="45.09572" lon="5.60818">
        <ele>1600.400024414</ele>
        <time>2014-01-31T17:10:17Z</time>
      </trkpt>
      <trkpt lat="45.09572" lon="5.60821">
        <ele>1601.599975586</ele>
        <time>2014-01-31T17:10:19Z</time>
      </trkpt>
      <trkpt lat="45.09573" lon="5.60827">
        <ele>1603.800048828</ele>
        <time>2014-01-31T17:10:23Z</time>
      </trkpt>
      <trkpt lat="45.09574" lon="5.60828">
        <ele>1604.400024414</ele>
        <time>2014-01-31T17:10:24Z</time>
      </trkpt>
      <trkpt lat="45.09573" lon="5.60832">
        <ele>1606</ele>
        <time>2014-01-31T17:10:27Z</time>
      </trkpt>
      <trkpt lat="45.09571" lon="5.60834">
        <ele>1606.800048828</ele>
        <time>2014-01-31T17:10:30Z</time>
      </trkpt>
      <trkpt lat="45.09569" lon="5.60836">
        <ele>1606.800048828</ele>
        <time>2014-01-31T17:10:32Z</time>
      </trkpt>
      <trkpt lat="45.09568" lon="5.60837">
        <ele>1607.199951172</ele>
        <time>2014-01-31T17:10:34Z</time>
      </trkpt>
      <trkpt lat="45.09567" lon="5.60838">
        <ele>1607.199951172</ele>
        <time>2014-01-31T17:10:35Z</time>
      </trkpt>
      <trkpt lat="45.09566" lon="5.60839">
        <ele>1607.400024414</ele>
        <time>2014-01-31T17:10:37Z</time>
      </trkpt>
      <trkpt lat="45.09564" lon="5.6084">
        <ele>1607.599975586</ele>
        <time>2014-01-31T17:10:39Z</time>
      </trkpt>
      <trkpt lat="45.09564" lon="5.60841">
        <ele>1607.599975586</ele>
        <time>2014-01-31T17:10:40Z</time>
      </trkpt>
      <trkpt lat="45.09562" lon="5.60843">
        <ele>1608</ele>
        <time>2014-01-31T17:10:43Z</time>
      </trkpt>
      <trkpt lat="45.09561" lon="5.60844">
        <ele>1608.199951172</ele>
        <time>2014-01-31T17:10:44Z</time>
      </trkpt>
      <trkpt lat="45.0956" lon="5.60846">
        <ele>1608.400024414</ele>
        <time>2014-01-31T17:10:47Z</time>
      </trkpt>
      <trkpt lat="45.09559" lon="5.60847">
        <ele>1608.800048828</ele>
        <time>2014-01-31T17:10:49Z</time>
      </trkpt>
      <trkpt lat="45.09557" lon="5.6085">
        <ele>1609.199951172</ele>
        <time>2014-01-31T17:10:52Z</time>
      </trkpt>
      <trkpt lat="45.09555" lon="5.60851">
        <ele>1609.400024414</ele>
        <time>2014-01-31T17:10:55Z</time>
      </trkpt>
      <trkpt lat="45.09552" lon="5.60854">
        <ele>1610</ele>
        <time>2014-01-31T17:10:59Z</time>
      </trkpt>
      <trkpt lat="45.09552" lon="5.60855">
        <ele>1610</ele>
        <time>2014-01-31T17:11:00Z</time>
      </trkpt>
      <trkpt lat="45.09549" lon="5.60859">
        <ele>1610.800048828</ele>
        <time>2014-01-31T17:11:06Z</time>
      </trkpt>
      <trkpt lat="45.09547" lon="5.60861">
        <ele>1611.199951172</ele>
        <time>2014-01-31T17:11:10Z</time>
      </trkpt>
      <trkpt lat="45.09545" lon="5.60864">
        <ele>1611.800048828</ele>
        <time>2014-01-31T17:11:15Z</time>
      </trkpt>
      <trkpt lat="45.09542" lon="5.60867">
        <ele>1612.400024414</ele>
        <time>2014-01-31T17:11:20Z</time>
      </trkpt>
      <trkpt lat="45.09539" lon="5.60871">
        <ele>1613.199951172</ele>
        <time>2014-01-31T17:11:26Z</time>
      </trkpt>
      <trkpt lat="45.09537" lon="5.60872">
        <ele>1613.599975586</ele>
        <time>2014-01-31T17:11:30Z</time>
      </trkpt>
      <trkpt lat="45.09535" lon="5.60873">
        <ele>1613.800048828</ele>
        <time>2014-01-31T17:11:34Z</time>
      </trkpt>
      <trkpt lat="45.09535" lon="5.60873">
        <ele>1613.800048828</ele>
        <time>2014-01-31T17:11:47Z</time>
      </trkpt>
      <trkpt lat="45.09535" lon="5.60873">
        <ele>1613.800048828</ele>
        <time>2014-01-31T17:11:51Z</time>
      </trkpt>
      <trkpt lat="45.09535" lon="5.60873">
        <ele>1613.800048828</ele>
        <time>2014-01-31T17:11:54Z</time>
      </trkpt>
      <trkpt lat="45.09535" lon="5.60873">
        <ele>1614</ele>
        <time>2014-01-31T17:11:57Z</time>
      </trkpt>
      <trkpt lat="45.09535" lon="5.60874">
        <ele>1614</ele>
        <time>2014-01-31T17:11:59Z</time>
      </trkpt>
      <trkpt lat="45.09534" lon="5.60876">
        <ele>1614.400024414</ele>
        <time>2014-01-31T17:12:03Z</time>
      </trkpt>
      <trkpt lat="45.09533" lon="5.60878">
        <ele>1614.800048828</ele>
        <time>2014-01-31T17:12:05Z</time>
      </trkpt>
      <trkpt lat="45.09532" lon="5.6088">
        <ele>1615</ele>
        <time>2014-01-31T17:12:07Z</time>
      </trkpt>
      <trkpt lat="45.09531" lon="5.60881">
        <ele>1615.400024414</ele>
        <time>2014-01-31T17:12:12Z</time>
      </trkpt>
      <trkpt lat="45.09531" lon="5.60881">
        <ele>1615.400024414</ele>
        <time>2014-01-31T17:12:19Z</time>
      </trkpt>
      <trkpt lat="45.09531" lon="5.60881">
        <ele>1615.400024414</ele>
        <time>2014-01-31T17:12:23Z</time>
      </trkpt>
      <trkpt lat="45.09531" lon="5.60882">
        <ele>1615.400024414</ele>
        <time>2014-01-31T17:12:27Z</time>
      </trkpt>
      <trkpt lat="45.09532" lon="5.60881">
        <ele>1615.400024414</ele>
        <time>2014-01-31T17:12:30Z</time>
      </trkpt>
      <trkpt lat="45.09532" lon="5.60881">
        <ele>1615.400024414</ele>
        <time>2014-01-31T17:12:31Z</time>
      </trkpt>
      <trkpt lat="45.09532" lon="5.60881">
        <ele>1615.400024414</ele>
        <time>2014-01-31T17:12:36Z</time>
      </trkpt>
      <trkpt lat="45.09532" lon="5.60881">
        <ele>1615.400024414</ele>
        <time>2014-01-31T17:12:38Z</time>
      </trkpt>
      <trkpt lat="45.09532" lon="5.60881">
        <ele>1615.400024414</ele>
        <time>2014-01-31T17:12:39Z</time>
      </trkpt>
      <trkpt lat="45.09532" lon="5.60881">
        <ele>1615.400024414</ele>
        <time>2014-01-31T17:12:40Z</time>
      </trkpt>
      <trkpt lat="45.09532" lon="5.60881">
        <ele>1615.400024414</ele>
        <time>2014-01-31T17:12:47Z</time>
      </trkpt>
      <trkpt lat="45.09532" lon="5.60881">
        <ele>1615.199951172</ele>
        <time>2014-01-31T17:12:49Z</time>
      </trkpt>
      <trkpt lat="45.09532" lon="5.6088">
        <ele>1615.199951172</ele>
        <time>2014-01-31T17:12:51Z</time>
      </trkpt>
      <trkpt lat="45.09532" lon="5.60881">
        <ele>1615.199951172</ele>
        <time>2014-01-31T17:12:58Z</time>
      </trkpt>
      <trkpt lat="45.0953" lon="5.60883">
        <ele>1615.800048828</ele>
        <time>2014-01-31T17:13:03Z</time>
      </trkpt>
      <trkpt lat="45.0953" lon="5.60883">
        <ele>1615.800048828</ele>
        <time>2014-01-31T17:13:05Z</time>
      </trkpt>
      <trkpt lat="45.0953" lon="5.60883">
        <ele>1615.800048828</ele>
        <time>2014-01-31T17:13:07Z</time>
      </trkpt>
      <trkpt lat="45.0953" lon="5.60884">
        <ele>1616</ele>
        <time>2014-01-31T17:13:12Z</time>
      </trkpt>
      <trkpt lat="45.0953" lon="5.60883">
        <ele>1615.800048828</ele>
        <time>2014-01-31T17:13:17Z</time>
      </trkpt>
      <trkpt lat="45.09529" lon="5.60884">
        <ele>1616</ele>
        <time>2014-01-31T17:13:19Z</time>
      </trkpt>
      <trkpt lat="45.0953" lon="5.60884">
        <ele>1616</ele>
        <time>2014-01-31T17:13:22Z</time>
      </trkpt>
      <trkpt lat="45.09529" lon="5.60884">
        <ele>1616</ele>
        <time>2014-01-31T17:13:24Z</time>
      </trkpt>
      <trkpt lat="45.09529" lon="5.60884">
        <ele>1616</ele>
        <time>2014-01-31T17:13:25Z</time>
      </trkpt>
      <trkpt lat="45.09529" lon="5.60884">
        <ele>1616</ele>
        <time>2014-01-31T17:13:27Z</time>
      </trkpt>
      <trkpt lat="45.09529" lon="5.60884">
        <ele>1616</ele>
        <time>2014-01-31T17:13:33Z</time>
      </trkpt>
      <trkpt lat="45.09529" lon="5.60884">
        <ele>1616.199951172</ele>
        <time>2014-01-31T17:13:37Z</time>
      </trkpt>
      <trkpt lat="45.09529" lon="5.60884">
        <ele>1616.199951172</ele>
        <time>2014-01-31T17:13:38Z</time>
      </trkpt>
      <trkpt lat="45.09529" lon="5.60884">
        <ele>1616</ele>
        <time>2014-01-31T17:13:39Z</time>
      </trkpt>
      <trkpt lat="45.09529" lon="5.60884">
        <ele>1616.199951172</ele>
        <time>2014-01-31T17:13:40Z</time>
      </trkpt>
      <trkpt lat="45.09529" lon="5.60884">
        <ele>1616.199951172</ele>
        <time>2014-01-31T17:13:41Z</time>
      </trkpt>
      <trkpt lat="45.09523" lon="5.60886">
        <ele>1617</ele>
        <time>2014-01-31T17:13:46Z</time>
      </trkpt>
      <trkpt lat="45.09522" lon="5.60886">
        <ele>1617</ele>
        <time>2014-01-31T17:13:47Z</time>
      </trkpt>
      <trkpt lat="45.0952" lon="5.60887">
        <ele>1617.400024414</ele>
        <time>2014-01-31T17:13:48Z</time>
      </trkpt>
      <trkpt lat="45.09517" lon="5.60888">
        <ele>1618</ele>
        <time>2014-01-31T17:13:50Z</time>
      </trkpt>
      <trkpt lat="45.09514" lon="5.6089">
        <ele>1618.599975586</ele>
        <time>2014-01-31T17:13:52Z</time>
      </trkpt>
      <trkpt lat="45.09506" lon="5.60893">
        <ele>1620</ele>
        <time>2014-01-31T17:13:58Z</time>
      </trkpt>
      <trkpt lat="45.09503" lon="5.60893">
        <ele>1620.400024414</ele>
        <time>2014-01-31T17:14:00Z</time>
      </trkpt>
      <trkpt lat="45.095" lon="5.60893">
        <ele>1620.599975586</ele>
        <time>2014-01-31T17:14:02Z</time>
      </trkpt>
      <trkpt lat="45.09497" lon="5.60892">
        <ele>1620.800048828</ele>
        <time>2014-01-31T17:14:05Z</time>
      </trkpt>
      <trkpt lat="45.09495" lon="5.60892">
        <ele>1620.800048828</ele>
        <time>2014-01-31T17:14:06Z</time>
      </trkpt>
      <trkpt lat="45.09494" lon="5.60891">
        <ele>1620.599975586</ele>
        <time>2014-01-31T17:14:08Z</time>
      </trkpt>
      <trkpt lat="45.09491" lon="5.6089">
        <ele>1620.599975586</ele>
        <time>2014-01-31T17:14:10Z</time>
      </trkpt>
      <trkpt lat="45.09484" lon="5.6089">
        <ele>1620.800048828</ele>
        <time>2014-01-31T17:14:14Z</time>
      </trkpt>
      <trkpt lat="45.0948" lon="5.6089">
        <ele>1621</ele>
        <time>2014-01-31T17:14:17Z</time>
      </trkpt>
      <trkpt lat="45.09472" lon="5.60887">
        <ele>1621</ele>
        <time>2014-01-31T17:14:23Z</time>
      </trkpt>
      <trkpt lat="45.09469" lon="5.60889">
        <ele>1621.199951172</ele>
        <time>2014-01-31T17:14:26Z</time>
      </trkpt>
      <trkpt lat="45.09462" lon="5.60894">
        <ele>1622.400024414</ele>
        <time>2014-01-31T17:14:30Z</time>
      </trkpt>
      <trkpt lat="45.09445" lon="5.60903">
        <ele>1624.400024414</ele>
        <time>2014-01-31T17:14:36Z</time>
      </trkpt>
      <trkpt lat="45.09443" lon="5.60904">
        <ele>1624.599975586</ele>
        <time>2014-01-31T17:14:37Z</time>
      </trkpt>
      <trkpt lat="45.09434" lon="5.60909">
        <ele>1625.599975586</ele>
        <time>2014-01-31T17:14:42Z</time>
      </trkpt>
      <trkpt lat="45.09424" lon="5.60917">
        <ele>1626.800048828</ele>
        <time>2014-01-31T17:14:50Z</time>
      </trkpt>
      <trkpt lat="45.09415" lon="5.60923">
        <ele>1627.599975586</ele>
        <time>2014-01-31T17:14:56Z</time>
      </trkpt>
      <trkpt lat="45.09406" lon="5.60928">
        <ele>1629.199951172</ele>
        <time>2014-01-31T17:15:02Z</time>
      </trkpt>
      <trkpt lat="45.09401" lon="5.6093">
        <ele>1630</ele>
        <time>2014-01-31T17:15:04Z</time>
      </trkpt>
      <trkpt lat="45.09398" lon="5.60929">
        <ele>1630.400024414</ele>
        <time>2014-01-31T17:15:06Z</time>
      </trkpt>
      <trkpt lat="45.09393" lon="5.60931">
        <ele>1631.400024414</ele>
        <time>2014-01-31T17:15:10Z</time>
      </trkpt>
      <trkpt lat="45.09384" lon="5.60933">
        <ele>1632.800048828</ele>
        <time>2014-01-31T17:15:15Z</time>
      </trkpt>
      <trkpt lat="45.09378" lon="5.60935">
        <ele>1633.800048828</ele>
        <time>2014-01-31T17:15:21Z</time>
      </trkpt>
      <trkpt lat="45.09377" lon="5.60935">
        <ele>1634</ele>
        <time>2014-01-31T17:15:22Z</time>
      </trkpt>
      <trkpt lat="45.09373" lon="5.60937">
        <ele>1634.599975586</ele>
        <time>2014-01-31T17:15:26Z</time>
      </trkpt>
      <trkpt lat="45.0937" lon="5.6094">
        <ele>1635.400024414</ele>
        <time>2014-01-31T17:15:31Z</time>
      </trkpt>
      <trkpt lat="45.09369" lon="5.6094">
        <ele>1635.599975586</ele>
        <time>2014-01-31T17:15:33Z</time>
      </trkpt>
      <trkpt lat="45.09367" lon="5.60942">
        <ele>1636</ele>
        <time>2014-01-31T17:15:40Z</time>
      </trkpt>
      <trkpt lat="45.09364" lon="5.60945">
        <ele>1636.599975586</ele>
        <time>2014-01-31T17:15:47Z</time>
      </trkpt>
      <trkpt lat="45.0936" lon="5.60947">
        <ele>1637.199951172</ele>
        <time>2014-01-31T17:15:52Z</time>
      </trkpt>
      <trkpt lat="45.09354" lon="5.60949">
        <ele>1638.400024414</ele>
        <time>2014-01-31T17:15:59Z</time>
      </trkpt>
      <trkpt lat="45.09346" lon="5.60952">
        <ele>1639.800048828</ele>
        <time>2014-01-31T17:16:06Z</time>
      </trkpt>
      <trkpt lat="45.09344" lon="5.60953">
        <ele>1640.199951172</ele>
        <time>2014-01-31T17:16:08Z</time>
      </trkpt>
      <trkpt lat="45.09341" lon="5.60954">
        <ele>1640.599975586</ele>
        <time>2014-01-31T17:16:11Z</time>
      </trkpt>
      <trkpt lat="45.0934" lon="5.60955">
        <ele>1640.800048828</ele>
        <time>2014-01-31T17:16:13Z</time>
      </trkpt>
      <trkpt lat="45.09335" lon="5.60955">
        <ele>1641.599975586</ele>
        <time>2014-01-31T17:16:17Z</time>
      </trkpt>
      <trkpt lat="45.09334" lon="5.60955">
        <ele>1641.800048828</ele>
        <time>2014-01-31T17:16:18Z</time>
      </trkpt>
      <trkpt lat="45.09333" lon="5.60956">
        <ele>1642</ele>
        <time>2014-01-31T17:16:20Z</time>
      </trkpt>
      <trkpt lat="45.09328" lon="5.60961">
        <ele>1642.599975586</ele>
        <time>2014-01-31T17:16:23Z</time>
      </trkpt>
      <trkpt lat="45.09327" lon="5.60963">
        <ele>1642.800048828</ele>
        <time>2014-01-31T17:16:24Z</time>
      </trkpt>
      <trkpt lat="45.09326" lon="5.60963">
        <ele>1643</ele>
        <time>2014-01-31T17:16:25Z</time>
      </trkpt>
      <trkpt lat="45.09323" lon="5.60965">
        <ele>1643.400024414</ele>
        <time>2014-01-31T17:16:28Z</time>
      </trkpt>
      <trkpt lat="45.09321" lon="5.60967">
        <ele>1643.800048828</ele>
        <time>2014-01-31T17:16:30Z</time>
      </trkpt>
      <trkpt lat="45.09319" lon="5.60968">
        <ele>1644</ele>
        <time>2014-01-31T17:16:32Z</time>
      </trkpt>
      <trkpt lat="45.09319" lon="5.60968">
        <ele>1644</ele>
        <time>2014-01-31T17:16:33Z</time>
      </trkpt>
      <trkpt lat="45.09315" lon="5.60971">
        <ele>1644.599975586</ele>
        <time>2014-01-31T17:16:37Z</time>
      </trkpt>
      <trkpt lat="45.09314" lon="5.60974">
        <ele>1645</ele>
        <time>2014-01-31T17:16:41Z</time>
      </trkpt>
      <trkpt lat="45.09314" lon="5.60977">
        <ele>1645.199951172</ele>
        <time>2014-01-31T17:16:45Z</time>
      </trkpt>
      <trkpt lat="45.09313" lon="5.60983">
        <ele>1645.599975586</ele>
        <time>2014-01-31T17:16:49Z</time>
      </trkpt>
      <trkpt lat="45.09311" lon="5.60984">
        <ele>1646</ele>
        <time>2014-01-31T17:16:52Z</time>
      </trkpt>
      <trkpt lat="45.09307" lon="5.60986">
        <ele>1646.599975586</ele>
        <time>2014-01-31T17:16:58Z</time>
      </trkpt>
      <trkpt lat="45.09306" lon="5.60986">
        <ele>1646.599975586</ele>
        <time>2014-01-31T17:17:03Z</time>
      </trkpt>
      <trkpt lat="45.09305" lon="5.60987">
        <ele>1646.800048828</ele>
        <time>2014-01-31T17:17:17Z</time>
      </trkpt>
      <trkpt lat="45.09306" lon="5.60988">
        <ele>1646.800048828</ele>
        <time>2014-01-31T17:17:21Z</time>
      </trkpt>
      <trkpt lat="45.09305" lon="5.60988">
        <ele>1646.800048828</ele>
        <time>2014-01-31T17:17:25Z</time>
      </trkpt>
      <trkpt lat="45.09305" lon="5.60988">
        <ele>1646.800048828</ele>
        <time>2014-01-31T17:17:27Z</time>
      </trkpt>
      <trkpt lat="45.09305" lon="5.60988">
        <ele>1647</ele>
        <time>2014-01-31T17:17:29Z</time>
      </trkpt>
      <trkpt lat="45.09303" lon="5.6099">
        <ele>1647.199951172</ele>
        <time>2014-01-31T17:17:33Z</time>
      </trkpt>
      <trkpt lat="45.09303" lon="5.6099">
        <ele>1647.199951172</ele>
        <time>2014-01-31T17:17:35Z</time>
      </trkpt>
      <trkpt lat="45.09304" lon="5.6099">
        <ele>1647.199951172</ele>
        <time>2014-01-31T17:17:42Z</time>
      </trkpt>
      <trkpt lat="45.09304" lon="5.60991">
        <ele>1647.199951172</ele>
        <time>2014-01-31T17:17:43Z</time>
      </trkpt>
      <trkpt lat="45.09302" lon="5.60992">
        <ele>1647.599975586</ele>
        <time>2014-01-31T17:17:46Z</time>
      </trkpt>
      <trkpt lat="45.093" lon="5.60994">
        <ele>1648</ele>
        <time>2014-01-31T17:17:48Z</time>
      </trkpt>
      <trkpt lat="45.09296" lon="5.60996">
        <ele>1648.599975586</ele>
        <time>2014-01-31T17:17:51Z</time>
      </trkpt>
      <trkpt lat="45.09293" lon="5.60998">
        <ele>1649.199951172</ele>
        <time>2014-01-31T17:17:56Z</time>
      </trkpt>
      <trkpt lat="45.0929" lon="5.61001">
        <ele>1650</ele>
        <time>2014-01-31T17:18:01Z</time>
      </trkpt>
      <trkpt lat="45.09287" lon="5.61003">
        <ele>1650.800048828</ele>
        <time>2014-01-31T17:18:06Z</time>
      </trkpt>
      <trkpt lat="45.09286" lon="5.61004">
        <ele>1651.400024414</ele>
        <time>2014-01-31T17:18:09Z</time>
      </trkpt>
      <trkpt lat="45.09284" lon="5.61006">
        <ele>1652.199951172</ele>
        <time>2014-01-31T17:18:14Z</time>
      </trkpt>
      <trkpt lat="45.09283" lon="5.61007">
        <ele>1652.400024414</ele>
        <time>2014-01-31T17:18:15Z</time>
      </trkpt>
      <trkpt lat="45.09279" lon="5.6101">
        <ele>1653.800048828</ele>
        <time>2014-01-31T17:18:21Z</time>
      </trkpt>
      <trkpt lat="45.09275" lon="5.61015">
        <ele>1655.400024414</ele>
        <time>2014-01-31T17:18:26Z</time>
      </trkpt>
      <trkpt lat="45.09273" lon="5.61018">
        <ele>1656.400024414</ele>
        <time>2014-01-31T17:18:30Z</time>
      </trkpt>
      <trkpt lat="45.09273" lon="5.61019">
        <ele>1656.800048828</ele>
        <time>2014-01-31T17:18:31Z</time>
      </trkpt>
      <trkpt lat="45.09272" lon="5.61022">
        <ele>1657.599975586</ele>
        <time>2014-01-31T17:18:34Z</time>
      </trkpt>
      <trkpt lat="45.09272" lon="5.61023">
        <ele>1658.199951172</ele>
        <time>2014-01-31T17:18:36Z</time>
      </trkpt>
      <trkpt lat="45.0927" lon="5.61026">
        <ele>1659</ele>
        <time>2014-01-31T17:18:39Z</time>
      </trkpt>
      <trkpt lat="45.09268" lon="5.61028">
        <ele>1659.800048828</ele>
        <time>2014-01-31T17:18:41Z</time>
      </trkpt>
      <trkpt lat="45.09265" lon="5.61033">
        <ele>1661.599975586</ele>
        <time>2014-01-31T17:18:47Z</time>
      </trkpt>
      <trkpt lat="45.09263" lon="5.61037">
        <ele>1662.800048828</ele>
        <time>2014-01-31T17:18:52Z</time>
      </trkpt>
      <trkpt lat="45.09262" lon="5.61038">
        <ele>1663.400024414</ele>
        <time>2014-01-31T17:18:57Z</time>
      </trkpt>
      <trkpt lat="45.09261" lon="5.61041">
        <ele>1664.400024414</ele>
        <time>2014-01-31T17:19:03Z</time>
      </trkpt>
      <trkpt lat="45.09258" lon="5.61043">
        <ele>1665.199951172</ele>
        <time>2014-01-31T17:19:07Z</time>
      </trkpt>
      <trkpt lat="45.09257" lon="5.61046">
        <ele>1666</ele>
        <time>2014-01-31T17:19:13Z</time>
      </trkpt>
      <trkpt lat="45.09257" lon="5.61047">
        <ele>1666.400024414</ele>
        <time>2014-01-31T17:19:17Z</time>
      </trkpt>
      <trkpt lat="45.09258" lon="5.61047">
        <ele>1666.400024414</ele>
        <time>2014-01-31T17:19:22Z</time>
      </trkpt>
      <trkpt lat="45.0926" lon="5.61052">
        <ele>1667.199951172</ele>
        <time>2014-01-31T17:19:29Z</time>
      </trkpt>
      <trkpt lat="45.09263" lon="5.61058">
        <ele>1668.400024414</ele>
        <time>2014-01-31T17:19:36Z</time>
      </trkpt>
      <trkpt lat="45.09265" lon="5.61063">
        <ele>1669.199951172</ele>
        <time>2014-01-31T17:19:41Z</time>
      </trkpt>
      <trkpt lat="45.09267" lon="5.61068">
        <ele>1670.199951172</ele>
        <time>2014-01-31T17:19:47Z</time>
      </trkpt>
      <trkpt lat="45.0927" lon="5.61073">
        <ele>1671.199951172</ele>
        <time>2014-01-31T17:19:53Z</time>
      </trkpt>
      <trkpt lat="45.09268" lon="5.61076">
        <ele>1672.199951172</ele>
        <time>2014-01-31T17:19:58Z</time>
      </trkpt>
      <trkpt lat="45.09265" lon="5.61076">
        <ele>1672.800048828</ele>
        <time>2014-01-31T17:20:02Z</time>
      </trkpt>
      <trkpt lat="45.09264" lon="5.61077">
        <ele>1673</ele>
        <time>2014-01-31T17:20:03Z</time>
      </trkpt>
      <trkpt lat="45.09261" lon="5.61078">
        <ele>1674</ele>
        <time>2014-01-31T17:20:08Z</time>
      </trkpt>
      <trkpt lat="45.09262" lon="5.61079">
        <ele>1674</ele>
        <time>2014-01-31T17:20:11Z</time>
      </trkpt>
      <trkpt lat="45.09264" lon="5.61082">
        <ele>1674.599975586</ele>
        <time>2014-01-31T17:20:16Z</time>
      </trkpt>
      <trkpt lat="45.09265" lon="5.61085">
        <ele>1675.199951172</ele>
        <time>2014-01-31T17:20:19Z</time>
      </trkpt>
      <trkpt lat="45.09267" lon="5.61091">
        <ele>1676.800048828</ele>
        <time>2014-01-31T17:20:25Z</time>
      </trkpt>
      <trkpt lat="45.09264" lon="5.61094">
        <ele>1678.400024414</ele>
        <time>2014-01-31T17:20:31Z</time>
      </trkpt>
      <trkpt lat="45.09261" lon="5.61096">
        <ele>1679.400024414</ele>
        <time>2014-01-31T17:20:37Z</time>
      </trkpt>
      <trkpt lat="45.09259" lon="5.61096">
        <ele>1679.599975586</ele>
        <time>2014-01-31T17:20:41Z</time>
      </trkpt>
      <trkpt lat="45.09257" lon="5.61097">
        <ele>1680.199951172</ele>
        <time>2014-01-31T17:20:46Z</time>
      </trkpt>
      <trkpt lat="45.09255" lon="5.61098">
        <ele>1681</ele>
        <time>2014-01-31T17:20:51Z</time>
      </trkpt>
      <trkpt lat="45.09252" lon="5.61099">
        <ele>1681.800048828</ele>
        <time>2014-01-31T17:20:55Z</time>
      </trkpt>
      <trkpt lat="45.0925" lon="5.611">
        <ele>1682.400024414</ele>
        <time>2014-01-31T17:21:00Z</time>
      </trkpt>
      <trkpt lat="45.09247" lon="5.61103">
        <ele>1683.599975586</ele>
        <time>2014-01-31T17:21:05Z</time>
      </trkpt>
      <trkpt lat="45.09244" lon="5.61105">
        <ele>1684.400024414</ele>
        <time>2014-01-31T17:21:11Z</time>
      </trkpt>
      <trkpt lat="45.09242" lon="5.61108">
        <ele>1685.400024414</ele>
        <time>2014-01-31T17:21:16Z</time>
      </trkpt>
      <trkpt lat="45.0924" lon="5.61109">
        <ele>1686.199951172</ele>
        <time>2014-01-31T17:21:21Z</time>
      </trkpt>
      <trkpt lat="45.09236" lon="5.61111">
        <ele>1687</ele>
        <time>2014-01-31T17:21:28Z</time>
      </trkpt>
      <trkpt lat="45.09233" lon="5.61113">
        <ele>1687.599975586</ele>
        <time>2014-01-31T17:21:33Z</time>
      </trkpt>
      <trkpt lat="45.09231" lon="5.61114">
        <ele>1688</ele>
        <time>2014-01-31T17:21:37Z</time>
      </trkpt>
      <trkpt lat="45.09227" lon="5.61116">
        <ele>1688.800048828</ele>
        <time>2014-01-31T17:21:42Z</time>
      </trkpt>
      <trkpt lat="45.09223" lon="5.6112">
        <ele>1690.199951172</ele>
        <time>2014-01-31T17:21:48Z</time>
      </trkpt>
      <trkpt lat="45.09218" lon="5.61125">
        <ele>1692</ele>
        <time>2014-01-31T17:21:56Z</time>
      </trkpt>
      <trkpt lat="45.09213" lon="5.6113">
        <ele>1693.400024414</ele>
        <time>2014-01-31T17:22:03Z</time>
      </trkpt>
      <trkpt lat="45.09208" lon="5.61135">
        <ele>1694.800048828</ele>
        <time>2014-01-31T17:22:10Z</time>
      </trkpt>
      <trkpt lat="45.09202" lon="5.61143">
        <ele>1697</ele>
        <time>2014-01-31T17:22:17Z</time>
      </trkpt>
      <trkpt lat="45.09198" lon="5.61149">
        <ele>1698.599975586</ele>
        <time>2014-01-31T17:22:22Z</time>
      </trkpt>
      <trkpt lat="45.09197" lon="5.61151">
        <ele>1699</ele>
        <time>2014-01-31T17:22:25Z</time>
      </trkpt>
      <trkpt lat="45.09196" lon="5.61153">
        <ele>1699.400024414</ele>
        <time>2014-01-31T17:22:27Z</time>
      </trkpt>
      <trkpt lat="45.09194" lon="5.61155">
        <ele>1699.800048828</ele>
        <time>2014-01-31T17:22:30Z</time>
      </trkpt>
      <trkpt lat="45.09193" lon="5.61156">
        <ele>1700</ele>
        <time>2014-01-31T17:22:32Z</time>
      </trkpt>
      <trkpt lat="45.09191" lon="5.61159">
        <ele>1700.800048828</ele>
        <time>2014-01-31T17:22:36Z</time>
      </trkpt>
      <trkpt lat="45.09191" lon="5.6116">
        <ele>1701</ele>
        <time>2014-01-31T17:22:41Z</time>
      </trkpt>
      <trkpt lat="45.0919" lon="5.61162">
        <ele>1701.400024414</ele>
        <time>2014-01-31T17:22:44Z</time>
      </trkpt>
      <trkpt lat="45.0919" lon="5.61163">
        <ele>1701.599975586</ele>
        <time>2014-01-31T17:22:45Z</time>
      </trkpt>
      <trkpt lat="45.09188" lon="5.6117">
        <ele>1703.599975586</ele>
        <time>2014-01-31T17:22:52Z</time>
      </trkpt>
      <trkpt lat="45.09186" lon="5.61176">
        <ele>1705.199951172</ele>
        <time>2014-01-31T17:22:57Z</time>
      </trkpt>
      <trkpt lat="45.09186" lon="5.61177">
        <ele>1705.400024414</ele>
        <time>2014-01-31T17:22:58Z</time>
      </trkpt>
      <trkpt lat="45.09184" lon="5.61182">
        <ele>1707</ele>
        <time>2014-01-31T17:23:04Z</time>
      </trkpt>
      <trkpt lat="45.09183" lon="5.61183">
        <ele>1707.199951172</ele>
        <time>2014-01-31T17:23:11Z</time>
      </trkpt>
      <trkpt lat="45.09182" lon="5.61183">
        <ele>1707.400024414</ele>
        <time>2014-01-31T17:23:18Z</time>
      </trkpt>
      <trkpt lat="45.09182" lon="5.61183">
        <ele>1707.400024414</ele>
        <time>2014-01-31T17:23:21Z</time>
      </trkpt>
      <trkpt lat="45.09182" lon="5.61184">
        <ele>1707.599975586</ele>
        <time>2014-01-31T17:23:24Z</time>
      </trkpt>
      <trkpt lat="45.09182" lon="5.61184">
        <ele>1707.599975586</ele>
        <time>2014-01-31T17:23:26Z</time>
      </trkpt>
      <trkpt lat="45.09182" lon="5.61184">
        <ele>1707.599975586</ele>
        <time>2014-01-31T17:23:27Z</time>
      </trkpt>
      <trkpt lat="45.09181" lon="5.61184">
        <ele>1707.599975586</ele>
        <time>2014-01-31T17:23:32Z</time>
      </trkpt>
      <trkpt lat="45.09181" lon="5.61185">
        <ele>1707.800048828</ele>
        <time>2014-01-31T17:23:35Z</time>
      </trkpt>
      <trkpt lat="45.09181" lon="5.61185">
        <ele>1707.800048828</ele>
        <time>2014-01-31T17:23:36Z</time>
      </trkpt>
      <trkpt lat="45.09181" lon="5.61185">
        <ele>1707.800048828</ele>
        <time>2014-01-31T17:23:37Z</time>
      </trkpt>
      <trkpt lat="45.09182" lon="5.61185">
        <ele>1708</ele>
        <time>2014-01-31T17:23:44Z</time>
      </trkpt>
      <trkpt lat="45.09183" lon="5.61185">
        <ele>1707.800048828</ele>
        <time>2014-01-31T17:23:48Z</time>
      </trkpt>
      <trkpt lat="45.09183" lon="5.61184">
        <ele>1707.800048828</ele>
        <time>2014-01-31T17:23:50Z</time>
      </trkpt>
      <trkpt lat="45.09183" lon="5.61184">
        <ele>1707.599975586</ele>
        <time>2014-01-31T17:23:52Z</time>
      </trkpt>
      <trkpt lat="45.09183" lon="5.61184">
        <ele>1707.599975586</ele>
        <time>2014-01-31T17:23:53Z</time>
      </trkpt>
      <trkpt lat="45.09183" lon="5.61184">
        <ele>1707.599975586</ele>
        <time>2014-01-31T17:23:55Z</time>
      </trkpt>
      <trkpt lat="45.09183" lon="5.61184">
        <ele>1707.400024414</ele>
        <time>2014-01-31T17:24:00Z</time>
      </trkpt>
      <trkpt lat="45.09182" lon="5.61185">
        <ele>1707.800048828</ele>
        <time>2014-01-31T17:24:11Z</time>
      </trkpt>
      <trkpt lat="45.09182" lon="5.61185">
        <ele>1707.800048828</ele>
        <time>2014-01-31T17:24:13Z</time>
      </trkpt>
      <trkpt lat="45.09182" lon="5.61184">
        <ele>1707.599975586</ele>
        <time>2014-01-31T17:24:18Z</time>
      </trkpt>
      <trkpt lat="45.09182" lon="5.61184">
        <ele>1707.599975586</ele>
        <time>2014-01-31T17:24:21Z</time>
      </trkpt>
      <trkpt lat="45.09182" lon="5.61184">
        <ele>1707.400024414</ele>
        <time>2014-01-31T17:24:29Z</time>
      </trkpt>
      <trkpt lat="45.09182" lon="5.61183">
        <ele>1707.400024414</ele>
        <time>2014-01-31T17:24:31Z</time>
      </trkpt>
      <trkpt lat="45.09182" lon="5.61184">
        <ele>1707.400024414</ele>
        <time>2014-01-31T17:24:32Z</time>
      </trkpt>
      <trkpt lat="45.09182" lon="5.61183">
        <ele>1707.400024414</ele>
        <time>2014-01-31T17:24:41Z</time>
      </trkpt>
      <trkpt lat="45.09182" lon="5.61183">
        <ele>1707.400024414</ele>
        <time>2014-01-31T17:24:42Z</time>
      </trkpt>
      <trkpt lat="45.09182" lon="5.61183">
        <ele>1707.400024414</ele>
        <time>2014-01-31T17:24:53Z</time>
      </trkpt>
      <trkpt lat="45.09182" lon="5.61183">
        <ele>1707.400024414</ele>
        <time>2014-01-31T17:24:55Z</time>
      </trkpt>
      <trkpt lat="45.09182" lon="5.61183">
        <ele>1707.199951172</ele>
        <time>2014-01-31T17:24:57Z</time>
      </trkpt>
      <trkpt lat="45.09182" lon="5.61183">
        <ele>1707.400024414</ele>
        <time>2014-01-31T17:25:01Z</time>
      </trkpt>
      <trkpt lat="45.09181" lon="5.61185">
        <ele>1708</ele>
        <time>2014-01-31T17:25:11Z</time>
      </trkpt>
      <trkpt lat="45.09181" lon="5.61187">
        <ele>1708.400024414</ele>
        <time>2014-01-31T17:25:12Z</time>
      </trkpt>
      <trkpt lat="45.0918" lon="5.61189">
        <ele>1709</ele>
        <time>2014-01-31T17:25:14Z</time>
      </trkpt>
      <trkpt lat="45.09179" lon="5.61193">
        <ele>1710.199951172</ele>
        <time>2014-01-31T17:25:17Z</time>
      </trkpt>
      <trkpt lat="45.09178" lon="5.61196">
        <ele>1711</ele>
        <time>2014-01-31T17:25:19Z</time>
      </trkpt>
      <trkpt lat="45.09177" lon="5.61199">
        <ele>1712</ele>
        <time>2014-01-31T17:25:22Z</time>
      </trkpt>
      <trkpt lat="45.09175" lon="5.612">
        <ele>1712.199951172</ele>
        <time>2014-01-31T17:25:24Z</time>
      </trkpt>
      <trkpt lat="45.09174" lon="5.61201">
        <ele>1712.400024414</ele>
        <time>2014-01-31T17:25:25Z</time>
      </trkpt>
      <trkpt lat="45.09172" lon="5.61202">
        <ele>1712.599975586</ele>
        <time>2014-01-31T17:25:28Z</time>
      </trkpt>
      <trkpt lat="45.0917" lon="5.61202">
        <ele>1712.599975586</ele>
        <time>2014-01-31T17:25:30Z</time>
      </trkpt>
      <trkpt lat="45.09169" lon="5.61203">
        <ele>1713</ele>
        <time>2014-01-31T17:25:32Z</time>
      </trkpt>
      <trkpt lat="45.09168" lon="5.61203">
        <ele>1713</ele>
        <time>2014-01-31T17:25:33Z</time>
      </trkpt>
      <trkpt lat="45.09166" lon="5.61204">
        <ele>1713.400024414</ele>
        <time>2014-01-31T17:25:36Z</time>
      </trkpt>
      <trkpt lat="45.09164" lon="5.61205">
        <ele>1713.800048828</ele>
        <time>2014-01-31T17:25:38Z</time>
      </trkpt>
      <trkpt lat="45.09164" lon="5.61206">
        <ele>1713.800048828</ele>
        <time>2014-01-31T17:25:39Z</time>
      </trkpt>
      <trkpt lat="45.09162" lon="5.61207">
        <ele>1714.199951172</ele>
        <time>2014-01-31T17:25:41Z</time>
      </trkpt>
      <trkpt lat="45.09161" lon="5.61208">
        <ele>1714.800048828</ele>
        <time>2014-01-31T17:25:44Z</time>
      </trkpt>
      <trkpt lat="45.0916" lon="5.61209">
        <ele>1714.800048828</ele>
        <time>2014-01-31T17:25:45Z</time>
      </trkpt>
      <trkpt lat="45.09159" lon="5.6121">
        <ele>1715.199951172</ele>
        <time>2014-01-31T17:25:48Z</time>
      </trkpt>
      <trkpt lat="45.09158" lon="5.6121">
        <ele>1715.599975586</ele>
        <time>2014-01-31T17:25:50Z</time>
      </trkpt>
      <trkpt lat="45.09156" lon="5.61212">
        <ele>1716.199951172</ele>
        <time>2014-01-31T17:25:55Z</time>
      </trkpt>
      <trkpt lat="45.09153" lon="5.61217">
        <ele>1717.599975586</ele>
        <time>2014-01-31T17:26:01Z</time>
      </trkpt>
      <trkpt lat="45.09149" lon="5.61222">
        <ele>1719.400024414</ele>
        <time>2014-01-31T17:26:07Z</time>
      </trkpt>
      <trkpt lat="45.09148" lon="5.61224">
        <ele>1720</ele>
        <time>2014-01-31T17:26:09Z</time>
      </trkpt>
      <trkpt lat="45.09147" lon="5.61227">
        <ele>1720.800048828</ele>
        <time>2014-01-31T17:26:12Z</time>
      </trkpt>
      <trkpt lat="45.09144" lon="5.61229">
        <ele>1721.599975586</ele>
        <time>2014-01-31T17:26:17Z</time>
      </trkpt>
      <trkpt lat="45.09141" lon="5.61231">
        <ele>1722.400024414</ele>
        <time>2014-01-31T17:26:23Z</time>
      </trkpt>
      <trkpt lat="45.09137" lon="5.61233">
        <ele>1723</ele>
        <time>2014-01-31T17:26:29Z</time>
      </trkpt>
      <trkpt lat="45.09133" lon="5.61235">
        <ele>1723.800048828</ele>
        <time>2014-01-31T17:26:36Z</time>
      </trkpt>
      <trkpt lat="45.09132" lon="5.61235">
        <ele>1723.800048828</ele>
        <time>2014-01-31T17:26:40Z</time>
      </trkpt>
      <trkpt lat="45.09129" lon="5.61237">
        <ele>1724.199951172</ele>
        <time>2014-01-31T17:26:46Z</time>
      </trkpt>
      <trkpt lat="45.09127" lon="5.61238">
        <ele>1724.599975586</ele>
        <time>2014-01-31T17:26:51Z</time>
      </trkpt>
      <trkpt lat="45.09125" lon="5.6124">
        <ele>1725.199951172</ele>
        <time>2014-01-31T17:26:55Z</time>
      </trkpt>
      <trkpt lat="45.09124" lon="5.61243">
        <ele>1726</ele>
        <time>2014-01-31T17:26:59Z</time>
      </trkpt>
      <trkpt lat="45.09122" lon="5.61246">
        <ele>1727.199951172</ele>
        <time>2014-01-31T17:27:03Z</time>
      </trkpt>
      <trkpt lat="45.0912" lon="5.61252">
        <ele>1728.400024414</ele>
        <time>2014-01-31T17:27:08Z</time>
      </trkpt>
      <trkpt lat="45.09119" lon="5.61256">
        <ele>1729.199951172</ele>
        <time>2014-01-31T17:27:13Z</time>
      </trkpt>
      <trkpt lat="45.09116" lon="5.61259">
        <ele>1729.800048828</ele>
        <time>2014-01-31T17:27:18Z</time>
      </trkpt>
      <trkpt lat="45.09114" lon="5.61261">
        <ele>1730.199951172</ele>
        <time>2014-01-31T17:27:23Z</time>
      </trkpt>
      <trkpt lat="45.09109" lon="5.61265">
        <ele>1730.800048828</ele>
        <time>2014-01-31T17:27:30Z</time>
      </trkpt>
      <trkpt lat="45.09106" lon="5.61269">
        <ele>1731.400024414</ele>
        <time>2014-01-31T17:27:37Z</time>
      </trkpt>
      <trkpt lat="45.09106" lon="5.61271">
        <ele>1731.800048828</ele>
        <time>2014-01-31T17:27:41Z</time>
      </trkpt>
      <trkpt lat="45.09106" lon="5.61277">
        <ele>1732.599975586</ele>
        <time>2014-01-31T17:27:46Z</time>
      </trkpt>
      <trkpt lat="45.09107" lon="5.61284">
        <ele>1733.800048828</ele>
        <time>2014-01-31T17:27:53Z</time>
      </trkpt>
      <trkpt lat="45.09107" lon="5.61291">
        <ele>1735</ele>
        <time>2014-01-31T17:27:59Z</time>
      </trkpt>
      <trkpt lat="45.09108" lon="5.61294">
        <ele>1735.599975586</ele>
        <time>2014-01-31T17:28:02Z</time>
      </trkpt>
      <trkpt lat="45.09108" lon="5.61298">
        <ele>1736.199951172</ele>
        <time>2014-01-31T17:28:05Z</time>
      </trkpt>
      <trkpt lat="45.09109" lon="5.61304">
        <ele>1737.199951172</ele>
        <time>2014-01-31T17:28:09Z</time>
      </trkpt>
      <trkpt lat="45.0911" lon="5.61309">
        <ele>1738</ele>
        <time>2014-01-31T17:28:12Z</time>
      </trkpt>
      <trkpt lat="45.09111" lon="5.61319">
        <ele>1739.599975586</ele>
        <time>2014-01-31T17:28:19Z</time>
      </trkpt>
      <trkpt lat="45.0911" lon="5.61321">
        <ele>1740</ele>
        <time>2014-01-31T17:28:21Z</time>
      </trkpt>
      <trkpt lat="45.0911" lon="5.61324">
        <ele>1740.400024414</ele>
        <time>2014-01-31T17:28:23Z</time>
      </trkpt>
      <trkpt lat="45.09111" lon="5.61336">
        <ele>1742.400024414</ele>
        <time>2014-01-31T17:28:29Z</time>
      </trkpt>
      <trkpt lat="45.09111" lon="5.61345">
        <ele>1743.599975586</ele>
        <time>2014-01-31T17:28:35Z</time>
      </trkpt>
      <trkpt lat="45.09113" lon="5.61353">
        <ele>1744.599975586</ele>
        <time>2014-01-31T17:28:40Z</time>
      </trkpt>
      <trkpt lat="45.09114" lon="5.61361">
        <ele>1745.800048828</ele>
        <time>2014-01-31T17:28:46Z</time>
      </trkpt>
      <trkpt lat="45.09115" lon="5.6137">
        <ele>1747.199951172</ele>
        <time>2014-01-31T17:28:53Z</time>
      </trkpt>
      <trkpt lat="45.09115" lon="5.61377">
        <ele>1748</ele>
        <time>2014-01-31T17:28:59Z</time>
      </trkpt>
      <trkpt lat="45.09116" lon="5.61384">
        <ele>1749.199951172</ele>
        <time>2014-01-31T17:29:06Z</time>
      </trkpt>
      <trkpt lat="45.09117" lon="5.61386">
        <ele>1749.400024414</ele>
        <time>2014-01-31T17:29:08Z</time>
      </trkpt>
      <trkpt lat="45.09118" lon="5.61391">
        <ele>1750</ele>
        <time>2014-01-31T17:29:14Z</time>
      </trkpt>
      <trkpt lat="45.09118" lon="5.61395">
        <ele>1750.599975586</ele>
        <time>2014-01-31T17:29:18Z</time>
      </trkpt>
      <trkpt lat="45.0912" lon="5.61403">
        <ele>1751.800048828</ele>
        <time>2014-01-31T17:29:25Z</time>
      </trkpt>
      <trkpt lat="45.09122" lon="5.6141">
        <ele>1753</ele>
        <time>2014-01-31T17:29:32Z</time>
      </trkpt>
      <trkpt lat="45.09124" lon="5.61417">
        <ele>1754</ele>
        <time>2014-01-31T17:29:39Z</time>
      </trkpt>
      <trkpt lat="45.09125" lon="5.61421">
        <ele>1754.800048828</ele>
        <time>2014-01-31T17:29:44Z</time>
      </trkpt>
      <trkpt lat="45.09126" lon="5.61427">
        <ele>1755.800048828</ele>
        <time>2014-01-31T17:29:51Z</time>
      </trkpt>
      <trkpt lat="45.09127" lon="5.61431">
        <ele>1756.599975586</ele>
        <time>2014-01-31T17:29:56Z</time>
      </trkpt>
      <trkpt lat="45.09128" lon="5.6144">
        <ele>1758.199951172</ele>
        <time>2014-01-31T17:30:03Z</time>
      </trkpt>
      <trkpt lat="45.0913" lon="5.61447">
        <ele>1759.800048828</ele>
        <time>2014-01-31T17:30:09Z</time>
      </trkpt>
      <trkpt lat="45.09132" lon="5.61456">
        <ele>1761.400024414</ele>
        <time>2014-01-31T17:30:17Z</time>
      </trkpt>
      <trkpt lat="45.09133" lon="5.61465">
        <ele>1763.199951172</ele>
        <time>2014-01-31T17:30:24Z</time>
      </trkpt>
      <trkpt lat="45.09135" lon="5.61474">
        <ele>1764.800048828</ele>
        <time>2014-01-31T17:30:31Z</time>
      </trkpt>
      <trkpt lat="45.09137" lon="5.61486">
        <ele>1767</ele>
        <time>2014-01-31T17:30:38Z</time>
      </trkpt>
      <trkpt lat="45.09137" lon="5.61491">
        <ele>1768</ele>
        <time>2014-01-31T17:30:41Z</time>
      </trkpt>
      <trkpt lat="45.09137" lon="5.61493">
        <ele>1768.199951172</ele>
        <time>2014-01-31T17:30:45Z</time>
      </trkpt>
      <trkpt lat="45.09136" lon="5.61497">
        <ele>1769</ele>
        <time>2014-01-31T17:30:49Z</time>
      </trkpt>
      <trkpt lat="45.09136" lon="5.61502">
        <ele>1770</ele>
        <time>2014-01-31T17:30:55Z</time>
      </trkpt>
      <trkpt lat="45.09134" lon="5.61508">
        <ele>1771.400024414</ele>
        <time>2014-01-31T17:31:02Z</time>
      </trkpt>
      <trkpt lat="45.09133" lon="5.61511">
        <ele>1772.199951172</ele>
        <time>2014-01-31T17:31:06Z</time>
      </trkpt>
      <trkpt lat="45.09131" lon="5.61517">
        <ele>1773.599975586</ele>
        <time>2014-01-31T17:31:13Z</time>
      </trkpt>
      <trkpt lat="45.09129" lon="5.61522">
        <ele>1774.800048828</ele>
        <time>2014-01-31T17:31:19Z</time>
      </trkpt>
      <trkpt lat="45.09126" lon="5.61528">
        <ele>1776</ele>
        <time>2014-01-31T17:31:25Z</time>
      </trkpt>
      <trkpt lat="45.09125" lon="5.61532">
        <ele>1777.199951172</ele>
        <time>2014-01-31T17:31:32Z</time>
      </trkpt>
      <trkpt lat="45.09128" lon="5.61535">
        <ele>1778.199951172</ele>
        <time>2014-01-31T17:31:37Z</time>
      </trkpt>
      <trkpt lat="45.09129" lon="5.61538">
        <ele>1779.199951172</ele>
        <time>2014-01-31T17:31:41Z</time>
      </trkpt>
      <trkpt lat="45.0913" lon="5.61544">
        <ele>1780.800048828</ele>
        <time>2014-01-31T17:31:47Z</time>
      </trkpt>
      <trkpt lat="45.0913" lon="5.61548">
        <ele>1781.800048828</ele>
        <time>2014-01-31T17:31:51Z</time>
      </trkpt>
      <trkpt lat="45.09128" lon="5.61554">
        <ele>1783.199951172</ele>
        <time>2014-01-31T17:31:56Z</time>
      </trkpt>
      <trkpt lat="45.09126" lon="5.61559">
        <ele>1784.400024414</ele>
        <time>2014-01-31T17:32:02Z</time>
      </trkpt>
      <trkpt lat="45.09126" lon="5.61562">
        <ele>1785.199951172</ele>
        <time>2014-01-31T17:32:07Z</time>
      </trkpt>
      <trkpt lat="45.09128" lon="5.61563">
        <ele>1785.800048828</ele>
        <time>2014-01-31T17:32:12Z</time>
      </trkpt>
      <trkpt lat="45.09132" lon="5.61566">
        <ele>1786.800048828</ele>
        <time>2014-01-31T17:32:17Z</time>
      </trkpt>
      <trkpt lat="45.09133" lon="5.61569">
        <ele>1787.400024414</ele>
        <time>2014-01-31T17:32:21Z</time>
      </trkpt>
      <trkpt lat="45.09133" lon="5.61573">
        <ele>1788.599975586</ele>
        <time>2014-01-31T17:32:25Z</time>
      </trkpt>
      <trkpt lat="45.09134" lon="5.61575">
        <ele>1789</ele>
        <time>2014-01-31T17:32:27Z</time>
      </trkpt>
      <trkpt lat="45.09133" lon="5.61577">
        <ele>1789.800048828</ele>
        <time>2014-01-31T17:32:30Z</time>
      </trkpt>
      <trkpt lat="45.09131" lon="5.61584">
        <ele>1791.400024414</ele>
        <time>2014-01-31T17:32:37Z</time>
      </trkpt>
      <trkpt lat="45.0913" lon="5.6159">
        <ele>1793</ele>
        <time>2014-01-31T17:32:43Z</time>
      </trkpt>
      <trkpt lat="45.0913" lon="5.61594">
        <ele>1793.599975586</ele>
        <time>2014-01-31T17:32:47Z</time>
      </trkpt>
      <trkpt lat="45.09131" lon="5.61596">
        <ele>1794.199951172</ele>
        <time>2014-01-31T17:32:51Z</time>
      </trkpt>
      <trkpt lat="45.09135" lon="5.61597">
        <ele>1794.800048828</ele>
        <time>2014-01-31T17:32:57Z</time>
      </trkpt>
      <trkpt lat="45.09137" lon="5.61598">
        <ele>1795</ele>
        <time>2014-01-31T17:33:01Z</time>
      </trkpt>
      <trkpt lat="45.09141" lon="5.61599">
        <ele>1795.400024414</ele>
        <time>2014-01-31T17:33:06Z</time>
      </trkpt>
      <trkpt lat="45.09143" lon="5.616">
        <ele>1795.800048828</ele>
        <time>2014-01-31T17:33:10Z</time>
      </trkpt>
      <trkpt lat="45.09146" lon="5.61603">
        <ele>1796.599975586</ele>
        <time>2014-01-31T17:33:15Z</time>
      </trkpt>
      <trkpt lat="45.09149" lon="5.61607">
        <ele>1797.599975586</ele>
        <time>2014-01-31T17:33:19Z</time>
      </trkpt>
      <trkpt lat="45.09149" lon="5.61609">
        <ele>1798</ele>
        <time>2014-01-31T17:33:21Z</time>
      </trkpt>
      <trkpt lat="45.09149" lon="5.61611">
        <ele>1798.599975586</ele>
        <time>2014-01-31T17:33:23Z</time>
      </trkpt>
      <trkpt lat="45.09148" lon="5.61616">
        <ele>1799.599975586</ele>
        <time>2014-01-31T17:33:28Z</time>
      </trkpt>
      <trkpt lat="45.09149" lon="5.61617">
        <ele>1800</ele>
        <time>2014-01-31T17:33:29Z</time>
      </trkpt>
      <trkpt lat="45.0915" lon="5.61623">
        <ele>1801.400024414</ele>
        <time>2014-01-31T17:33:35Z</time>
      </trkpt>
      <trkpt lat="45.0915" lon="5.61631">
        <ele>1803.199951172</ele>
        <time>2014-01-31T17:33:42Z</time>
      </trkpt>
      <trkpt lat="45.09149" lon="5.61637">
        <ele>1804.599975586</ele>
        <time>2014-01-31T17:33:48Z</time>
      </trkpt>
      <trkpt lat="45.09147" lon="5.61642">
        <ele>1805.800048828</ele>
        <time>2014-01-31T17:33:53Z</time>
      </trkpt>
      <trkpt lat="45.09145" lon="5.61649">
        <ele>1807.400024414</ele>
        <time>2014-01-31T17:33:59Z</time>
      </trkpt>
      <trkpt lat="45.09145" lon="5.61656">
        <ele>1809</ele>
        <time>2014-01-31T17:34:05Z</time>
      </trkpt>
      <trkpt lat="45.09146" lon="5.61665">
        <ele>1811</ele>
        <time>2014-01-31T17:34:12Z</time>
      </trkpt>
      <trkpt lat="45.09147" lon="5.61669">
        <ele>1812.199951172</ele>
        <time>2014-01-31T17:34:16Z</time>
      </trkpt>
      <trkpt lat="45.09147" lon="5.61671">
        <ele>1812.800048828</ele>
        <time>2014-01-31T17:34:18Z</time>
      </trkpt>
      <trkpt lat="45.09148" lon="5.61679">
        <ele>1814.599975586</ele>
        <time>2014-01-31T17:34:24Z</time>
      </trkpt>
      <trkpt lat="45.09148" lon="5.61684">
        <ele>1816</ele>
        <time>2014-01-31T17:34:30Z</time>
      </trkpt>
      <trkpt lat="45.09149" lon="5.61691">
        <ele>1817.599975586</ele>
        <time>2014-01-31T17:34:37Z</time>
      </trkpt>
      <trkpt lat="45.09149" lon="5.61694">
        <ele>1818.599975586</ele>
        <time>2014-01-31T17:34:42Z</time>
      </trkpt>
      <trkpt lat="45.0915" lon="5.617">
        <ele>1820</ele>
        <time>2014-01-31T17:34:49Z</time>
      </trkpt>
      <trkpt lat="45.09152" lon="5.61706">
        <ele>1821.400024414</ele>
        <time>2014-01-31T17:34:55Z</time>
      </trkpt>
      <trkpt lat="45.09151" lon="5.61712">
        <ele>1823</ele>
        <time>2014-01-31T17:35:01Z</time>
      </trkpt>
      <trkpt lat="45.09154" lon="5.61714">
        <ele>1823.400024414</ele>
        <time>2014-01-31T17:35:06Z</time>
      </trkpt>
      <trkpt lat="45.09157" lon="5.61711">
        <ele>1822.800048828</ele>
        <time>2014-01-31T17:35:11Z</time>
      </trkpt>
      <trkpt lat="45.09161" lon="5.61706">
        <ele>1821.599975586</ele>
        <time>2014-01-31T17:35:18Z</time>
      </trkpt>
      <trkpt lat="45.09166" lon="5.61705">
        <ele>1821.199951172</ele>
        <time>2014-01-31T17:35:24Z</time>
      </trkpt>
      <trkpt lat="45.0917" lon="5.61707">
        <ele>1822</ele>
        <time>2014-01-31T17:35:30Z</time>
      </trkpt>
      <trkpt lat="45.09172" lon="5.61709">
        <ele>1822.599975586</ele>
        <time>2014-01-31T17:35:33Z</time>
      </trkpt>
      <trkpt lat="45.09175" lon="5.6171">
        <ele>1823</ele>
        <time>2014-01-31T17:35:36Z</time>
      </trkpt>
      <trkpt lat="45.09177" lon="5.61715">
        <ele>1824.599975586</ele>
        <time>2014-01-31T17:35:43Z</time>
      </trkpt>
      <trkpt lat="45.09178" lon="5.61719">
        <ele>1825.800048828</ele>
        <time>2014-01-31T17:35:47Z</time>
      </trkpt>
      <trkpt lat="45.09178" lon="5.61727">
        <ele>1827.800048828</ele>
        <time>2014-01-31T17:35:53Z</time>
      </trkpt>
      <trkpt lat="45.09178" lon="5.61729">
        <ele>1828.400024414</ele>
        <time>2014-01-31T17:35:55Z</time>
      </trkpt>
      <trkpt lat="45.09178" lon="5.61734">
        <ele>1829.800048828</ele>
        <time>2014-01-31T17:35:59Z</time>
      </trkpt>
      <trkpt lat="45.09178" lon="5.61738">
        <ele>1830.800048828</ele>
        <time>2014-01-31T17:36:05Z</time>
      </trkpt>
      <trkpt lat="45.09179" lon="5.61737">
        <ele>1830.599975586</ele>
        <time>2014-01-31T17:36:11Z</time>
      </trkpt>
      <trkpt lat="45.09183" lon="5.61735">
        <ele>1830.599975586</ele>
        <time>2014-01-31T17:36:17Z</time>
      </trkpt>
      <trkpt lat="45.09185" lon="5.61734">
        <ele>1830.599975586</ele>
        <time>2014-01-31T17:36:20Z</time>
      </trkpt>
      <trkpt lat="45.09189" lon="5.61733">
        <ele>1831</ele>
        <time>2014-01-31T17:36:25Z</time>
      </trkpt>
      <trkpt lat="45.09191" lon="5.61735">
        <ele>1831.800048828</ele>
        <time>2014-01-31T17:36:30Z</time>
      </trkpt>
      <trkpt lat="45.0919" lon="5.6174">
        <ele>1833.199951172</ele>
        <time>2014-01-31T17:36:36Z</time>
      </trkpt>
      <trkpt lat="45.0919" lon="5.61746">
        <ele>1834.599975586</ele>
        <time>2014-01-31T17:36:42Z</time>
      </trkpt>
      <trkpt lat="45.0919" lon="5.61748">
        <ele>1835.199951172</ele>
        <time>2014-01-31T17:36:47Z</time>
      </trkpt>
      <trkpt lat="45.09195" lon="5.61747">
        <ele>1836</ele>
        <time>2014-01-31T17:36:54Z</time>
      </trkpt>
      <trkpt lat="45.09198" lon="5.61747">
        <ele>1836.599975586</ele>
        <time>2014-01-31T17:37:00Z</time>
      </trkpt>
      <trkpt lat="45.09201" lon="5.61748">
        <ele>1837</ele>
        <time>2014-01-31T17:37:04Z</time>
      </trkpt>
      <trkpt lat="45.09206" lon="5.6175">
        <ele>1838.400024414</ele>
        <time>2014-01-31T17:37:11Z</time>
      </trkpt>
      <trkpt lat="45.09207" lon="5.61753">
        <ele>1839.800048828</ele>
        <time>2014-01-31T17:37:15Z</time>
      </trkpt>
      <trkpt lat="45.09205" lon="5.61757">
        <ele>1841</ele>
        <time>2014-01-31T17:37:19Z</time>
      </trkpt>
      <trkpt lat="45.09204" lon="5.6176">
        <ele>1841.800048828</ele>
        <time>2014-01-31T17:37:21Z</time>
      </trkpt>
      <trkpt lat="45.09204" lon="5.61764">
        <ele>1843</ele>
        <time>2014-01-31T17:37:25Z</time>
      </trkpt>
      <trkpt lat="45.09202" lon="5.61767">
        <ele>1844.199951172</ele>
        <time>2014-01-31T17:37:29Z</time>
      </trkpt>
      <trkpt lat="45.09201" lon="5.61772">
        <ele>1845.400024414</ele>
        <time>2014-01-31T17:37:34Z</time>
      </trkpt>
      <trkpt lat="45.092" lon="5.61778">
        <ele>1847.400024414</ele>
        <time>2014-01-31T17:37:41Z</time>
      </trkpt>
      <trkpt lat="45.09199" lon="5.61784">
        <ele>1849.400024414</ele>
        <time>2014-01-31T17:37:48Z</time>
      </trkpt>
      <trkpt lat="45.09199" lon="5.61788">
        <ele>1850.599975586</ele>
        <time>2014-01-31T17:37:52Z</time>
      </trkpt>
      <trkpt lat="45.09198" lon="5.61791">
        <ele>1851.800048828</ele>
        <time>2014-01-31T17:37:56Z</time>
      </trkpt>
      <trkpt lat="45.09197" lon="5.61795">
        <ele>1853</ele>
        <time>2014-01-31T17:38:01Z</time>
      </trkpt>
      <trkpt lat="45.09195" lon="5.61801">
        <ele>1854.800048828</ele>
        <time>2014-01-31T17:38:08Z</time>
      </trkpt>
      <trkpt lat="45.09192" lon="5.61808">
        <ele>1856.599975586</ele>
        <time>2014-01-31T17:38:15Z</time>
      </trkpt>
      <trkpt lat="45.0919" lon="5.61813">
        <ele>1857.800048828</ele>
        <time>2014-01-31T17:38:20Z</time>
      </trkpt>
      <trkpt lat="45.09187" lon="5.61819">
        <ele>1859.599975586</ele>
        <time>2014-01-31T17:38:26Z</time>
      </trkpt>
      <trkpt lat="45.09183" lon="5.61826">
        <ele>1861.400024414</ele>
        <time>2014-01-31T17:38:32Z</time>
      </trkpt>
      <trkpt lat="45.0918" lon="5.61832">
        <ele>1862.800048828</ele>
        <time>2014-01-31T17:38:37Z</time>
      </trkpt>
      <trkpt lat="45.09179" lon="5.61834">
        <ele>1863.199951172</ele>
        <time>2014-01-31T17:38:38Z</time>
      </trkpt>
      <trkpt lat="45.09176" lon="5.61838">
        <ele>1863.800048828</ele>
        <time>2014-01-31T17:38:44Z</time>
      </trkpt>
      <trkpt lat="45.09172" lon="5.61842">
        <ele>1864.199951172</ele>
        <time>2014-01-31T17:38:49Z</time>
      </trkpt>
      <trkpt lat="45.0917" lon="5.61846">
        <ele>1864.800048828</ele>
        <time>2014-01-31T17:38:54Z</time>
      </trkpt>
      <trkpt lat="45.09166" lon="5.61851">
        <ele>1865.599975586</ele>
        <time>2014-01-31T17:39:00Z</time>
      </trkpt>
      <trkpt lat="45.09163" lon="5.61856">
        <ele>1867</ele>
        <time>2014-01-31T17:39:06Z</time>
      </trkpt>
      <trkpt lat="45.09161" lon="5.6186">
        <ele>1868.199951172</ele>
        <time>2014-01-31T17:39:12Z</time>
      </trkpt>
      <trkpt lat="45.09158" lon="5.61865">
        <ele>1869.400024414</ele>
        <time>2014-01-31T17:39:18Z</time>
      </trkpt>
      <trkpt lat="45.09156" lon="5.61866">
        <ele>1870</ele>
        <time>2014-01-31T17:39:22Z</time>
      </trkpt>
      <trkpt lat="45.09155" lon="5.61869">
        <ele>1871</ele>
        <time>2014-01-31T17:39:26Z</time>
      </trkpt>
      <trkpt lat="45.09152" lon="5.61872">
        <ele>1872</ele>
        <time>2014-01-31T17:39:30Z</time>
      </trkpt>
      <trkpt lat="45.0915" lon="5.61877">
        <ele>1873.599975586</ele>
        <time>2014-01-31T17:39:37Z</time>
      </trkpt>
      <trkpt lat="45.09148" lon="5.61879">
        <ele>1874.400024414</ele>
        <time>2014-01-31T17:39:42Z</time>
      </trkpt>
      <trkpt lat="45.09146" lon="5.61882">
        <ele>1875.599975586</ele>
        <time>2014-01-31T17:39:46Z</time>
      </trkpt>
      <trkpt lat="45.09147" lon="5.61884">
        <ele>1876</ele>
        <time>2014-01-31T17:39:51Z</time>
      </trkpt>
      <trkpt lat="45.0915" lon="5.61886">
        <ele>1876.400024414</ele>
        <time>2014-01-31T17:39:56Z</time>
      </trkpt>
      <trkpt lat="45.09153" lon="5.61889">
        <ele>1876.800048828</ele>
        <time>2014-01-31T17:40:02Z</time>
      </trkpt>
      <trkpt lat="45.09155" lon="5.61891">
        <ele>1877</ele>
        <time>2014-01-31T17:40:06Z</time>
      </trkpt>
      <trkpt lat="45.09158" lon="5.61893">
        <ele>1877.400024414</ele>
        <time>2014-01-31T17:40:12Z</time>
      </trkpt>
      <trkpt lat="45.09161" lon="5.61896">
        <ele>1877.599975586</ele>
        <time>2014-01-31T17:40:17Z</time>
      </trkpt>
      <trkpt lat="45.09162" lon="5.61896">
        <ele>1877.599975586</ele>
        <time>2014-01-31T17:40:20Z</time>
      </trkpt>
      <trkpt lat="45.09165" lon="5.61898">
        <ele>1877.400024414</ele>
        <time>2014-01-31T17:40:24Z</time>
      </trkpt>
      <trkpt lat="45.09166" lon="5.61899">
        <ele>1877.599975586</ele>
        <time>2014-01-31T17:40:28Z</time>
      </trkpt>
      <trkpt lat="45.09165" lon="5.619">
        <ele>1878</ele>
        <time>2014-01-31T17:40:42Z</time>
      </trkpt>
      <trkpt lat="45.09165" lon="5.619">
        <ele>1878</ele>
        <time>2014-01-31T17:40:45Z</time>
      </trkpt>
      <trkpt lat="45.09166" lon="5.619">
        <ele>1877.800048828</ele>
        <time>2014-01-31T17:40:48Z</time>
      </trkpt>
      <trkpt lat="45.09166" lon="5.61899">
        <ele>1877.800048828</ele>
        <time>2014-01-31T17:40:50Z</time>
      </trkpt>
      <trkpt lat="45.09166" lon="5.61899">
        <ele>1877.800048828</ele>
        <time>2014-01-31T17:40:52Z</time>
      </trkpt>
      <trkpt lat="45.09166" lon="5.61899">
        <ele>1877.599975586</ele>
        <time>2014-01-31T17:40:54Z</time>
      </trkpt>
      <trkpt lat="45.09166" lon="5.61899">
        <ele>1877.599975586</ele>
        <time>2014-01-31T17:40:57Z</time>
      </trkpt>
      <trkpt lat="45.09166" lon="5.61899">
        <ele>1877.599975586</ele>
        <time>2014-01-31T17:40:58Z</time>
      </trkpt>
      <trkpt lat="45.09166" lon="5.61899">
        <ele>1877.599975586</ele>
        <time>2014-01-31T17:40:59Z</time>
      </trkpt>
      <trkpt lat="45.09166" lon="5.61899">
        <ele>1877.599975586</ele>
        <time>2014-01-31T17:41:00Z</time>
      </trkpt>
      <trkpt lat="45.09166" lon="5.61899">
        <ele>1877.599975586</ele>
        <time>2014-01-31T17:41:07Z</time>
      </trkpt>
      <trkpt lat="45.09166" lon="5.61899">
        <ele>1877.599975586</ele>
        <time>2014-01-31T17:41:08Z</time>
      </trkpt>
      <trkpt lat="45.09166" lon="5.61899">
        <ele>1877.599975586</ele>
        <time>2014-01-31T17:41:09Z</time>
      </trkpt>
      <trkpt lat="45.09166" lon="5.61899">
        <ele>1877.599975586</ele>
        <time>2014-01-31T17:41:11Z</time>
      </trkpt>
      <trkpt lat="45.09165" lon="5.61899">
        <ele>1877.800048828</ele>
        <time>2014-01-31T17:41:12Z</time>
      </trkpt>
      <trkpt lat="45.09166" lon="5.61899">
        <ele>1877.800048828</ele>
        <time>2014-01-31T17:41:13Z</time>
      </trkpt>
      <trkpt lat="45.09166" lon="5.61899">
        <ele>1877.800048828</ele>
        <time>2014-01-31T17:41:14Z</time>
      </trkpt>
      <trkpt lat="45.09166" lon="5.61899">
        <ele>1877.800048828</ele>
        <time>2014-01-31T17:41:16Z</time>
      </trkpt>
      <trkpt lat="45.09165" lon="5.61899">
        <ele>1877.599975586</ele>
        <time>2014-01-31T17:41:20Z</time>
      </trkpt>
      <trkpt lat="45.09165" lon="5.61899">
        <ele>1877.599975586</ele>
        <time>2014-01-31T17:41:23Z</time>
      </trkpt>
      <trkpt lat="45.09165" lon="5.61898">
        <ele>1877.599975586</ele>
        <time>2014-01-31T17:41:25Z</time>
      </trkpt>
      <trkpt lat="45.09164" lon="5.61898">
        <ele>1877.599975586</ele>
        <time>2014-01-31T17:41:28Z</time>
      </trkpt>
      <trkpt lat="45.09164" lon="5.61898">
        <ele>1877.599975586</ele>
        <time>2014-01-31T17:41:30Z</time>
      </trkpt>
      <trkpt lat="45.09164" lon="5.61898">
        <ele>1877.599975586</ele>
        <time>2014-01-31T17:41:31Z</time>
      </trkpt>
      <trkpt lat="45.09165" lon="5.61898">
        <ele>1877.400024414</ele>
        <time>2014-01-31T17:41:36Z</time>
      </trkpt>
      <trkpt lat="45.09166" lon="5.61897">
        <ele>1877.400024414</ele>
        <time>2014-01-31T17:41:54Z</time>
      </trkpt>
      <trkpt lat="45.09165" lon="5.61899">
        <ele>1877.800048828</ele>
        <time>2014-01-31T17:42:00Z</time>
      </trkpt>
      <trkpt lat="45.09164" lon="5.619">
        <ele>1878</ele>
        <time>2014-01-31T17:42:01Z</time>
      </trkpt>
      <trkpt lat="45.09157" lon="5.61904">
        <ele>1880.599975586</ele>
        <time>2014-01-31T17:42:07Z</time>
      </trkpt>
      <trkpt lat="45.09152" lon="5.61907">
        <ele>1882</ele>
        <time>2014-01-31T17:42:10Z</time>
      </trkpt>
      <trkpt lat="45.09149" lon="5.61909">
        <ele>1883</ele>
        <time>2014-01-31T17:42:12Z</time>
      </trkpt>
      <trkpt lat="45.09143" lon="5.61911">
        <ele>1884.599975586</ele>
        <time>2014-01-31T17:42:15Z</time>
      </trkpt>
      <trkpt lat="45.09142" lon="5.61911">
        <ele>1885</ele>
        <time>2014-01-31T17:42:16Z</time>
      </trkpt>
      <trkpt lat="45.09139" lon="5.61912">
        <ele>1885.800048828</ele>
        <time>2014-01-31T17:42:18Z</time>
      </trkpt>
      <trkpt lat="45.09136" lon="5.61913">
        <ele>1886.800048828</ele>
        <time>2014-01-31T17:42:20Z</time>
      </trkpt>
      <trkpt lat="45.09135" lon="5.61913">
        <ele>1887</ele>
        <time>2014-01-31T17:42:22Z</time>
      </trkpt>
      <trkpt lat="45.09134" lon="5.61914">
        <ele>1887.400024414</ele>
        <time>2014-01-31T17:42:23Z</time>
      </trkpt>
      <trkpt lat="45.09132" lon="5.61915">
        <ele>1888</ele>
        <time>2014-01-31T17:42:25Z</time>
      </trkpt>
      <trkpt lat="45.0913" lon="5.61917">
        <ele>1889</ele>
        <time>2014-01-31T17:42:27Z</time>
      </trkpt>
      <trkpt lat="45.09128" lon="5.61917">
        <ele>1889.400024414</ele>
        <time>2014-01-31T17:42:29Z</time>
      </trkpt>
      <trkpt lat="45.09127" lon="5.61918">
        <ele>1889.800048828</ele>
        <time>2014-01-31T17:42:31Z</time>
      </trkpt>
      <trkpt lat="45.09126" lon="5.61918">
        <ele>1890</ele>
        <time>2014-01-31T17:42:32Z</time>
      </trkpt>
      <trkpt lat="45.09125" lon="5.61919">
        <ele>1890.400024414</ele>
        <time>2014-01-31T17:42:34Z</time>
      </trkpt>
      <trkpt lat="45.09123" lon="5.6192">
        <ele>1891</ele>
        <time>2014-01-31T17:42:37Z</time>
      </trkpt>
      <trkpt lat="45.0912" lon="5.61921">
        <ele>1891.599975586</ele>
        <time>2014-01-31T17:42:42Z</time>
      </trkpt>
      <trkpt lat="45.0912" lon="5.61922">
        <ele>1892</ele>
        <time>2014-01-31T17:42:47Z</time>
      </trkpt>
      <trkpt lat="45.09122" lon="5.61925">
        <ele>1892</ele>
        <time>2014-01-31T17:42:51Z</time>
      </trkpt>
      <trkpt lat="45.09124" lon="5.61927">
        <ele>1891.800048828</ele>
        <time>2014-01-31T17:42:54Z</time>
      </trkpt>
      <trkpt lat="45.09126" lon="5.61928">
        <ele>1891.599975586</ele>
        <time>2014-01-31T17:42:56Z</time>
      </trkpt>
      <trkpt lat="45.09129" lon="5.61931">
        <ele>1891.400024414</ele>
        <time>2014-01-31T17:43:02Z</time>
      </trkpt>
      <trkpt lat="45.09131" lon="5.61934">
        <ele>1891.199951172</ele>
        <time>2014-01-31T17:43:06Z</time>
      </trkpt>
      <trkpt lat="45.09131" lon="5.61936">
        <ele>1891.599975586</ele>
        <time>2014-01-31T17:43:10Z</time>
      </trkpt>
      <trkpt lat="45.09131" lon="5.61937">
        <ele>1891.599975586</ele>
        <time>2014-01-31T17:43:19Z</time>
      </trkpt>
      <trkpt lat="45.09131" lon="5.61937">
        <ele>1891.599975586</ele>
        <time>2014-01-31T17:43:23Z</time>
      </trkpt>
      <trkpt lat="45.09131" lon="5.61936">
        <ele>1891.599975586</ele>
        <time>2014-01-31T17:43:25Z</time>
      </trkpt>
      <trkpt lat="45.09131" lon="5.61936">
        <ele>1891.599975586</ele>
        <time>2014-01-31T17:43:27Z</time>
      </trkpt>
      <trkpt lat="45.09131" lon="5.61936">
        <ele>1891.599975586</ele>
        <time>2014-01-31T17:43:29Z</time>
      </trkpt>
      <trkpt lat="45.09131" lon="5.61936">
        <ele>1891.599975586</ele>
        <time>2014-01-31T17:43:31Z</time>
      </trkpt>
      <trkpt lat="45.09131" lon="5.61936">
        <ele>1891.400024414</ele>
        <time>2014-01-31T17:43:33Z</time>
      </trkpt>
      <trkpt lat="45.09132" lon="5.61937">
        <ele>1891.400024414</ele>
        <time>2014-01-31T17:43:36Z</time>
      </trkpt>
      <trkpt lat="45.09132" lon="5.61938">
        <ele>1891.400024414</ele>
        <time>2014-01-31T17:43:39Z</time>
      </trkpt>
      <trkpt lat="45.09133" lon="5.61937">
        <ele>1891.400024414</ele>
        <time>2014-01-31T17:43:46Z</time>
      </trkpt>
      <trkpt lat="45.09132" lon="5.61937">
        <ele>1891.400024414</ele>
        <time>2014-01-31T17:43:51Z</time>
      </trkpt>
      <trkpt lat="45.09132" lon="5.61937">
        <ele>1891.400024414</ele>
        <time>2014-01-31T17:43:59Z</time>
      </trkpt>
      <trkpt lat="45.09132" lon="5.61937">
        <ele>1891.400024414</ele>
        <time>2014-01-31T17:44:01Z</time>
      </trkpt>
      <trkpt lat="45.09132" lon="5.61937">
        <ele>1891.400024414</ele>
        <time>2014-01-31T17:44:02Z</time>
      </trkpt>
      <trkpt lat="45.09132" lon="5.61937">
        <ele>1891.400024414</ele>
        <time>2014-01-31T17:44:03Z</time>
      </trkpt>
      <trkpt lat="45.09133" lon="5.61937">
        <ele>1891.199951172</ele>
        <time>2014-01-31T17:44:05Z</time>
      </trkpt>
      <trkpt lat="45.09133" lon="5.61937">
        <ele>1891.199951172</ele>
        <time>2014-01-31T17:44:08Z</time>
      </trkpt>
      <trkpt lat="45.09133" lon="5.61938">
        <ele>1891.199951172</ele>
        <time>2014-01-31T17:44:09Z</time>
      </trkpt>
      <trkpt lat="45.09134" lon="5.61938">
        <ele>1891</ele>
        <time>2014-01-31T17:44:12Z</time>
      </trkpt>
      <trkpt lat="45.09135" lon="5.61939">
        <ele>1891</ele>
        <time>2014-01-31T17:44:15Z</time>
      </trkpt>
      <trkpt lat="45.09135" lon="5.6194">
        <ele>1891</ele>
        <time>2014-01-31T17:44:18Z</time>
      </trkpt>
      <trkpt lat="45.09135" lon="5.61939">
        <ele>1891</ele>
        <time>2014-01-31T17:44:25Z</time>
      </trkpt>
      <trkpt lat="45.09135" lon="5.61939">
        <ele>1891</ele>
        <time>2014-01-31T17:44:31Z</time>
      </trkpt>
      <trkpt lat="45.09135" lon="5.61939">
        <ele>1891</ele>
        <time>2014-01-31T17:44:33Z</time>
      </trkpt>
      <trkpt lat="45.09135" lon="5.61939">
        <ele>1891</ele>
        <time>2014-01-31T17:44:36Z</time>
      </trkpt>
      <trkpt lat="45.09134" lon="5.61939">
        <ele>1891</ele>
        <time>2014-01-31T17:44:38Z</time>
      </trkpt>
      <trkpt lat="45.09134" lon="5.61938">
        <ele>1890.800048828</ele>
        <time>2014-01-31T17:44:40Z</time>
      </trkpt>
      <trkpt lat="45.09134" lon="5.61938">
        <ele>1890.800048828</ele>
        <time>2014-01-31T17:44:43Z</time>
      </trkpt>
      <trkpt lat="45.09134" lon="5.61938">
        <ele>1891</ele>
        <time>2014-01-31T17:44:45Z</time>
      </trkpt>
      <trkpt lat="45.09134" lon="5.61938">
        <ele>1890.800048828</ele>
        <time>2014-01-31T17:44:48Z</time>
      </trkpt>
      <trkpt lat="45.09135" lon="5.61938">
        <ele>1890.599975586</ele>
        <time>2014-01-31T17:44:53Z</time>
      </trkpt>
      <trkpt lat="45.09135" lon="5.61938">
        <ele>1890.599975586</ele>
        <time>2014-01-31T17:44:55Z</time>
      </trkpt>
      <trkpt lat="45.09135" lon="5.61938">
        <ele>1890.800048828</ele>
        <time>2014-01-31T17:45:02Z</time>
      </trkpt>
      <trkpt lat="45.09136" lon="5.61939">
        <ele>1890.599975586</ele>
        <time>2014-01-31T17:45:06Z</time>
      </trkpt>
      <trkpt lat="45.09135" lon="5.61939">
        <ele>1890.800048828</ele>
        <time>2014-01-31T17:45:09Z</time>
      </trkpt>
      <trkpt lat="45.09135" lon="5.61939">
        <ele>1890.800048828</ele>
        <time>2014-01-31T17:45:15Z</time>
      </trkpt>
      <trkpt lat="45.09134" lon="5.61939">
        <ele>1891.199951172</ele>
        <time>2014-01-31T17:45:22Z</time>
      </trkpt>
      <trkpt lat="45.09134" lon="5.61939">
        <ele>1891.199951172</ele>
        <time>2014-01-31T17:45:27Z</time>
      </trkpt>
      <trkpt lat="45.09134" lon="5.61939">
        <ele>1891.199951172</ele>
        <time>2014-01-31T17:45:28Z</time>
      </trkpt>
      <trkpt lat="45.09134" lon="5.61939">
        <ele>1891.199951172</ele>
        <time>2014-01-31T17:45:29Z</time>
      </trkpt>
      <trkpt lat="45.09133" lon="5.61939">
        <ele>1891.199951172</ele>
        <time>2014-01-31T17:45:31Z</time>
      </trkpt>
      <trkpt lat="45.09134" lon="5.61938">
        <ele>1891.199951172</ele>
        <time>2014-01-31T17:45:38Z</time>
      </trkpt>
      <trkpt lat="45.09134" lon="5.61938">
        <ele>1891.199951172</ele>
        <time>2014-01-31T17:45:40Z</time>
      </trkpt>
      <trkpt lat="45.09134" lon="5.6194">
        <ele>1891.199951172</ele>
        <time>2014-01-31T17:45:42Z</time>
      </trkpt>
      <trkpt lat="45.09134" lon="5.61941">
        <ele>1891.400024414</ele>
        <time>2014-01-31T17:45:44Z</time>
      </trkpt>
      <trkpt lat="45.09133" lon="5.61941">
        <ele>1891.599975586</ele>
        <time>2014-01-31T17:45:45Z</time>
      </trkpt>
      <trkpt lat="45.09128" lon="5.61941">
        <ele>1893</ele>
        <time>2014-01-31T17:45:50Z</time>
      </trkpt>
      <trkpt lat="45.09126" lon="5.61941">
        <ele>1893.599975586</ele>
        <time>2014-01-31T17:45:53Z</time>
      </trkpt>
      <trkpt lat="45.09125" lon="5.61941">
        <ele>1894</ele>
        <time>2014-01-31T17:45:55Z</time>
      </trkpt>
      <trkpt lat="45.09123" lon="5.61941">
        <ele>1894.400024414</ele>
        <time>2014-01-31T17:45:56Z</time>
      </trkpt>
      <trkpt lat="45.09123" lon="5.61942">
        <ele>1894.800048828</ele>
        <time>2014-01-31T17:45:58Z</time>
      </trkpt>
      <trkpt lat="45.09121" lon="5.61943">
        <ele>1895.599975586</ele>
        <time>2014-01-31T17:46:00Z</time>
      </trkpt>
      <trkpt lat="45.0912" lon="5.61943">
        <ele>1895.800048828</ele>
        <time>2014-01-31T17:46:01Z</time>
      </trkpt>
      <trkpt lat="45.09118" lon="5.61944">
        <ele>1896.400024414</ele>
        <time>2014-01-31T17:46:03Z</time>
      </trkpt>
      <trkpt lat="45.09117" lon="5.61944">
        <ele>1897</ele>
        <time>2014-01-31T17:46:05Z</time>
      </trkpt>
      <trkpt lat="45.09116" lon="5.61944">
        <ele>1897.199951172</ele>
        <time>2014-01-31T17:46:07Z</time>
      </trkpt>
      <trkpt lat="45.09114" lon="5.61944">
        <ele>1897.800048828</ele>
        <time>2014-01-31T17:46:09Z</time>
      </trkpt>
      <trkpt lat="45.09113" lon="5.61945">
        <ele>1898.199951172</ele>
        <time>2014-01-31T17:46:11Z</time>
      </trkpt>
      <trkpt lat="45.09112" lon="5.61945">
        <ele>1898.400024414</ele>
        <time>2014-01-31T17:46:12Z</time>
      </trkpt>
      <trkpt lat="45.09111" lon="5.61945">
        <ele>1898.800048828</ele>
        <time>2014-01-31T17:46:14Z</time>
      </trkpt>
      <trkpt lat="45.09109" lon="5.61945">
        <ele>1899.599975586</ele>
        <time>2014-01-31T17:46:17Z</time>
      </trkpt>
      <trkpt lat="45.09108" lon="5.61946">
        <ele>1900</ele>
        <time>2014-01-31T17:46:19Z</time>
      </trkpt>
      <trkpt lat="45.09106" lon="5.61946">
        <ele>1900.800048828</ele>
        <time>2014-01-31T17:46:22Z</time>
      </trkpt>
      <trkpt lat="45.09104" lon="5.61946">
        <ele>1901</ele>
        <time>2014-01-31T17:46:27Z</time>
      </trkpt>
      <trkpt lat="45.09104" lon="5.61947">
        <ele>1901.400024414</ele>
        <time>2014-01-31T17:46:34Z</time>
      </trkpt>
      <trkpt lat="45.09107" lon="5.61952">
        <ele>1901.800048828</ele>
        <time>2014-01-31T17:46:39Z</time>
      </trkpt>
      <trkpt lat="45.09109" lon="5.61955">
        <ele>1901.599975586</ele>
        <time>2014-01-31T17:46:43Z</time>
      </trkpt>
      <trkpt lat="45.09111" lon="5.61958">
        <ele>1901.599975586</ele>
        <time>2014-01-31T17:46:47Z</time>
      </trkpt>
      <trkpt lat="45.09114" lon="5.6196">
        <ele>1901.199951172</ele>
        <time>2014-01-31T17:46:51Z</time>
      </trkpt>
      <trkpt lat="45.09116" lon="5.61964">
        <ele>1901</ele>
        <time>2014-01-31T17:46:56Z</time>
      </trkpt>
      <trkpt lat="45.09117" lon="5.61967">
        <ele>1901.199951172</ele>
        <time>2014-01-31T17:47:01Z</time>
      </trkpt>
      <trkpt lat="45.09117" lon="5.61967">
        <ele>1901.400024414</ele>
        <time>2014-01-31T17:47:12Z</time>
      </trkpt>
      <trkpt lat="45.09117" lon="5.61967">
        <ele>1901.199951172</ele>
        <time>2014-01-31T17:47:16Z</time>
      </trkpt>
      <trkpt lat="45.09117" lon="5.61967">
        <ele>1901.199951172</ele>
        <time>2014-01-31T17:47:21Z</time>
      </trkpt>
      <trkpt lat="45.09117" lon="5.61967">
        <ele>1901.400024414</ele>
        <time>2014-01-31T17:47:24Z</time>
      </trkpt>
      <trkpt lat="45.09116" lon="5.61967">
        <ele>1901.400024414</ele>
        <time>2014-01-31T17:47:26Z</time>
      </trkpt>
      <trkpt lat="45.09116" lon="5.61967">
        <ele>1901.400024414</ele>
        <time>2014-01-31T17:47:28Z</time>
      </trkpt>
      <trkpt lat="45.09116" lon="5.61967">
        <ele>1901.400024414</ele>
        <time>2014-01-31T17:47:30Z</time>
      </trkpt>
      <trkpt lat="45.09117" lon="5.61967">
        <ele>1901.400024414</ele>
        <time>2014-01-31T17:47:32Z</time>
      </trkpt>
      <trkpt lat="45.09117" lon="5.61967">
        <ele>1901.400024414</ele>
        <time>2014-01-31T17:47:34Z</time>
      </trkpt>
      <trkpt lat="45.09117" lon="5.61967">
        <ele>1901.400024414</ele>
        <time>2014-01-31T17:47:38Z</time>
      </trkpt>
      <trkpt lat="45.09117" lon="5.61967">
        <ele>1901.400024414</ele>
        <time>2014-01-31T17:47:43Z</time>
      </trkpt>
      <trkpt lat="45.09117" lon="5.61967">
        <ele>1901.400024414</ele>
        <time>2014-01-31T17:47:44Z</time>
      </trkpt>
      <trkpt lat="45.09117" lon="5.61968">
        <ele>1901.599975586</ele>
        <time>2014-01-31T17:47:46Z</time>
      </trkpt>
      <trkpt lat="45.09118" lon="5.6197">
        <ele>1901.400024414</ele>
        <time>2014-01-31T17:47:53Z</time>
      </trkpt>
      <trkpt lat="45.09117" lon="5.61971">
        <ele>1901.800048828</ele>
        <time>2014-01-31T17:47:55Z</time>
      </trkpt>
      <trkpt lat="45.09116" lon="5.61971">
        <ele>1902.400024414</ele>
        <time>2014-01-31T17:47:56Z</time>
      </trkpt>
      <trkpt lat="45.09109" lon="5.61969">
        <ele>1904.800048828</ele>
        <time>2014-01-31T17:48:03Z</time>
      </trkpt>
      <trkpt lat="45.09106" lon="5.61969">
        <ele>1906.199951172</ele>
        <time>2014-01-31T17:48:06Z</time>
      </trkpt>
      <trkpt lat="45.09105" lon="5.61969">
        <ele>1906.400024414</ele>
        <time>2014-01-31T17:48:08Z</time>
      </trkpt>
      <trkpt lat="45.09103" lon="5.61969">
        <ele>1907</ele>
        <time>2014-01-31T17:48:10Z</time>
      </trkpt>
      <trkpt lat="45.09101" lon="5.61969">
        <ele>1907.599975586</ele>
        <time>2014-01-31T17:48:13Z</time>
      </trkpt>
      <trkpt lat="45.09099" lon="5.61968">
        <ele>1908.400024414</ele>
        <time>2014-01-31T17:48:16Z</time>
      </trkpt>
      <trkpt lat="45.09098" lon="5.61968">
        <ele>1909</ele>
        <time>2014-01-31T17:48:18Z</time>
      </trkpt>
      <trkpt lat="45.09093" lon="5.61967">
        <ele>1910.400024414</ele>
        <time>2014-01-31T17:48:24Z</time>
      </trkpt>
      <trkpt lat="45.09092" lon="5.61967">
        <ele>1910.800048828</ele>
        <time>2014-01-31T17:48:25Z</time>
      </trkpt>
      <trkpt lat="45.09092" lon="5.61967">
        <ele>1911</ele>
        <time>2014-01-31T17:48:30Z</time>
      </trkpt>
      <trkpt lat="45.09091" lon="5.61967">
        <ele>1911.199951172</ele>
        <time>2014-01-31T17:48:31Z</time>
      </trkpt>
      <trkpt lat="45.09092" lon="5.61968">
        <ele>1911.199951172</ele>
        <time>2014-01-31T17:48:35Z</time>
      </trkpt>
      <trkpt lat="45.09094" lon="5.61973">
        <ele>1911.800048828</ele>
        <time>2014-01-31T17:48:40Z</time>
      </trkpt>
      <trkpt lat="45.09096" lon="5.61976">
        <ele>1912.199951172</ele>
        <time>2014-01-31T17:48:46Z</time>
      </trkpt>
      <trkpt lat="45.09093" lon="5.61977">
        <ele>1913.199951172</ele>
        <time>2014-01-31T17:48:51Z</time>
      </trkpt>
      <trkpt lat="45.0909" lon="5.61978">
        <ele>1915.199951172</ele>
        <time>2014-01-31T17:48:58Z</time>
      </trkpt>
      <trkpt lat="45.09087" lon="5.61978">
        <ele>1916</ele>
        <time>2014-01-31T17:49:02Z</time>
      </trkpt>
      <trkpt lat="45.09084" lon="5.61977">
        <ele>1917</ele>
        <time>2014-01-31T17:49:07Z</time>
      </trkpt>
      <trkpt lat="45.09084" lon="5.61977">
        <ele>1917.400024414</ele>
        <time>2014-01-31T17:49:09Z</time>
      </trkpt>
      <trkpt lat="45.0908" lon="5.61975">
        <ele>1917.800048828</ele>
        <time>2014-01-31T17:49:17Z</time>
      </trkpt>
      <trkpt lat="45.09076" lon="5.61974">
        <ele>1918.800048828</ele>
        <time>2014-01-31T17:49:23Z</time>
      </trkpt>
      <trkpt lat="45.09074" lon="5.61973">
        <ele>1919</ele>
        <time>2014-01-31T17:49:28Z</time>
      </trkpt>
      <trkpt lat="45.0907" lon="5.61971">
        <ele>1919.199951172</ele>
        <time>2014-01-31T17:49:35Z</time>
      </trkpt>
      <trkpt lat="45.0907" lon="5.61971">
        <ele>1919.199951172</ele>
        <time>2014-01-31T17:49:36Z</time>
      </trkpt>
      <trkpt lat="45.09067" lon="5.61968">
        <ele>1919.199951172</ele>
        <time>2014-01-31T17:49:41Z</time>
      </trkpt>
      <trkpt lat="45.09063" lon="5.61964">
        <ele>1919</ele>
        <time>2014-01-31T17:49:48Z</time>
      </trkpt>
      <trkpt lat="45.09059" lon="5.61962">
        <ele>1919.599975586</ele>
        <time>2014-01-31T17:49:54Z</time>
      </trkpt>
      <trkpt lat="45.09053" lon="5.61961">
        <ele>1920.800048828</ele>
        <time>2014-01-31T17:50:00Z</time>
      </trkpt>
      <trkpt lat="45.0905" lon="5.6196">
        <ele>1921.400024414</ele>
        <time>2014-01-31T17:50:05Z</time>
      </trkpt>
      <trkpt lat="45.09046" lon="5.61959">
        <ele>1922.199951172</ele>
        <time>2014-01-31T17:50:11Z</time>
      </trkpt>
      <trkpt lat="45.09043" lon="5.61959">
        <ele>1923</ele>
        <time>2014-01-31T17:50:16Z</time>
      </trkpt>
      <trkpt lat="45.0904" lon="5.61959">
        <ele>1923.800048828</ele>
        <time>2014-01-31T17:50:21Z</time>
      </trkpt>
      <trkpt lat="45.09037" lon="5.61959">
        <ele>1924.599975586</ele>
        <time>2014-01-31T17:50:25Z</time>
      </trkpt>
      <trkpt lat="45.09034" lon="5.61959">
        <ele>1925.400024414</ele>
        <time>2014-01-31T17:50:29Z</time>
      </trkpt>
      <trkpt lat="45.0903" lon="5.61959">
        <ele>1926.599975586</ele>
        <time>2014-01-31T17:50:36Z</time>
      </trkpt>
      <trkpt lat="45.09027" lon="5.61959">
        <ele>1927.599975586</ele>
        <time>2014-01-31T17:50:42Z</time>
      </trkpt>
      <trkpt lat="45.09023" lon="5.6196">
        <ele>1928.800048828</ele>
        <time>2014-01-31T17:50:48Z</time>
      </trkpt>
      <trkpt lat="45.0902" lon="5.6196">
        <ele>1930</ele>
        <time>2014-01-31T17:50:54Z</time>
      </trkpt>
      <trkpt lat="45.09017" lon="5.61962">
        <ele>1931.199951172</ele>
        <time>2014-01-31T17:50:59Z</time>
      </trkpt>
      <trkpt lat="45.09014" lon="5.61962">
        <ele>1932.199951172</ele>
        <time>2014-01-31T17:51:04Z</time>
      </trkpt>
      <trkpt lat="45.09012" lon="5.61963">
        <ele>1933.199951172</ele>
        <time>2014-01-31T17:51:08Z</time>
      </trkpt>
      <trkpt lat="45.09009" lon="5.61964">
        <ele>1934.199951172</ele>
        <time>2014-01-31T17:51:12Z</time>
      </trkpt>
      <trkpt lat="45.09006" lon="5.61966">
        <ele>1935.599975586</ele>
        <time>2014-01-31T17:51:17Z</time>
      </trkpt>
      <trkpt lat="45.09002" lon="5.61969">
        <ele>1937.199951172</ele>
        <time>2014-01-31T17:51:23Z</time>
      </trkpt>
      <trkpt lat="45.09001" lon="5.61973">
        <ele>1938.800048828</ele>
        <time>2014-01-31T17:51:29Z</time>
      </trkpt>
      <trkpt lat="45.09" lon="5.61977">
        <ele>1939.599975586</ele>
        <time>2014-01-31T17:51:35Z</time>
      </trkpt>
      <trkpt lat="45.08998" lon="5.6198">
        <ele>1939</ele>
        <time>2014-01-31T17:51:40Z</time>
      </trkpt>
      <trkpt lat="45.08997" lon="5.61982">
        <ele>1938.800048828</ele>
        <time>2014-01-31T17:51:44Z</time>
      </trkpt>
      <trkpt lat="45.08996" lon="5.61984">
        <ele>1938.400024414</ele>
        <time>2014-01-31T17:51:48Z</time>
      </trkpt>
      <trkpt lat="45.09" lon="5.61987">
        <ele>1942.400024414</ele>
        <time>2014-01-31T17:51:54Z</time>
      </trkpt>
      <trkpt lat="45.09004" lon="5.61992">
        <ele>1942.800048828</ele>
        <time>2014-01-31T17:52:02Z</time>
      </trkpt>
      <trkpt lat="45.09007" lon="5.61996">
        <ele>1943.199951172</ele>
        <time>2014-01-31T17:52:07Z</time>
      </trkpt>
      <trkpt lat="45.09008" lon="5.62003">
        <ele>1943.400024414</ele>
        <time>2014-01-31T17:52:14Z</time>
      </trkpt>
      <trkpt lat="45.09007" lon="5.62007">
        <ele>1942.599975586</ele>
        <time>2014-01-31T17:52:20Z</time>
      </trkpt>
      <trkpt lat="45.09008" lon="5.62006">
        <ele>1942.599975586</ele>
        <time>2014-01-31T17:52:26Z</time>
      </trkpt>
      <trkpt lat="45.09008" lon="5.62006">
        <ele>1942.400024414</ele>
        <time>2014-01-31T17:52:27Z</time>
      </trkpt>
      <trkpt lat="45.09009" lon="5.62006">
        <ele>1942.400024414</ele>
        <time>2014-01-31T17:52:29Z</time>
      </trkpt>
      <trkpt lat="45.09007" lon="5.62006">
        <ele>1943</ele>
        <time>2014-01-31T17:52:41Z</time>
      </trkpt>
      <trkpt lat="45.09006" lon="5.62006">
        <ele>1943.199951172</ele>
        <time>2014-01-31T17:52:47Z</time>
      </trkpt>
      <trkpt lat="45.09006" lon="5.62006">
        <ele>1943.199951172</ele>
        <time>2014-01-31T17:52:48Z</time>
      </trkpt>
      <trkpt lat="45.09005" lon="5.62005">
        <ele>1943.400024414</ele>
        <time>2014-01-31T17:52:51Z</time>
      </trkpt>
      <trkpt lat="45.09005" lon="5.62006">
        <ele>1943.199951172</ele>
        <time>2014-01-31T17:52:54Z</time>
      </trkpt>
      <trkpt lat="45.09006" lon="5.62006">
        <ele>1943.199951172</ele>
        <time>2014-01-31T17:53:00Z</time>
      </trkpt>
      <trkpt lat="45.09006" lon="5.62006">
        <ele>1943.199951172</ele>
        <time>2014-01-31T17:53:01Z</time>
      </trkpt>
      <trkpt lat="45.09006" lon="5.62006">
        <ele>1943.199951172</ele>
        <time>2014-01-31T17:53:02Z</time>
      </trkpt>
      <trkpt lat="45.09006" lon="5.62006">
        <ele>1943</ele>
        <time>2014-01-31T17:53:03Z</time>
      </trkpt>
      <trkpt lat="45.09007" lon="5.62006">
        <ele>1943</ele>
        <time>2014-01-31T17:53:04Z</time>
      </trkpt>
      <trkpt lat="45.09007" lon="5.62006">
        <ele>1943</ele>
        <time>2014-01-31T17:53:05Z</time>
      </trkpt>
      <trkpt lat="45.09007" lon="5.62005">
        <ele>1943</ele>
        <time>2014-01-31T17:53:07Z</time>
      </trkpt>
      <trkpt lat="45.09007" lon="5.62005">
        <ele>1942.800048828</ele>
        <time>2014-01-31T17:53:08Z</time>
      </trkpt>
      <trkpt lat="45.09009" lon="5.62005">
        <ele>1942.599975586</ele>
        <time>2014-01-31T17:53:13Z</time>
      </trkpt>
      <trkpt lat="45.09008" lon="5.62006">
        <ele>1942.800048828</ele>
        <time>2014-01-31T17:53:20Z</time>
      </trkpt>
      <trkpt lat="45.09008" lon="5.62005">
        <ele>1942.800048828</ele>
        <time>2014-01-31T17:53:21Z</time>
      </trkpt>
      <trkpt lat="45.09008" lon="5.62005">
        <ele>1942.800048828</ele>
        <time>2014-01-31T17:53:23Z</time>
      </trkpt>
      <trkpt lat="45.09008" lon="5.62005">
        <ele>1942.800048828</ele>
        <time>2014-01-31T17:53:24Z</time>
      </trkpt>
      <trkpt lat="45.09008" lon="5.62005">
        <ele>1943</ele>
        <time>2014-01-31T17:53:27Z</time>
      </trkpt>
      <trkpt lat="45.09008" lon="5.62005">
        <ele>1942.800048828</ele>
        <time>2014-01-31T17:53:28Z</time>
      </trkpt>
      <trkpt lat="45.09008" lon="5.62006">
        <ele>1942.599975586</ele>
        <time>2014-01-31T17:53:37Z</time>
      </trkpt>
      <trkpt lat="45.09009" lon="5.62005">
        <ele>1942.599975586</ele>
        <time>2014-01-31T17:53:39Z</time>
      </trkpt>
      <trkpt lat="45.09009" lon="5.62005">
        <ele>1942.599975586</ele>
        <time>2014-01-31T17:53:40Z</time>
      </trkpt>
      <trkpt lat="45.0901" lon="5.62005">
        <ele>1942.400024414</ele>
        <time>2014-01-31T17:53:41Z</time>
      </trkpt>
      <trkpt lat="45.0901" lon="5.62005">
        <ele>1942.400024414</ele>
        <time>2014-01-31T17:53:42Z</time>
      </trkpt>
      <trkpt lat="45.0901" lon="5.62004">
        <ele>1942.400024414</ele>
        <time>2014-01-31T17:53:52Z</time>
      </trkpt>
      <trkpt lat="45.0901" lon="5.62004">
        <ele>1942.400024414</ele>
        <time>2014-01-31T17:53:59Z</time>
      </trkpt>
      <trkpt lat="45.0901" lon="5.62004">
        <ele>1942.400024414</ele>
        <time>2014-01-31T17:54:02Z</time>
      </trkpt>
      <trkpt lat="45.0901" lon="5.62005">
        <ele>1942.400024414</ele>
        <time>2014-01-31T17:54:09Z</time>
      </trkpt>
      <trkpt lat="45.09011" lon="5.62004">
        <ele>1942.400024414</ele>
        <time>2014-01-31T17:54:13Z</time>
      </trkpt>
      <trkpt lat="45.09011" lon="5.62005">
        <ele>1942.400024414</ele>
        <time>2014-01-31T17:54:17Z</time>
      </trkpt>
      <trkpt lat="45.09009" lon="5.62005">
        <ele>1942.599975586</ele>
        <time>2014-01-31T17:54:23Z</time>
      </trkpt>
      <trkpt lat="45.0901" lon="5.62005">
        <ele>1942.400024414</ele>
        <time>2014-01-31T17:54:27Z</time>
      </trkpt>
      <trkpt lat="45.09011" lon="5.62004">
        <ele>1942.400024414</ele>
        <time>2014-01-31T17:54:32Z</time>
      </trkpt>
      <trkpt lat="45.09011" lon="5.62004">
        <ele>1942.400024414</ele>
        <time>2014-01-31T17:54:44Z</time>
      </trkpt>
      <trkpt lat="45.0901" lon="5.62004">
        <ele>1942.400024414</ele>
        <time>2014-01-31T17:54:48Z</time>
      </trkpt>
      <trkpt lat="45.0901" lon="5.62003">
        <ele>1942.800048828</ele>
        <time>2014-01-31T17:54:52Z</time>
      </trkpt>
      <trkpt lat="45.0901" lon="5.62005">
        <ele>1942.400024414</ele>
        <time>2014-01-31T17:54:55Z</time>
      </trkpt>
      <trkpt lat="45.09009" lon="5.62005">
        <ele>1942.599975586</ele>
        <time>2014-01-31T17:54:58Z</time>
      </trkpt>
      <trkpt lat="45.09009" lon="5.62005">
        <ele>1942.599975586</ele>
        <time>2014-01-31T17:55:00Z</time>
      </trkpt>
      <trkpt lat="45.09008" lon="5.62005">
        <ele>1942.599975586</ele>
        <time>2014-01-31T17:55:01Z</time>
      </trkpt>
      <trkpt lat="45.09008" lon="5.62005">
        <ele>1942.800048828</ele>
        <time>2014-01-31T17:55:02Z</time>
      </trkpt>
      <trkpt lat="45.09008" lon="5.62005">
        <ele>1942.800048828</ele>
        <time>2014-01-31T17:55:03Z</time>
      </trkpt>
      <trkpt lat="45.09007" lon="5.62005">
        <ele>1943</ele>
        <time>2014-01-31T17:55:07Z</time>
      </trkpt>
      <trkpt lat="45.09008" lon="5.62005">
        <ele>1942.800048828</ele>
        <time>2014-01-31T17:55:09Z</time>
      </trkpt>
      <trkpt lat="45.09008" lon="5.62005">
        <ele>1942.800048828</ele>
        <time>2014-01-31T17:55:11Z</time>
      </trkpt>
      <trkpt lat="45.09007" lon="5.62006">
        <ele>1943</ele>
        <time>2014-01-31T17:55:14Z</time>
      </trkpt>
      <trkpt lat="45.09006" lon="5.62006">
        <ele>1943.199951172</ele>
        <time>2014-01-31T17:55:19Z</time>
      </trkpt>
      <trkpt lat="45.09005" lon="5.62006">
        <ele>1943.400024414</ele>
        <time>2014-01-31T17:55:25Z</time>
      </trkpt>
      <trkpt lat="45.09007" lon="5.62007">
        <ele>1942.599975586</ele>
        <time>2014-01-31T17:55:38Z</time>
      </trkpt>
      <trkpt lat="45.09009" lon="5.62006">
        <ele>1942.400024414</ele>
        <time>2014-01-31T17:55:52Z</time>
      </trkpt>
      <trkpt lat="45.0901" lon="5.62006">
        <ele>1942.199951172</ele>
        <time>2014-01-31T17:55:55Z</time>
      </trkpt>
      <trkpt lat="45.0901" lon="5.62006">
        <ele>1942.199951172</ele>
        <time>2014-01-31T17:55:57Z</time>
      </trkpt>
      <trkpt lat="45.09011" lon="5.62005">
        <ele>1942.199951172</ele>
        <time>2014-01-31T17:56:01Z</time>
      </trkpt>
      <trkpt lat="45.09012" lon="5.62005">
        <ele>1942</ele>
        <time>2014-01-31T17:56:10Z</time>
      </trkpt>
      <trkpt lat="45.09012" lon="5.62005">
        <ele>1942</ele>
        <time>2014-01-31T17:56:19Z</time>
      </trkpt>
      <trkpt lat="45.09012" lon="5.62004">
        <ele>1941.800048828</ele>
        <time>2014-01-31T17:56:22Z</time>
      </trkpt>
      <trkpt lat="45.09012" lon="5.62005">
        <ele>1942</ele>
        <time>2014-01-31T17:56:38Z</time>
      </trkpt>
      <trkpt lat="45.09013" lon="5.62004">
        <ele>1941.800048828</ele>
        <time>2014-01-31T17:56:57Z</time>
      </trkpt>
      <trkpt lat="45.09014" lon="5.62003">
        <ele>1941.800048828</ele>
        <time>2014-01-31T17:57:03Z</time>
      </trkpt>
      <trkpt lat="45.09013" lon="5.62003">
        <ele>1941.800048828</ele>
        <time>2014-01-31T17:57:06Z</time>
      </trkpt>
      <trkpt lat="45.09013" lon="5.62004">
        <ele>1942</ele>
        <time>2014-01-31T17:57:11Z</time>
      </trkpt>
      <trkpt lat="45.09013" lon="5.62004">
        <ele>1942</ele>
        <time>2014-01-31T17:57:13Z</time>
      </trkpt>
      <trkpt lat="45.09013" lon="5.62003">
        <ele>1942.199951172</ele>
        <time>2014-01-31T17:57:29Z</time>
      </trkpt>
      <trkpt lat="45.09013" lon="5.62003">
        <ele>1942.199951172</ele>
        <time>2014-01-31T17:57:30Z</time>
      </trkpt>
      <trkpt lat="45.09013" lon="5.62003">
        <ele>1942.199951172</ele>
        <time>2014-01-31T17:57:33Z</time>
      </trkpt>
      <trkpt lat="45.09012" lon="5.62004">
        <ele>1942.199951172</ele>
        <time>2014-01-31T17:57:37Z</time>
      </trkpt>
      <trkpt lat="45.09012" lon="5.62004">
        <ele>1942.199951172</ele>
        <time>2014-01-31T17:57:38Z</time>
      </trkpt>
      <trkpt lat="45.09012" lon="5.62003">
        <ele>1942.400024414</ele>
        <time>2014-01-31T17:57:39Z</time>
      </trkpt>
      <trkpt lat="45.0901" lon="5.62004">
        <ele>1942.400024414</ele>
        <time>2014-01-31T17:57:50Z</time>
      </trkpt>
      <trkpt lat="45.09011" lon="5.62004">
        <ele>1942.199951172</ele>
        <time>2014-01-31T17:57:53Z</time>
      </trkpt>
      <trkpt lat="45.09011" lon="5.62004">
        <ele>1942.400024414</ele>
        <time>2014-01-31T17:57:59Z</time>
      </trkpt>
      <trkpt lat="45.09011" lon="5.62004">
        <ele>1942.400024414</ele>
        <time>2014-01-31T17:58:01Z</time>
      </trkpt>
      <trkpt lat="45.0901" lon="5.62005">
        <ele>1942.400024414</ele>
        <time>2014-01-31T17:58:06Z</time>
      </trkpt>
      <trkpt lat="45.09009" lon="5.62005">
        <ele>1942.599975586</ele>
        <time>2014-01-31T17:58:10Z</time>
      </trkpt>
      <trkpt lat="45.09009" lon="5.62005">
        <ele>1942.599975586</ele>
        <time>2014-01-31T17:58:11Z</time>
      </trkpt>
      <trkpt lat="45.09009" lon="5.62005">
        <ele>1942.599975586</ele>
        <time>2014-01-31T17:58:12Z</time>
      </trkpt>
      <trkpt lat="45.09009" lon="5.62005">
        <ele>1942.599975586</ele>
        <time>2014-01-31T17:58:15Z</time>
      </trkpt>
      <trkpt lat="45.09008" lon="5.62005">
        <ele>1942.800048828</ele>
        <time>2014-01-31T17:58:17Z</time>
      </trkpt>
      <trkpt lat="45.09008" lon="5.62006">
        <ele>1942.599975586</ele>
        <time>2014-01-31T17:58:21Z</time>
      </trkpt>
      <trkpt lat="45.09007" lon="5.62005">
        <ele>1943</ele>
        <time>2014-01-31T17:58:23Z</time>
      </trkpt>
      <trkpt lat="45.09007" lon="5.62006">
        <ele>1943</ele>
        <time>2014-01-31T17:58:26Z</time>
      </trkpt>
      <trkpt lat="45.09011" lon="5.62006">
        <ele>1942</ele>
        <time>2014-01-31T17:58:40Z</time>
      </trkpt>
      <trkpt lat="45.09009" lon="5.62008">
        <ele>1942</ele>
        <time>2014-01-31T17:58:48Z</time>
      </trkpt>
      <trkpt lat="45.09009" lon="5.62008">
        <ele>1942</ele>
        <time>2014-01-31T17:58:50Z</time>
      </trkpt>
      <trkpt lat="45.09008" lon="5.62009">
        <ele>1942</ele>
        <time>2014-01-31T17:59:01Z</time>
      </trkpt>
      <trkpt lat="45.09007" lon="5.62008">
        <ele>1942.400024414</ele>
        <time>2014-01-31T17:59:09Z</time>
      </trkpt>
      <trkpt lat="45.09006" lon="5.62008">
        <ele>1942.599975586</ele>
        <time>2014-01-31T17:59:11Z</time>
      </trkpt>
      <trkpt lat="45.09006" lon="5.62007">
        <ele>1942.800048828</ele>
        <time>2014-01-31T17:59:16Z</time>
      </trkpt>
      <trkpt lat="45.09006" lon="5.62007">
        <ele>1942.800048828</ele>
        <time>2014-01-31T17:59:25Z</time>
      </trkpt>
      <trkpt lat="45.09006" lon="5.62007">
        <ele>1943</ele>
        <time>2014-01-31T17:59:28Z</time>
      </trkpt>
      <trkpt lat="45.09006" lon="5.62007">
        <ele>1942.800048828</ele>
        <time>2014-01-31T17:59:30Z</time>
      </trkpt>
      <trkpt lat="45.09003" lon="5.62007">
        <ele>1943.400024414</ele>
        <time>2014-01-31T17:59:45Z</time>
      </trkpt>
      <trkpt lat="45.09" lon="5.62005">
        <ele>1944.800048828</ele>
        <time>2014-01-31T18:00:00Z</time>
      </trkpt>
      <trkpt lat="45.09" lon="5.62005">
        <ele>1944.800048828</ele>
        <time>2014-01-31T18:00:02Z</time>
      </trkpt>
      <trkpt lat="45.08999" lon="5.62005">
        <ele>1945.199951172</ele>
        <time>2014-01-31T18:00:06Z</time>
      </trkpt>
      <trkpt lat="45.08999" lon="5.62005">
        <ele>1944.400024414</ele>
        <time>2014-01-31T18:00:09Z</time>
      </trkpt>
      <trkpt lat="45.08999" lon="5.62005">
        <ele>1944.400024414</ele>
        <time>2014-01-31T18:00:11Z</time>
      </trkpt>
      <trkpt lat="45.09" lon="5.62006">
        <ele>1945.800048828</ele>
        <time>2014-01-31T18:00:23Z</time>
      </trkpt>
      <trkpt lat="45.09" lon="5.62006">
        <ele>1944.400024414</ele>
        <time>2014-01-31T18:00:26Z</time>
      </trkpt>
      <trkpt lat="45.09001" lon="5.62006">
        <ele>1944.199951172</ele>
        <time>2014-01-31T18:00:29Z</time>
      </trkpt>
      <trkpt lat="45.09002" lon="5.62008">
        <ele>1943.599975586</ele>
        <time>2014-01-31T18:00:34Z</time>
      </trkpt>
      <trkpt lat="45.09002" lon="5.62008">
        <ele>1943.400024414</ele>
        <time>2014-01-31T18:00:37Z</time>
      </trkpt>
      <trkpt lat="45.09002" lon="5.62009">
        <ele>1943.400024414</ele>
        <time>2014-01-31T18:00:43Z</time>
      </trkpt>
      <trkpt lat="45.09002" lon="5.62009">
        <ele>1943.199951172</ele>
        <time>2014-01-31T18:00:44Z</time>
      </trkpt>
      <trkpt lat="45.09002" lon="5.62009">
        <ele>1943.199951172</ele>
        <time>2014-01-31T18:00:46Z</time>
      </trkpt>
      <trkpt lat="45.09002" lon="5.6201">
        <ele>1943</ele>
        <time>2014-01-31T18:00:52Z</time>
      </trkpt>
      <trkpt lat="45.09003" lon="5.6201">
        <ele>1943</ele>
        <time>2014-01-31T18:00:56Z</time>
      </trkpt>
      <trkpt lat="45.09002" lon="5.62008">
        <ele>1943.599975586</ele>
        <time>2014-01-31T18:00:59Z</time>
      </trkpt>
      <trkpt lat="45.09002" lon="5.62006">
        <ele>1944</ele>
        <time>2014-01-31T18:01:03Z</time>
      </trkpt>
      <trkpt lat="45.09004" lon="5.62004">
        <ele>1944</ele>
        <time>2014-01-31T18:01:11Z</time>
      </trkpt>
      <trkpt lat="45.09005" lon="5.62004">
        <ele>1943.800048828</ele>
        <time>2014-01-31T18:01:13Z</time>
      </trkpt>
      <trkpt lat="45.09006" lon="5.62002">
        <ele>1944</ele>
        <time>2014-01-31T18:01:20Z</time>
      </trkpt>
      <trkpt lat="45.09008" lon="5.62006">
        <ele>1942.800048828</ele>
        <time>2014-01-31T18:01:26Z</time>
      </trkpt>
      <trkpt lat="45.09009" lon="5.62006">
        <ele>1942.599975586</ele>
        <time>2014-01-31T18:01:27Z</time>
      </trkpt>
      <trkpt lat="45.09009" lon="5.62004">
        <ele>1942.800048828</ele>
        <time>2014-01-31T18:01:41Z</time>
      </trkpt>
      <trkpt lat="45.0901" lon="5.62004">
        <ele>1942.800048828</ele>
        <time>2014-01-31T18:01:45Z</time>
      </trkpt>
      <trkpt lat="45.0901" lon="5.62004">
        <ele>1942.800048828</ele>
        <time>2014-01-31T18:01:46Z</time>
      </trkpt>
      <trkpt lat="45.0901" lon="5.62003">
        <ele>1942.800048828</ele>
        <time>2014-01-31T18:01:47Z</time>
      </trkpt>
      <trkpt lat="45.0901" lon="5.62003">
        <ele>1942.800048828</ele>
        <time>2014-01-31T18:01:50Z</time>
      </trkpt>
      <trkpt lat="45.09011" lon="5.62003">
        <ele>1942.599975586</ele>
        <time>2014-01-31T18:01:56Z</time>
      </trkpt>
      <trkpt lat="45.09011" lon="5.62003">
        <ele>1942.599975586</ele>
        <time>2014-01-31T18:02:01Z</time>
      </trkpt>
      <trkpt lat="45.09012" lon="5.62003">
        <ele>1942.400024414</ele>
        <time>2014-01-31T18:02:05Z</time>
      </trkpt>
      <trkpt lat="45.09012" lon="5.62003">
        <ele>1942.400024414</ele>
        <time>2014-01-31T18:02:06Z</time>
      </trkpt>
      <trkpt lat="45.09012" lon="5.62003">
        <ele>1942.400024414</ele>
        <time>2014-01-31T18:02:07Z</time>
      </trkpt>
      <trkpt lat="45.09012" lon="5.62003">
        <ele>1942.400024414</ele>
        <time>2014-01-31T18:02:08Z</time>
      </trkpt>
      <trkpt lat="45.09012" lon="5.62003">
        <ele>1942.400024414</ele>
        <time>2014-01-31T18:02:11Z</time>
      </trkpt>
      <trkpt lat="45.09012" lon="5.62002">
        <ele>1942.599975586</ele>
        <time>2014-01-31T18:02:14Z</time>
      </trkpt>
      <trkpt lat="45.09012" lon="5.62002">
        <ele>1942.599975586</ele>
        <time>2014-01-31T18:02:18Z</time>
      </trkpt>
      <trkpt lat="45.09012" lon="5.62002">
        <ele>1942.599975586</ele>
        <time>2014-01-31T18:02:19Z</time>
      </trkpt>
      <trkpt lat="45.09012" lon="5.62002">
        <ele>1942.599975586</ele>
        <time>2014-01-31T18:02:30Z</time>
      </trkpt>
      <trkpt lat="45.09012" lon="5.62002">
        <ele>1942.599975586</ele>
        <time>2014-01-31T18:02:31Z</time>
      </trkpt>
      <trkpt lat="45.09013" lon="5.62002">
        <ele>1942.400024414</ele>
        <time>2014-01-31T18:02:37Z</time>
      </trkpt>
      <trkpt lat="45.09013" lon="5.62002">
        <ele>1942.199951172</ele>
        <time>2014-01-31T18:02:38Z</time>
      </trkpt>
      <trkpt lat="45.09013" lon="5.62002">
        <ele>1942.199951172</ele>
        <time>2014-01-31T18:02:39Z</time>
      </trkpt>
      <trkpt lat="45.09013" lon="5.62002">
        <ele>1942.199951172</ele>
        <time>2014-01-31T18:02:43Z</time>
      </trkpt>
      <trkpt lat="45.09014" lon="5.62003">
        <ele>1941.800048828</ele>
        <time>2014-01-31T18:02:48Z</time>
      </trkpt>
      <trkpt lat="45.09014" lon="5.62003">
        <ele>1942</ele>
        <time>2014-01-31T18:02:50Z</time>
      </trkpt>
      <trkpt lat="45.09014" lon="5.62003">
        <ele>1941.800048828</ele>
        <time>2014-01-31T18:02:55Z</time>
      </trkpt>
      <trkpt lat="45.09014" lon="5.62003">
        <ele>1941.800048828</ele>
        <time>2014-01-31T18:02:59Z</time>
      </trkpt>
      <trkpt lat="45.09015" lon="5.62002">
        <ele>1941.800048828</ele>
        <time>2014-01-31T18:03:00Z</time>
      </trkpt>
      <trkpt lat="45.09015" lon="5.62002">
        <ele>1942</ele>
        <time>2014-01-31T18:03:01Z</time>
      </trkpt>
      <trkpt lat="45.09015" lon="5.62002">
        <ele>1941.800048828</ele>
        <time>2014-01-31T18:03:04Z</time>
      </trkpt>
      <trkpt lat="45.09015" lon="5.62002">
        <ele>1941.800048828</ele>
        <time>2014-01-31T18:03:06Z</time>
      </trkpt>
      <trkpt lat="45.09015" lon="5.62002">
        <ele>1941.800048828</ele>
        <time>2014-01-31T18:03:08Z</time>
      </trkpt>
      <trkpt lat="45.09015" lon="5.62003">
        <ele>1941.599975586</ele>
        <time>2014-01-31T18:03:12Z</time>
      </trkpt>
      <trkpt lat="45.09016" lon="5.62003">
        <ele>1941.400024414</ele>
        <time>2014-01-31T18:03:22Z</time>
      </trkpt>
      <trkpt lat="45.09015" lon="5.62003">
        <ele>1941.400024414</ele>
        <time>2014-01-31T18:03:28Z</time>
      </trkpt>
      <trkpt lat="45.09016" lon="5.62003">
        <ele>1941.400024414</ele>
        <time>2014-01-31T18:03:30Z</time>
      </trkpt>
      <trkpt lat="45.09015" lon="5.62003">
        <ele>1941.599975586</ele>
        <time>2014-01-31T18:03:34Z</time>
      </trkpt>
      <trkpt lat="45.09015" lon="5.62003">
        <ele>1941.599975586</ele>
        <time>2014-01-31T18:03:35Z</time>
      </trkpt>
      <trkpt lat="45.09016" lon="5.62003">
        <ele>1941.400024414</ele>
        <time>2014-01-31T18:03:36Z</time>
      </trkpt>
      <trkpt lat="45.09016" lon="5.62003">
        <ele>1941.599975586</ele>
        <time>2014-01-31T18:03:37Z</time>
      </trkpt>
      <trkpt lat="45.09015" lon="5.62003">
        <ele>1941.599975586</ele>
        <time>2014-01-31T18:03:47Z</time>
      </trkpt>
      <trkpt lat="45.09015" lon="5.62002">
        <ele>1941.800048828</ele>
        <time>2014-01-31T18:03:48Z</time>
      </trkpt>
      <trkpt lat="45.09015" lon="5.62003">
        <ele>1941.599975586</ele>
        <time>2014-01-31T18:03:50Z</time>
      </trkpt>
      <trkpt lat="45.09015" lon="5.62003">
        <ele>1941.599975586</ele>
        <time>2014-01-31T18:03:53Z</time>
      </trkpt>
      <trkpt lat="45.09015" lon="5.62002">
        <ele>1941.800048828</ele>
        <time>2014-01-31T18:03:56Z</time>
      </trkpt>
      <trkpt lat="45.09015" lon="5.62002">
        <ele>1941.800048828</ele>
        <time>2014-01-31T18:03:59Z</time>
      </trkpt>
      <trkpt lat="45.09015" lon="5.62002">
        <ele>1941.800048828</ele>
        <time>2014-01-31T18:04:02Z</time>
      </trkpt>
      <trkpt lat="45.09015" lon="5.62002">
        <ele>1941.800048828</ele>
        <time>2014-01-31T18:04:09Z</time>
      </trkpt>
      <trkpt lat="45.09015" lon="5.62002">
        <ele>1941.800048828</ele>
        <time>2014-01-31T18:04:12Z</time>
      </trkpt>
      <trkpt lat="45.09014" lon="5.62002">
        <ele>1942</ele>
        <time>2014-01-31T18:04:16Z</time>
      </trkpt>
      <trkpt lat="45.09013" lon="5.62002">
        <ele>1942.400024414</ele>
        <time>2014-01-31T18:04:26Z</time>
      </trkpt>
      <trkpt lat="45.09013" lon="5.62002">
        <ele>1942.400024414</ele>
        <time>2014-01-31T18:04:27Z</time>
      </trkpt>
      <trkpt lat="45.09012" lon="5.61997">
        <ele>1942</ele>
        <time>2014-01-31T18:04:29Z</time>
      </trkpt>
      <trkpt lat="45.09011" lon="5.61995">
        <ele>1942</ele>
        <time>2014-01-31T18:04:30Z</time>
      </trkpt>
      <trkpt lat="45.09009" lon="5.61994">
        <ele>1942</ele>
        <time>2014-01-31T18:04:31Z</time>
      </trkpt>
      <trkpt lat="45.09007" lon="5.61993">
        <ele>1942.400024414</ele>
        <time>2014-01-31T18:04:34Z</time>
      </trkpt>
      <trkpt lat="45.09007" lon="5.61991">
        <ele>1942</ele>
        <time>2014-01-31T18:04:35Z</time>
      </trkpt>
      <trkpt lat="45.09007" lon="5.61992">
        <ele>1942.199951172</ele>
        <time>2014-01-31T18:04:41Z</time>
      </trkpt>
      <trkpt lat="45.09005" lon="5.61992">
        <ele>1942.599975586</ele>
        <time>2014-01-31T18:04:42Z</time>
      </trkpt>
      <trkpt lat="45.09" lon="5.61986">
        <ele>1942.400024414</ele>
        <time>2014-01-31T18:04:46Z</time>
      </trkpt>
      <trkpt lat="45.08995" lon="5.61983">
        <ele>1937.800048828</ele>
        <time>2014-01-31T18:04:48Z</time>
      </trkpt>
      <trkpt lat="45.08991" lon="5.61982">
        <ele>1933.800048828</ele>
        <time>2014-01-31T18:04:50Z</time>
      </trkpt>
      <trkpt lat="45.08986" lon="5.61981">
        <ele>1930</ele>
        <time>2014-01-31T18:04:52Z</time>
      </trkpt>
      <trkpt lat="45.08971" lon="5.61975">
        <ele>1918.800048828</ele>
        <time>2014-01-31T18:04:57Z</time>
      </trkpt>
      <trkpt lat="45.0896" lon="5.61976">
        <ele>1910.800048828</ele>
        <time>2014-01-31T18:05:00Z</time>
      </trkpt>
      <trkpt lat="45.08948" lon="5.61972">
        <ele>1903.400024414</ele>
        <time>2014-01-31T18:05:04Z</time>
      </trkpt>
      <trkpt lat="45.0894" lon="5.61964">
        <ele>1901.400024414</ele>
        <time>2014-01-31T18:05:07Z</time>
      </trkpt>
      <trkpt lat="45.08929" lon="5.61967">
        <ele>1893.199951172</ele>
        <time>2014-01-31T18:05:10Z</time>
      </trkpt>
      <trkpt lat="45.08908" lon="5.61954">
        <ele>1886.199951172</ele>
        <time>2014-01-31T18:05:13Z</time>
      </trkpt>
      <trkpt lat="45.08902" lon="5.61944">
        <ele>1885.599975586</ele>
        <time>2014-01-31T18:05:14Z</time>
      </trkpt>
      <trkpt lat="45.08895" lon="5.61928">
        <ele>1891.400024414</ele>
        <time>2014-01-31T18:05:16Z</time>
      </trkpt>
      <trkpt lat="45.08894" lon="5.61918">
        <ele>1899</ele>
        <time>2014-01-31T18:05:18Z</time>
      </trkpt>
      <trkpt lat="45.08894" lon="5.61914">
        <ele>1900.199951172</ele>
        <time>2014-01-31T18:05:19Z</time>
      </trkpt>
      <trkpt lat="45.08895" lon="5.6191">
        <ele>1901</ele>
        <time>2014-01-31T18:05:20Z</time>
      </trkpt>
      <trkpt lat="45.08894" lon="5.61899">
        <ele>1901</ele>
        <time>2014-01-31T18:05:22Z</time>
      </trkpt>
      <trkpt lat="45.08892" lon="5.61891">
        <ele>1900.800048828</ele>
        <time>2014-01-31T18:05:24Z</time>
      </trkpt>
      <trkpt lat="45.0889" lon="5.6188">
        <ele>1901</ele>
        <time>2014-01-31T18:05:28Z</time>
      </trkpt>
      <trkpt lat="45.0889" lon="5.61878">
        <ele>1901.199951172</ele>
        <time>2014-01-31T18:05:30Z</time>
      </trkpt>
      <trkpt lat="45.08889" lon="5.61874">
        <ele>1901.599975586</ele>
        <time>2014-01-31T18:05:32Z</time>
      </trkpt>
      <trkpt lat="45.0889" lon="5.6187">
        <ele>1902.400024414</ele>
        <time>2014-01-31T18:05:36Z</time>
      </trkpt>
      <trkpt lat="45.08888" lon="5.61865">
        <ele>1902.400024414</ele>
        <time>2014-01-31T18:05:41Z</time>
      </trkpt>
      <trkpt lat="45.08884" lon="5.61856">
        <ele>1903.199951172</ele>
        <time>2014-01-31T18:05:46Z</time>
      </trkpt>
      <trkpt lat="45.08881" lon="5.61848">
        <ele>1904.400024414</ele>
        <time>2014-01-31T18:05:49Z</time>
      </trkpt>
      <trkpt lat="45.0888" lon="5.61847">
        <ele>1904.599975586</ele>
        <time>2014-01-31T18:05:50Z</time>
      </trkpt>
      <trkpt lat="45.08877" lon="5.6184">
        <ele>1906.199951172</ele>
        <time>2014-01-31T18:05:54Z</time>
      </trkpt>
      <trkpt lat="45.0887" lon="5.61827">
        <ele>1907.400024414</ele>
        <time>2014-01-31T18:05:58Z</time>
      </trkpt>
      <trkpt lat="45.08861" lon="5.61814">
        <ele>1905.599975586</ele>
        <time>2014-01-31T18:06:02Z</time>
      </trkpt>
      <trkpt lat="45.08853" lon="5.61793">
        <ele>1902.800048828</ele>
        <time>2014-01-31T18:06:07Z</time>
      </trkpt>
      <trkpt lat="45.0886" lon="5.61777">
        <ele>1898.800048828</ele>
        <time>2014-01-31T18:06:11Z</time>
      </trkpt>
      <trkpt lat="45.08864" lon="5.61765">
        <ele>1896</ele>
        <time>2014-01-31T18:06:14Z</time>
      </trkpt>
      <trkpt lat="45.08868" lon="5.61754">
        <ele>1892.400024414</ele>
        <time>2014-01-31T18:06:18Z</time>
      </trkpt>
      <trkpt lat="45.08869" lon="5.61754">
        <ele>1892.400024414</ele>
        <time>2014-01-31T18:06:24Z</time>
      </trkpt>
      <trkpt lat="45.0887" lon="5.61755">
        <ele>1892.400024414</ele>
        <time>2014-01-31T18:06:35Z</time>
      </trkpt>
      <trkpt lat="45.0887" lon="5.61755">
        <ele>1892.400024414</ele>
        <time>2014-01-31T18:06:43Z</time>
      </trkpt>
      <trkpt lat="45.0887" lon="5.61755">
        <ele>1892.400024414</ele>
        <time>2014-01-31T18:06:45Z</time>
      </trkpt>
      <trkpt lat="45.08874" lon="5.61755">
        <ele>1891.400024414</ele>
        <time>2014-01-31T18:06:48Z</time>
      </trkpt>
      <trkpt lat="45.0888" lon="5.61754">
        <ele>1889.800048828</ele>
        <time>2014-01-31T18:06:50Z</time>
      </trkpt>
      <trkpt lat="45.08883" lon="5.61744">
        <ele>1886.199951172</ele>
        <time>2014-01-31T18:06:53Z</time>
      </trkpt>
      <trkpt lat="45.08884" lon="5.61743">
        <ele>1885.599975586</ele>
        <time>2014-01-31T18:06:54Z</time>
      </trkpt>
      <trkpt lat="45.08886" lon="5.61735">
        <ele>1882.599975586</ele>
        <time>2014-01-31T18:06:57Z</time>
      </trkpt>
      <trkpt lat="45.08886" lon="5.61735">
        <ele>1883</ele>
        <time>2014-01-31T18:06:58Z</time>
      </trkpt>
      <trkpt lat="45.08886" lon="5.61736">
        <ele>1883.199951172</ele>
        <time>2014-01-31T18:07:00Z</time>
      </trkpt>
      <trkpt lat="45.08886" lon="5.61736">
        <ele>1883.199951172</ele>
        <time>2014-01-31T18:07:01Z</time>
      </trkpt>
      <trkpt lat="45.08886" lon="5.61736">
        <ele>1883.400024414</ele>
        <time>2014-01-31T18:07:05Z</time>
      </trkpt>
      <trkpt lat="45.08886" lon="5.61735">
        <ele>1882.800048828</ele>
        <time>2014-01-31T18:07:08Z</time>
      </trkpt>
      <trkpt lat="45.08885" lon="5.61736">
        <ele>1883.199951172</ele>
        <time>2014-01-31T18:07:09Z</time>
      </trkpt>
      <trkpt lat="45.08883" lon="5.61732">
        <ele>1882.800048828</ele>
        <time>2014-01-31T18:07:15Z</time>
      </trkpt>
      <trkpt lat="45.08876" lon="5.61722">
        <ele>1882</ele>
        <time>2014-01-31T18:07:19Z</time>
      </trkpt>
      <trkpt lat="45.08863" lon="5.617">
        <ele>1880.400024414</ele>
        <time>2014-01-31T18:07:24Z</time>
      </trkpt>
      <trkpt lat="45.08861" lon="5.61696">
        <ele>1880</ele>
        <time>2014-01-31T18:07:25Z</time>
      </trkpt>
      <trkpt lat="45.08858" lon="5.61691">
        <ele>1879.599975586</ele>
        <time>2014-01-31T18:07:26Z</time>
      </trkpt>
      <trkpt lat="45.08851" lon="5.6167">
        <ele>1877.400024414</ele>
        <time>2014-01-31T18:07:29Z</time>
      </trkpt>
      <trkpt lat="45.0885" lon="5.61662">
        <ele>1875.599975586</ele>
        <time>2014-01-31T18:07:30Z</time>
      </trkpt>
      <trkpt lat="45.08847" lon="5.61639">
        <ele>1870</ele>
        <time>2014-01-31T18:07:33Z</time>
      </trkpt>
      <trkpt lat="45.08845" lon="5.61633">
        <ele>1868.800048828</ele>
        <time>2014-01-31T18:07:34Z</time>
      </trkpt>
      <trkpt lat="45.08842" lon="5.6162">
        <ele>1866</ele>
        <time>2014-01-31T18:07:38Z</time>
      </trkpt>
      <trkpt lat="45.08842" lon="5.61617">
        <ele>1865.199951172</ele>
        <time>2014-01-31T18:07:39Z</time>
      </trkpt>
      <trkpt lat="45.08842" lon="5.61593">
        <ele>1857.800048828</ele>
        <time>2014-01-31T18:07:46Z</time>
      </trkpt>
      <trkpt lat="45.08848" lon="5.61583">
        <ele>1853</ele>
        <time>2014-01-31T18:07:49Z</time>
      </trkpt>
      <trkpt lat="45.08852" lon="5.61576">
        <ele>1850.199951172</ele>
        <time>2014-01-31T18:07:51Z</time>
      </trkpt>
      <trkpt lat="45.08859" lon="5.61557">
        <ele>1843.599975586</ele>
        <time>2014-01-31T18:07:56Z</time>
      </trkpt>
      <trkpt lat="45.08863" lon="5.61553">
        <ele>1841.199951172</ele>
        <time>2014-01-31T18:07:59Z</time>
      </trkpt>
      <trkpt lat="45.08863" lon="5.61554">
        <ele>1841.400024414</ele>
        <time>2014-01-31T18:08:04Z</time>
      </trkpt>
      <trkpt lat="45.08862" lon="5.61555">
        <ele>1841.800048828</ele>
        <time>2014-01-31T18:08:08Z</time>
      </trkpt>
      <trkpt lat="45.08863" lon="5.61555">
        <ele>1841.800048828</ele>
        <time>2014-01-31T18:08:09Z</time>
      </trkpt>
      <trkpt lat="45.08865" lon="5.61556">
        <ele>1841.400024414</ele>
        <time>2014-01-31T18:08:25Z</time>
      </trkpt>
      <trkpt lat="45.08865" lon="5.61556">
        <ele>1841.400024414</ele>
        <time>2014-01-31T18:08:34Z</time>
      </trkpt>
      <trkpt lat="45.08866" lon="5.61556">
        <ele>1841.199951172</ele>
        <time>2014-01-31T18:08:36Z</time>
      </trkpt>
      <trkpt lat="45.08867" lon="5.61557">
        <ele>1841</ele>
        <time>2014-01-31T18:08:42Z</time>
      </trkpt>
      <trkpt lat="45.08867" lon="5.61557">
        <ele>1841.199951172</ele>
        <time>2014-01-31T18:08:44Z</time>
      </trkpt>
      <trkpt lat="45.08867" lon="5.61556">
        <ele>1840.800048828</ele>
        <time>2014-01-31T18:08:45Z</time>
      </trkpt>
      <trkpt lat="45.08864" lon="5.61556">
        <ele>1841.599975586</ele>
        <time>2014-01-31T18:08:52Z</time>
      </trkpt>
      <trkpt lat="45.08864" lon="5.61557">
        <ele>1842</ele>
        <time>2014-01-31T18:08:59Z</time>
      </trkpt>
      <trkpt lat="45.08865" lon="5.61557">
        <ele>1841.599975586</ele>
        <time>2014-01-31T18:09:07Z</time>
      </trkpt>
      <trkpt lat="45.08866" lon="5.61557">
        <ele>1841.199951172</ele>
        <time>2014-01-31T18:09:10Z</time>
      </trkpt>
      <trkpt lat="45.08868" lon="5.61557">
        <ele>1840.599975586</ele>
        <time>2014-01-31T18:09:12Z</time>
      </trkpt>
      <trkpt lat="45.0887" lon="5.61555">
        <ele>1839.599975586</ele>
        <time>2014-01-31T18:09:13Z</time>
      </trkpt>
      <trkpt lat="45.08875" lon="5.61545">
        <ele>1835.800048828</ele>
        <time>2014-01-31T18:09:16Z</time>
      </trkpt>
      <trkpt lat="45.08878" lon="5.61536">
        <ele>1832.800048828</ele>
        <time>2014-01-31T18:09:18Z</time>
      </trkpt>
      <trkpt lat="45.08879" lon="5.61517">
        <ele>1828.199951172</ele>
        <time>2014-01-31T18:09:21Z</time>
      </trkpt>
      <trkpt lat="45.08881" lon="5.61505">
        <ele>1825</ele>
        <time>2014-01-31T18:09:23Z</time>
      </trkpt>
      <trkpt lat="45.08888" lon="5.61491">
        <ele>1819.800048828</ele>
        <time>2014-01-31T18:09:26Z</time>
      </trkpt>
      <trkpt lat="45.08891" lon="5.61486">
        <ele>1817.800048828</ele>
        <time>2014-01-31T18:09:27Z</time>
      </trkpt>
      <trkpt lat="45.08895" lon="5.61475">
        <ele>1814.199951172</ele>
        <time>2014-01-31T18:09:29Z</time>
      </trkpt>
      <trkpt lat="45.08899" lon="5.61464">
        <ele>1810.599975586</ele>
        <time>2014-01-31T18:09:31Z</time>
      </trkpt>
      <trkpt lat="45.08899" lon="5.6146">
        <ele>1809.400024414</ele>
        <time>2014-01-31T18:09:32Z</time>
      </trkpt>
      <trkpt lat="45.08902" lon="5.61449">
        <ele>1806</ele>
        <time>2014-01-31T18:09:34Z</time>
      </trkpt>
      <trkpt lat="45.089" lon="5.61443">
        <ele>1805</ele>
        <time>2014-01-31T18:09:35Z</time>
      </trkpt>
      <trkpt lat="45.08897" lon="5.6143">
        <ele>1803</ele>
        <time>2014-01-31T18:09:37Z</time>
      </trkpt>
      <trkpt lat="45.08891" lon="5.61411">
        <ele>1800.199951172</ele>
        <time>2014-01-31T18:09:40Z</time>
      </trkpt>
      <trkpt lat="45.0889" lon="5.61407">
        <ele>1800</ele>
        <time>2014-01-31T18:09:41Z</time>
      </trkpt>
      <trkpt lat="45.08885" lon="5.61388">
        <ele>1798.400024414</ele>
        <time>2014-01-31T18:09:45Z</time>
      </trkpt>
      <trkpt lat="45.08878" lon="5.61362">
        <ele>1795.599975586</ele>
        <time>2014-01-31T18:09:48Z</time>
      </trkpt>
      <trkpt lat="45.08876" lon="5.61353">
        <ele>1794.800048828</ele>
        <time>2014-01-31T18:09:49Z</time>
      </trkpt>
      <trkpt lat="45.08871" lon="5.61324">
        <ele>1790.199951172</ele>
        <time>2014-01-31T18:09:52Z</time>
      </trkpt>
      <trkpt lat="45.08871" lon="5.61314">
        <ele>1788.199951172</ele>
        <time>2014-01-31T18:09:53Z</time>
      </trkpt>
      <trkpt lat="45.0887" lon="5.61298">
        <ele>1784.400024414</ele>
        <time>2014-01-31T18:09:55Z</time>
      </trkpt>
      <trkpt lat="45.08871" lon="5.61285">
        <ele>1781.199951172</ele>
        <time>2014-01-31T18:09:57Z</time>
      </trkpt>
      <trkpt lat="45.0887" lon="5.61275">
        <ele>1779.199951172</ele>
        <time>2014-01-31T18:09:59Z</time>
      </trkpt>
      <trkpt lat="45.08868" lon="5.61268">
        <ele>1778</ele>
        <time>2014-01-31T18:10:01Z</time>
      </trkpt>
      <trkpt lat="45.08866" lon="5.61261">
        <ele>1777.199951172</ele>
        <time>2014-01-31T18:10:03Z</time>
      </trkpt>
      <trkpt lat="45.08862" lon="5.6125">
        <ele>1775.800048828</ele>
        <time>2014-01-31T18:10:06Z</time>
      </trkpt>
      <trkpt lat="45.0886" lon="5.61222">
        <ele>1770.800048828</ele>
        <time>2014-01-31T18:10:10Z</time>
      </trkpt>
      <trkpt lat="45.08865" lon="5.61203">
        <ele>1764.599975586</ele>
        <time>2014-01-31T18:10:13Z</time>
      </trkpt>
      <trkpt lat="45.08868" lon="5.61198">
        <ele>1762.599975586</ele>
        <time>2014-01-31T18:10:14Z</time>
      </trkpt>
      <trkpt lat="45.08882" lon="5.61183">
        <ele>1753.199951172</ele>
        <time>2014-01-31T18:10:18Z</time>
      </trkpt>
      <trkpt lat="45.08885" lon="5.6118">
        <ele>1751.199951172</ele>
        <time>2014-01-31T18:10:19Z</time>
      </trkpt>
      <trkpt lat="45.08889" lon="5.61175">
        <ele>1748.199951172</ele>
        <time>2014-01-31T18:10:20Z</time>
      </trkpt>
      <trkpt lat="45.08895" lon="5.61157">
        <ele>1741.199951172</ele>
        <time>2014-01-31T18:10:23Z</time>
      </trkpt>
      <trkpt lat="45.08899" lon="5.61145">
        <ele>1736.400024414</ele>
        <time>2014-01-31T18:10:25Z</time>
      </trkpt>
      <trkpt lat="45.08902" lon="5.61138">
        <ele>1733.199951172</ele>
        <time>2014-01-31T18:10:26Z</time>
      </trkpt>
      <trkpt lat="45.08905" lon="5.61133">
        <ele>1730.400024414</ele>
        <time>2014-01-31T18:10:27Z</time>
      </trkpt>
      <trkpt lat="45.08907" lon="5.61133">
        <ele>1729</ele>
        <time>2014-01-31T18:10:28Z</time>
      </trkpt>
      <trkpt lat="45.08907" lon="5.61134">
        <ele>1729.400024414</ele>
        <time>2014-01-31T18:10:29Z</time>
      </trkpt>
      <trkpt lat="45.08906" lon="5.61135">
        <ele>1730.400024414</ele>
        <time>2014-01-31T18:10:33Z</time>
      </trkpt>
      <trkpt lat="45.08905" lon="5.61136">
        <ele>1731</ele>
        <time>2014-01-31T18:10:36Z</time>
      </trkpt>
      <trkpt lat="45.08904" lon="5.61136">
        <ele>1731.199951172</ele>
        <time>2014-01-31T18:10:40Z</time>
      </trkpt>
      <trkpt lat="45.08907" lon="5.61137">
        <ele>1730.199951172</ele>
        <time>2014-01-31T18:10:46Z</time>
      </trkpt>
      <trkpt lat="45.08909" lon="5.61137">
        <ele>1729.599975586</ele>
        <time>2014-01-31T18:10:51Z</time>
      </trkpt>
      <trkpt lat="45.08908" lon="5.61138">
        <ele>1730.199951172</ele>
        <time>2014-01-31T18:10:58Z</time>
      </trkpt>
      <trkpt lat="45.0891" lon="5.61137">
        <ele>1729.199951172</ele>
        <time>2014-01-31T18:11:03Z</time>
      </trkpt>
      <trkpt lat="45.08915" lon="5.61133">
        <ele>1725.400024414</ele>
        <time>2014-01-31T18:11:05Z</time>
      </trkpt>
      <trkpt lat="45.08922" lon="5.61125">
        <ele>1721.199951172</ele>
        <time>2014-01-31T18:11:07Z</time>
      </trkpt>
      <trkpt lat="45.08933" lon="5.6112">
        <ele>1717</ele>
        <time>2014-01-31T18:11:09Z</time>
      </trkpt>
      <trkpt lat="45.0895" lon="5.61099">
        <ele>1707</ele>
        <time>2014-01-31T18:11:13Z</time>
      </trkpt>
      <trkpt lat="45.08965" lon="5.61079">
        <ele>1697.599975586</ele>
        <time>2014-01-31T18:11:17Z</time>
      </trkpt>
      <trkpt lat="45.08977" lon="5.61062">
        <ele>1690.800048828</ele>
        <time>2014-01-31T18:11:20Z</time>
      </trkpt>
      <trkpt lat="45.08979" lon="5.61058">
        <ele>1689.199951172</ele>
        <time>2014-01-31T18:11:21Z</time>
      </trkpt>
      <trkpt lat="45.08982" lon="5.61047">
        <ele>1685.800048828</ele>
        <time>2014-01-31T18:11:25Z</time>
      </trkpt>
      <trkpt lat="45.0898" lon="5.61048">
        <ele>1686.599975586</ele>
        <time>2014-01-31T18:11:29Z</time>
      </trkpt>
      <trkpt lat="45.0898" lon="5.61048">
        <ele>1686.800048828</ele>
        <time>2014-01-31T18:11:31Z</time>
      </trkpt>
      <trkpt lat="45.08977" lon="5.61049">
        <ele>1687.599975586</ele>
        <time>2014-01-31T18:11:35Z</time>
      </trkpt>
      <trkpt lat="45.08977" lon="5.61049">
        <ele>1687.599975586</ele>
        <time>2014-01-31T18:11:37Z</time>
      </trkpt>
      <trkpt lat="45.0898" lon="5.61047">
        <ele>1686.199951172</ele>
        <time>2014-01-31T18:11:40Z</time>
      </trkpt>
      <trkpt lat="45.08982" lon="5.61045">
        <ele>1685.199951172</ele>
        <time>2014-01-31T18:11:41Z</time>
      </trkpt>
      <trkpt lat="45.08991" lon="5.61019">
        <ele>1676.400024414</ele>
        <time>2014-01-31T18:11:45Z</time>
      </trkpt>
      <trkpt lat="45.08994" lon="5.61002">
        <ele>1671.199951172</ele>
        <time>2014-01-31T18:11:47Z</time>
      </trkpt>
      <trkpt lat="45.08997" lon="5.60996">
        <ele>1669.199951172</ele>
        <time>2014-01-31T18:11:48Z</time>
      </trkpt>
      <trkpt lat="45.09008" lon="5.60974">
        <ele>1664.599975586</ele>
        <time>2014-01-31T18:11:52Z</time>
      </trkpt>
      <trkpt lat="45.09016" lon="5.60965">
        <ele>1662.800048828</ele>
        <time>2014-01-31T18:11:55Z</time>
      </trkpt>
      <trkpt lat="45.09019" lon="5.60962">
        <ele>1662.400024414</ele>
        <time>2014-01-31T18:11:56Z</time>
      </trkpt>
      <trkpt lat="45.09023" lon="5.60957">
        <ele>1661.400024414</ele>
        <time>2014-01-31T18:11:57Z</time>
      </trkpt>
      <trkpt lat="45.09028" lon="5.60942">
        <ele>1658.199951172</ele>
        <time>2014-01-31T18:11:59Z</time>
      </trkpt>
      <trkpt lat="45.09032" lon="5.60915">
        <ele>1653</ele>
        <time>2014-01-31T18:12:02Z</time>
      </trkpt>
      <trkpt lat="45.09035" lon="5.60908">
        <ele>1652</ele>
        <time>2014-01-31T18:12:03Z</time>
      </trkpt>
      <trkpt lat="45.09037" lon="5.609">
        <ele>1651.199951172</ele>
        <time>2014-01-31T18:12:04Z</time>
      </trkpt>
      <trkpt lat="45.0904" lon="5.60892">
        <ele>1650</ele>
        <time>2014-01-31T18:12:05Z</time>
      </trkpt>
      <trkpt lat="45.09049" lon="5.60878">
        <ele>1647.400024414</ele>
        <time>2014-01-31T18:12:07Z</time>
      </trkpt>
      <trkpt lat="45.09054" lon="5.60873">
        <ele>1646.199951172</ele>
        <time>2014-01-31T18:12:08Z</time>
      </trkpt>
      <trkpt lat="45.0906" lon="5.60867">
        <ele>1644.400024414</ele>
        <time>2014-01-31T18:12:10Z</time>
      </trkpt>
      <trkpt lat="45.09062" lon="5.60868">
        <ele>1644.199951172</ele>
        <time>2014-01-31T18:12:13Z</time>
      </trkpt>
      <trkpt lat="45.09062" lon="5.60868">
        <ele>1644.400024414</ele>
        <time>2014-01-31T18:12:16Z</time>
      </trkpt>
      <trkpt lat="45.09061" lon="5.60868">
        <ele>1644.400024414</ele>
        <time>2014-01-31T18:12:20Z</time>
      </trkpt>
      <trkpt lat="45.0906" lon="5.60868">
        <ele>1644.599975586</ele>
        <time>2014-01-31T18:12:28Z</time>
      </trkpt>
      <trkpt lat="45.0906" lon="5.60869">
        <ele>1644.599975586</ele>
        <time>2014-01-31T18:12:30Z</time>
      </trkpt>
      <trkpt lat="45.09061" lon="5.60864">
        <ele>1644</ele>
        <time>2014-01-31T18:12:38Z</time>
      </trkpt>
      <trkpt lat="45.09062" lon="5.6086">
        <ele>1643</ele>
        <time>2014-01-31T18:12:39Z</time>
      </trkpt>
      <trkpt lat="45.09069" lon="5.60847">
        <ele>1640</ele>
        <time>2014-01-31T18:12:41Z</time>
      </trkpt>
      <trkpt lat="45.09075" lon="5.6084">
        <ele>1637.800048828</ele>
        <time>2014-01-31T18:12:42Z</time>
      </trkpt>
      <trkpt lat="45.09086" lon="5.6082">
        <ele>1634</ele>
        <time>2014-01-31T18:12:44Z</time>
      </trkpt>
      <trkpt lat="45.09099" lon="5.60799">
        <ele>1632</ele>
        <time>2014-01-31T18:12:46Z</time>
      </trkpt>
      <trkpt lat="45.09108" lon="5.6078">
        <ele>1629.800048828</ele>
        <time>2014-01-31T18:12:48Z</time>
      </trkpt>
      <trkpt lat="45.0911" lon="5.60772">
        <ele>1628.599975586</ele>
        <time>2014-01-31T18:12:49Z</time>
      </trkpt>
      <trkpt lat="45.0911" lon="5.60756">
        <ele>1626.800048828</ele>
        <time>2014-01-31T18:12:52Z</time>
      </trkpt>
      <trkpt lat="45.09112" lon="5.60746">
        <ele>1624.199951172</ele>
        <time>2014-01-31T18:12:55Z</time>
      </trkpt>
      <trkpt lat="45.09112" lon="5.60747">
        <ele>1624.599975586</ele>
        <time>2014-01-31T18:12:56Z</time>
      </trkpt>
      <trkpt lat="45.09112" lon="5.60747">
        <ele>1624.599975586</ele>
        <time>2014-01-31T18:12:57Z</time>
      </trkpt>
      <trkpt lat="45.09112" lon="5.60748">
        <ele>1625</ele>
        <time>2014-01-31T18:12:59Z</time>
      </trkpt>
      <trkpt lat="45.09112" lon="5.60748">
        <ele>1625.199951172</ele>
        <time>2014-01-31T18:13:01Z</time>
      </trkpt>
      <trkpt lat="45.09111" lon="5.60747">
        <ele>1624.800048828</ele>
        <time>2014-01-31T18:13:03Z</time>
      </trkpt>
      <trkpt lat="45.09102" lon="5.60736">
        <ele>1621</ele>
        <time>2014-01-31T18:13:06Z</time>
      </trkpt>
      <trkpt lat="45.09099" lon="5.60732">
        <ele>1619.599975586</ele>
        <time>2014-01-31T18:13:07Z</time>
      </trkpt>
      <trkpt lat="45.09096" lon="5.60715">
        <ele>1613.199951172</ele>
        <time>2014-01-31T18:13:10Z</time>
      </trkpt>
      <trkpt lat="45.09095" lon="5.60701">
        <ele>1607.599975586</ele>
        <time>2014-01-31T18:13:12Z</time>
      </trkpt>
      <trkpt lat="45.09093" lon="5.60695">
        <ele>1605.599975586</ele>
        <time>2014-01-31T18:13:13Z</time>
      </trkpt>
      <trkpt lat="45.09089" lon="5.60689">
        <ele>1604</ele>
        <time>2014-01-31T18:13:14Z</time>
      </trkpt>
      <trkpt lat="45.09082" lon="5.6067">
        <ele>1598.400024414</ele>
        <time>2014-01-31T18:13:17Z</time>
      </trkpt>
      <trkpt lat="45.09081" lon="5.60663">
        <ele>1596.400024414</ele>
        <time>2014-01-31T18:13:18Z</time>
      </trkpt>
      <trkpt lat="45.09079" lon="5.60657">
        <ele>1594.599975586</ele>
        <time>2014-01-31T18:13:19Z</time>
      </trkpt>
      <trkpt lat="45.09079" lon="5.6065">
        <ele>1592.199951172</ele>
        <time>2014-01-31T18:13:20Z</time>
      </trkpt>
      <trkpt lat="45.09079" lon="5.60634">
        <ele>1585.800048828</ele>
        <time>2014-01-31T18:13:22Z</time>
      </trkpt>
      <trkpt lat="45.0908" lon="5.60627">
        <ele>1583</ele>
        <time>2014-01-31T18:13:23Z</time>
      </trkpt>
      <trkpt lat="45.09081" lon="5.60616">
        <ele>1578.199951172</ele>
        <time>2014-01-31T18:13:25Z</time>
      </trkpt>
      <trkpt lat="45.09083" lon="5.60612">
        <ele>1576.199951172</ele>
        <time>2014-01-31T18:13:26Z</time>
      </trkpt>
      <trkpt lat="45.09091" lon="5.60597">
        <ele>1568.199951172</ele>
        <time>2014-01-31T18:13:30Z</time>
      </trkpt>
      <trkpt lat="45.09092" lon="5.60593">
        <ele>1566.599975586</ele>
        <time>2014-01-31T18:13:31Z</time>
      </trkpt>
      <trkpt lat="45.09092" lon="5.60597">
        <ele>1568</ele>
        <time>2014-01-31T18:13:33Z</time>
      </trkpt>
      <trkpt lat="45.09091" lon="5.60598">
        <ele>1568.599975586</ele>
        <time>2014-01-31T18:13:34Z</time>
      </trkpt>
      <trkpt lat="45.0909" lon="5.60599">
        <ele>1569.400024414</ele>
        <time>2014-01-31T18:13:37Z</time>
      </trkpt>
      <trkpt lat="45.0909" lon="5.606">
        <ele>1569.800048828</ele>
        <time>2014-01-31T18:13:40Z</time>
      </trkpt>
      <trkpt lat="45.09091" lon="5.60592">
        <ele>1566</ele>
        <time>2014-01-31T18:13:53Z</time>
      </trkpt>
      <trkpt lat="45.09093" lon="5.60576">
        <ele>1560.599975586</ele>
        <time>2014-01-31T18:13:56Z</time>
      </trkpt>
      <trkpt lat="45.09095" lon="5.60573">
        <ele>1559</ele>
        <time>2014-01-31T18:13:57Z</time>
      </trkpt>
      <trkpt lat="45.09099" lon="5.60559">
        <ele>1554.199951172</ele>
        <time>2014-01-31T18:14:00Z</time>
      </trkpt>
      <trkpt lat="45.091" lon="5.60556">
        <ele>1553</ele>
        <time>2014-01-31T18:14:01Z</time>
      </trkpt>
      <trkpt lat="45.09104" lon="5.60549">
        <ele>1550.400024414</ele>
        <time>2014-01-31T18:14:04Z</time>
      </trkpt>
      <trkpt lat="45.09104" lon="5.6055">
        <ele>1550.599975586</ele>
        <time>2014-01-31T18:14:06Z</time>
      </trkpt>
      <trkpt lat="45.09104" lon="5.60551">
        <ele>1550.800048828</ele>
        <time>2014-01-31T18:14:08Z</time>
      </trkpt>
      <trkpt lat="45.09105" lon="5.60553">
        <ele>1551.199951172</ele>
        <time>2014-01-31T18:14:11Z</time>
      </trkpt>
      <trkpt lat="45.09109" lon="5.60557">
        <ele>1551.199951172</ele>
        <time>2014-01-31T18:14:23Z</time>
      </trkpt>
      <trkpt lat="45.0911" lon="5.60558">
        <ele>1551.199951172</ele>
        <time>2014-01-31T18:14:24Z</time>
      </trkpt>
      <trkpt lat="45.09113" lon="5.60555">
        <ele>1549.800048828</ele>
        <time>2014-01-31T18:14:31Z</time>
      </trkpt>
      <trkpt lat="45.09114" lon="5.60554">
        <ele>1549.400024414</ele>
        <time>2014-01-31T18:14:36Z</time>
      </trkpt>
      <trkpt lat="45.09114" lon="5.60554">
        <ele>1549.199951172</ele>
        <time>2014-01-31T18:14:37Z</time>
      </trkpt>
      <trkpt lat="45.09113" lon="5.60554">
        <ele>1549.599975586</ele>
        <time>2014-01-31T18:14:39Z</time>
      </trkpt>
      <trkpt lat="45.09112" lon="5.60553">
        <ele>1549.400024414</ele>
        <time>2014-01-31T18:14:40Z</time>
      </trkpt>
      <trkpt lat="45.09111" lon="5.60551">
        <ele>1549</ele>
        <time>2014-01-31T18:14:44Z</time>
      </trkpt>
      <trkpt lat="45.09112" lon="5.60549">
        <ele>1548.599975586</ele>
        <time>2014-01-31T18:14:48Z</time>
      </trkpt>
      <trkpt lat="45.09113" lon="5.60551">
        <ele>1548.800048828</ele>
        <time>2014-01-31T18:14:49Z</time>
      </trkpt>
      <trkpt lat="45.09113" lon="5.60554">
        <ele>1549.400024414</ele>
        <time>2014-01-31T18:14:50Z</time>
      </trkpt>
      <trkpt lat="45.09117" lon="5.60552">
        <ele>1548</ele>
        <time>2014-01-31T18:14:52Z</time>
      </trkpt>
      <trkpt lat="45.09118" lon="5.60547">
        <ele>1546.800048828</ele>
        <time>2014-01-31T18:14:53Z</time>
      </trkpt>
      <trkpt lat="45.0912" lon="5.60545">
        <ele>1545.599975586</ele>
        <time>2014-01-31T18:14:55Z</time>
      </trkpt>
      <trkpt lat="45.0912" lon="5.60544">
        <ele>1545.400024414</ele>
        <time>2014-01-31T18:14:56Z</time>
      </trkpt>
      <trkpt lat="45.09121" lon="5.60545">
        <ele>1545.599975586</ele>
        <time>2014-01-31T18:14:57Z</time>
      </trkpt>
      <trkpt lat="45.09121" lon="5.60546">
        <ele>1545.599975586</ele>
        <time>2014-01-31T18:14:59Z</time>
      </trkpt>
      <trkpt lat="45.09124" lon="5.60547">
        <ele>1545.199951172</ele>
        <time>2014-01-31T18:15:01Z</time>
      </trkpt>
      <trkpt lat="45.09125" lon="5.60546">
        <ele>1544.800048828</ele>
        <time>2014-01-31T18:15:02Z</time>
      </trkpt>
      <trkpt lat="45.09134" lon="5.60539">
        <ele>1541.199951172</ele>
        <time>2014-01-31T18:15:05Z</time>
      </trkpt>
      <trkpt lat="45.0914" lon="5.60534">
        <ele>1538.599975586</ele>
        <time>2014-01-31T18:15:07Z</time>
      </trkpt>
      <trkpt lat="45.09144" lon="5.60525">
        <ele>1536</ele>
        <time>2014-01-31T18:15:09Z</time>
      </trkpt>
      <trkpt lat="45.09147" lon="5.60516">
        <ele>1533.599975586</ele>
        <time>2014-01-31T18:15:13Z</time>
      </trkpt>
      <trkpt lat="45.09147" lon="5.60513">
        <ele>1533</ele>
        <time>2014-01-31T18:15:17Z</time>
      </trkpt>
      <trkpt lat="45.09146" lon="5.60513">
        <ele>1533</ele>
        <time>2014-01-31T18:15:18Z</time>
      </trkpt>
      <trkpt lat="45.09146" lon="5.6051">
        <ele>1532.400024414</ele>
        <time>2014-01-31T18:15:21Z</time>
      </trkpt>
      <trkpt lat="45.0915" lon="5.6051">
        <ele>1531.800048828</ele>
        <time>2014-01-31T18:15:23Z</time>
      </trkpt>
      <trkpt lat="45.09154" lon="5.60519">
        <ele>1532.800048828</ele>
        <time>2014-01-31T18:15:26Z</time>
      </trkpt>
      <trkpt lat="45.09155" lon="5.6052">
        <ele>1533</ele>
        <time>2014-01-31T18:15:27Z</time>
      </trkpt>
      <trkpt lat="45.09154" lon="5.60521">
        <ele>1533.199951172</ele>
        <time>2014-01-31T18:15:30Z</time>
      </trkpt>
      <trkpt lat="45.09156" lon="5.60524">
        <ele>1533.599975586</ele>
        <time>2014-01-31T18:15:44Z</time>
      </trkpt>
      <trkpt lat="45.0916" lon="5.60524">
        <ele>1532.599975586</ele>
        <time>2014-01-31T18:15:49Z</time>
      </trkpt>
      <trkpt lat="45.09162" lon="5.60522">
        <ele>1531.800048828</ele>
        <time>2014-01-31T18:15:51Z</time>
      </trkpt>
      <trkpt lat="45.09164" lon="5.6052">
        <ele>1531.199951172</ele>
        <time>2014-01-31T18:15:52Z</time>
      </trkpt>
      <trkpt lat="45.09168" lon="5.60519">
        <ele>1530.400024414</ele>
        <time>2014-01-31T18:15:54Z</time>
      </trkpt>
      <trkpt lat="45.09173" lon="5.6052">
        <ele>1529.199951172</ele>
        <time>2014-01-31T18:15:56Z</time>
      </trkpt>
      <trkpt lat="45.09175" lon="5.6052">
        <ele>1528.800048828</ele>
        <time>2014-01-31T18:15:57Z</time>
      </trkpt>
      <trkpt lat="45.0918" lon="5.60519">
        <ele>1527.599975586</ele>
        <time>2014-01-31T18:16:02Z</time>
      </trkpt>
      <trkpt lat="45.09179" lon="5.6051">
        <ele>1526.400024414</ele>
        <time>2014-01-31T18:16:06Z</time>
      </trkpt>
      <trkpt lat="45.09177" lon="5.60509">
        <ele>1526.599975586</ele>
        <time>2014-01-31T18:16:10Z</time>
      </trkpt>
      <trkpt lat="45.09174" lon="5.60506">
        <ele>1526.599975586</ele>
        <time>2014-01-31T18:16:13Z</time>
      </trkpt>
      <trkpt lat="45.09172" lon="5.60498">
        <ele>1525.400024414</ele>
        <time>2014-01-31T18:16:16Z</time>
      </trkpt>
      <trkpt lat="45.09175" lon="5.60484">
        <ele>1521.800048828</ele>
        <time>2014-01-31T18:16:20Z</time>
      </trkpt>
      <trkpt lat="45.09183" lon="5.60481">
        <ele>1519.599975586</ele>
        <time>2014-01-31T18:16:24Z</time>
      </trkpt>
      <trkpt lat="45.09184" lon="5.60479">
        <ele>1519</ele>
        <time>2014-01-31T18:16:25Z</time>
      </trkpt>
      <trkpt lat="45.09185" lon="5.60476">
        <ele>1518</ele>
        <time>2014-01-31T18:16:26Z</time>
      </trkpt>
      <trkpt lat="45.09186" lon="5.60473">
        <ele>1517.400024414</ele>
        <time>2014-01-31T18:16:27Z</time>
      </trkpt>
      <trkpt lat="45.09186" lon="5.6047">
        <ele>1516.599975586</ele>
        <time>2014-01-31T18:16:28Z</time>
      </trkpt>
      <trkpt lat="45.09186" lon="5.60468">
        <ele>1516.199951172</ele>
        <time>2014-01-31T18:16:29Z</time>
      </trkpt>
      <trkpt lat="45.09186" lon="5.6046">
        <ele>1514.599975586</ele>
        <time>2014-01-31T18:16:32Z</time>
      </trkpt>
      <trkpt lat="45.09186" lon="5.60461">
        <ele>1514.800048828</ele>
        <time>2014-01-31T18:16:33Z</time>
      </trkpt>
      <trkpt lat="45.09187" lon="5.6046">
        <ele>1514.400024414</ele>
        <time>2014-01-31T18:16:34Z</time>
      </trkpt>
      <trkpt lat="45.09188" lon="5.6046">
        <ele>1514.199951172</ele>
        <time>2014-01-31T18:16:36Z</time>
      </trkpt>
      <trkpt lat="45.09189" lon="5.6046">
        <ele>1514</ele>
        <time>2014-01-31T18:16:38Z</time>
      </trkpt>
      <trkpt lat="45.0919" lon="5.6046">
        <ele>1513.800048828</ele>
        <time>2014-01-31T18:16:39Z</time>
      </trkpt>
      <trkpt lat="45.09193" lon="5.60456">
        <ele>1512.400024414</ele>
        <time>2014-01-31T18:16:44Z</time>
      </trkpt>
      <trkpt lat="45.09193" lon="5.60455">
        <ele>1512</ele>
        <time>2014-01-31T18:16:45Z</time>
      </trkpt>
      <trkpt lat="45.09195" lon="5.60455">
        <ele>1511.800048828</ele>
        <time>2014-01-31T18:16:48Z</time>
      </trkpt>
      <trkpt lat="45.09195" lon="5.60454">
        <ele>1511.599975586</ele>
        <time>2014-01-31T18:16:50Z</time>
      </trkpt>
      <trkpt lat="45.09195" lon="5.60452">
        <ele>1511.199951172</ele>
        <time>2014-01-31T18:16:52Z</time>
      </trkpt>
      <trkpt lat="45.09198" lon="5.60447">
        <ele>1510</ele>
        <time>2014-01-31T18:16:55Z</time>
      </trkpt>
      <trkpt lat="45.09197" lon="5.60446">
        <ele>1509.599975586</ele>
        <time>2014-01-31T18:16:57Z</time>
      </trkpt>
      <trkpt lat="45.09198" lon="5.60446">
        <ele>1509.599975586</ele>
        <time>2014-01-31T18:17:00Z</time>
      </trkpt>
      <trkpt lat="45.09199" lon="5.60446">
        <ele>1509.400024414</ele>
        <time>2014-01-31T18:17:01Z</time>
      </trkpt>
      <trkpt lat="45.09202" lon="5.60447">
        <ele>1509</ele>
        <time>2014-01-31T18:17:04Z</time>
      </trkpt>
      <trkpt lat="45.09209" lon="5.60447">
        <ele>1507.599975586</ele>
        <time>2014-01-31T18:17:08Z</time>
      </trkpt>
      <trkpt lat="45.0921" lon="5.60447">
        <ele>1507.599975586</ele>
        <time>2014-01-31T18:17:09Z</time>
      </trkpt>
      <trkpt lat="45.09212" lon="5.60445">
        <ele>1507</ele>
        <time>2014-01-31T18:17:14Z</time>
      </trkpt>
      <trkpt lat="45.0921" lon="5.60448">
        <ele>1507.599975586</ele>
        <time>2014-01-31T18:17:36Z</time>
      </trkpt>
      <trkpt lat="45.09211" lon="5.60449">
        <ele>1507.599975586</ele>
        <time>2014-01-31T18:17:38Z</time>
      </trkpt>
      <trkpt lat="45.09211" lon="5.60448">
        <ele>1507.400024414</ele>
        <time>2014-01-31T18:17:39Z</time>
      </trkpt>
      <trkpt lat="45.09211" lon="5.60447">
        <ele>1507.400024414</ele>
        <time>2014-01-31T18:17:41Z</time>
      </trkpt>
      <trkpt lat="45.09212" lon="5.60447">
        <ele>1507.400024414</ele>
        <time>2014-01-31T18:17:43Z</time>
      </trkpt>
      <trkpt lat="45.09213" lon="5.60448">
        <ele>1507.199951172</ele>
        <time>2014-01-31T18:17:45Z</time>
      </trkpt>
      <trkpt lat="45.09212" lon="5.60447">
        <ele>1507.199951172</ele>
        <time>2014-01-31T18:17:47Z</time>
      </trkpt>
      <trkpt lat="45.09213" lon="5.60446">
        <ele>1506.800048828</ele>
        <time>2014-01-31T18:17:51Z</time>
      </trkpt>
      <trkpt lat="45.09215" lon="5.60444">
        <ele>1506</ele>
        <time>2014-01-31T18:17:54Z</time>
      </trkpt>
      <trkpt lat="45.09216" lon="5.6044">
        <ele>1505</ele>
        <time>2014-01-31T18:17:56Z</time>
      </trkpt>
      <trkpt lat="45.09222" lon="5.60436">
        <ele>1503.199951172</ele>
        <time>2014-01-31T18:18:00Z</time>
      </trkpt>
      <trkpt lat="45.09225" lon="5.6043">
        <ele>1501.599975586</ele>
        <time>2014-01-31T18:18:04Z</time>
      </trkpt>
      <trkpt lat="45.09226" lon="5.60429">
        <ele>1501.199951172</ele>
        <time>2014-01-31T18:18:05Z</time>
      </trkpt>
      <trkpt lat="45.09224" lon="5.60429">
        <ele>1501.599975586</ele>
        <time>2014-01-31T18:18:19Z</time>
      </trkpt>
      <trkpt lat="45.09224" lon="5.6043">
        <ele>1501.800048828</ele>
        <time>2014-01-31T18:18:22Z</time>
      </trkpt>
      <trkpt lat="45.09224" lon="5.60428">
        <ele>1501.599975586</ele>
        <time>2014-01-31T18:18:26Z</time>
      </trkpt>
      <trkpt lat="45.09222" lon="5.60425">
        <ele>1501.199951172</ele>
        <time>2014-01-31T18:18:31Z</time>
      </trkpt>
      <trkpt lat="45.09224" lon="5.60417">
        <ele>1499.599975586</ele>
        <time>2014-01-31T18:18:35Z</time>
      </trkpt>
      <trkpt lat="45.09226" lon="5.60417">
        <ele>1499.199951172</ele>
        <time>2014-01-31T18:18:40Z</time>
      </trkpt>
      <trkpt lat="45.09227" lon="5.60416">
        <ele>1498.800048828</ele>
        <time>2014-01-31T18:18:45Z</time>
      </trkpt>
      <trkpt lat="45.09227" lon="5.60415">
        <ele>1498.599975586</ele>
        <time>2014-01-31T18:18:49Z</time>
      </trkpt>
      <trkpt lat="45.09226" lon="5.60411">
        <ele>1498.199951172</ele>
        <time>2014-01-31T18:18:51Z</time>
      </trkpt>
      <trkpt lat="45.09225" lon="5.60403">
        <ele>1497</ele>
        <time>2014-01-31T18:18:54Z</time>
      </trkpt>
      <trkpt lat="45.09225" lon="5.60402">
        <ele>1496.800048828</ele>
        <time>2014-01-31T18:18:55Z</time>
      </trkpt>
      <trkpt lat="45.09226" lon="5.60392">
        <ele>1495.400024414</ele>
        <time>2014-01-31T18:18:58Z</time>
      </trkpt>
      <trkpt lat="45.09227" lon="5.6039">
        <ele>1494.800048828</ele>
        <time>2014-01-31T18:19:00Z</time>
      </trkpt>
      <trkpt lat="45.09229" lon="5.60389">
        <ele>1494.400024414</ele>
        <time>2014-01-31T18:19:02Z</time>
      </trkpt>
      <trkpt lat="45.09237" lon="5.60387">
        <ele>1493.199951172</ele>
        <time>2014-01-31T18:19:07Z</time>
      </trkpt>
      <trkpt lat="45.0924" lon="5.60385">
        <ele>1492.400024414</ele>
        <time>2014-01-31T18:19:09Z</time>
      </trkpt>
      <trkpt lat="45.09245" lon="5.6038">
        <ele>1491.199951172</ele>
        <time>2014-01-31T18:19:11Z</time>
      </trkpt>
      <trkpt lat="45.09261" lon="5.60373">
        <ele>1488</ele>
        <time>2014-01-31T18:19:16Z</time>
      </trkpt>
      <trkpt lat="45.09277" lon="5.60378">
        <ele>1486.199951172</ele>
        <time>2014-01-31T18:19:20Z</time>
      </trkpt>
      <trkpt lat="45.09296" lon="5.60386">
        <ele>1484</ele>
        <time>2014-01-31T18:19:23Z</time>
      </trkpt>
      <trkpt lat="45.09303" lon="5.60388">
        <ele>1483.400024414</ele>
        <time>2014-01-31T18:19:24Z</time>
      </trkpt>
      <trkpt lat="45.09309" lon="5.60392">
        <ele>1482.800048828</ele>
        <time>2014-01-31T18:19:25Z</time>
      </trkpt>
      <trkpt lat="45.09323" lon="5.60397">
        <ele>1481.400024414</ele>
        <time>2014-01-31T18:19:27Z</time>
      </trkpt>
      <trkpt lat="45.0933" lon="5.604">
        <ele>1480.400024414</ele>
        <time>2014-01-31T18:19:28Z</time>
      </trkpt>
      <trkpt lat="45.09344" lon="5.60403">
        <ele>1479.199951172</ele>
        <time>2014-01-31T18:19:30Z</time>
      </trkpt>
      <trkpt lat="45.0936" lon="5.60405">
        <ele>1477.599975586</ele>
        <time>2014-01-31T18:19:32Z</time>
      </trkpt>
      <trkpt lat="45.09367" lon="5.60406">
        <ele>1477</ele>
        <time>2014-01-31T18:19:33Z</time>
      </trkpt>
      <trkpt lat="45.09375" lon="5.60409">
        <ele>1476.400024414</ele>
        <time>2014-01-31T18:19:34Z</time>
      </trkpt>
      <trkpt lat="45.09384" lon="5.60409">
        <ele>1475.400024414</ele>
        <time>2014-01-31T18:19:36Z</time>
      </trkpt>
      <trkpt lat="45.09387" lon="5.6041">
        <ele>1475.199951172</ele>
        <time>2014-01-31T18:19:38Z</time>
      </trkpt>
      <trkpt lat="45.09385" lon="5.60409">
        <ele>1475.199951172</ele>
        <time>2014-01-31T18:19:39Z</time>
      </trkpt>
      <trkpt lat="45.09384" lon="5.60407">
        <ele>1475.199951172</ele>
        <time>2014-01-31T18:19:41Z</time>
      </trkpt>
      <trkpt lat="45.09384" lon="5.60397">
        <ele>1473.599975586</ele>
        <time>2014-01-31T18:19:44Z</time>
      </trkpt>
      <trkpt lat="45.09386" lon="5.60391">
        <ele>1472.800048828</ele>
        <time>2014-01-31T18:19:45Z</time>
      </trkpt>
      <trkpt lat="45.09389" lon="5.60373">
        <ele>1469.599975586</ele>
        <time>2014-01-31T18:19:48Z</time>
      </trkpt>
      <trkpt lat="45.09394" lon="5.60351">
        <ele>1465.800048828</ele>
        <time>2014-01-31T18:19:51Z</time>
      </trkpt>
      <trkpt lat="45.09396" lon="5.60343">
        <ele>1464.400024414</ele>
        <time>2014-01-31T18:19:52Z</time>
      </trkpt>
      <trkpt lat="45.09399" lon="5.60335">
        <ele>1462.800048828</ele>
        <time>2014-01-31T18:19:53Z</time>
      </trkpt>
      <trkpt lat="45.09407" lon="5.60311">
        <ele>1459.599975586</ele>
        <time>2014-01-31T18:19:56Z</time>
      </trkpt>
      <trkpt lat="45.09424" lon="5.60302">
        <ele>1456.599975586</ele>
        <time>2014-01-31T18:19:59Z</time>
      </trkpt>
      <trkpt lat="45.09432" lon="5.60301">
        <ele>1455.199951172</ele>
        <time>2014-01-31T18:20:00Z</time>
      </trkpt>
      <trkpt lat="45.09447" lon="5.60295">
        <ele>1452.599975586</ele>
        <time>2014-01-31T18:20:02Z</time>
      </trkpt>
      <trkpt lat="45.09453" lon="5.60288">
        <ele>1451.400024414</ele>
        <time>2014-01-31T18:20:03Z</time>
      </trkpt>
      <trkpt lat="45.0946" lon="5.60281">
        <ele>1450.199951172</ele>
        <time>2014-01-31T18:20:04Z</time>
      </trkpt>
      <trkpt lat="45.09475" lon="5.60269">
        <ele>1448</ele>
        <time>2014-01-31T18:20:06Z</time>
      </trkpt>
      <trkpt lat="45.09483" lon="5.60268">
        <ele>1447</ele>
        <time>2014-01-31T18:20:07Z</time>
      </trkpt>
      <trkpt lat="45.0949" lon="5.60279">
        <ele>1446</ele>
        <time>2014-01-31T18:20:10Z</time>
      </trkpt>
      <trkpt lat="45.0949" lon="5.60279">
        <ele>1446</ele>
        <time>2014-01-31T18:20:11Z</time>
      </trkpt>
      <trkpt lat="45.09488" lon="5.60278">
        <ele>1446.199951172</ele>
        <time>2014-01-31T18:20:14Z</time>
      </trkpt>
      <trkpt lat="45.09487" lon="5.60277">
        <ele>1446.400024414</ele>
        <time>2014-01-31T18:20:22Z</time>
      </trkpt>
      <trkpt lat="45.09487" lon="5.60277">
        <ele>1446.400024414</ele>
        <time>2014-01-31T18:20:24Z</time>
      </trkpt>
      <trkpt lat="45.09487" lon="5.60277">
        <ele>1446.400024414</ele>
        <time>2014-01-31T18:20:28Z</time>
      </trkpt>
      <trkpt lat="45.09493" lon="5.60279">
        <ele>1445.599975586</ele>
        <time>2014-01-31T18:20:31Z</time>
      </trkpt>
      <trkpt lat="45.09503" lon="5.60281">
        <ele>1444.199951172</ele>
        <time>2014-01-31T18:20:33Z</time>
      </trkpt>
      <trkpt lat="45.0951" lon="5.60281">
        <ele>1443</ele>
        <time>2014-01-31T18:20:34Z</time>
      </trkpt>
      <trkpt lat="45.09519" lon="5.60282">
        <ele>1441.599975586</ele>
        <time>2014-01-31T18:20:35Z</time>
      </trkpt>
      <trkpt lat="45.09536" lon="5.60281">
        <ele>1439</ele>
        <time>2014-01-31T18:20:37Z</time>
      </trkpt>
      <trkpt lat="45.09545" lon="5.60281">
        <ele>1437.599975586</ele>
        <time>2014-01-31T18:20:38Z</time>
      </trkpt>
      <trkpt lat="45.09562" lon="5.6028">
        <ele>1435</ele>
        <time>2014-01-31T18:20:40Z</time>
      </trkpt>
      <trkpt lat="45.09584" lon="5.60285">
        <ele>1431.199951172</ele>
        <time>2014-01-31T18:20:43Z</time>
      </trkpt>
      <trkpt lat="45.09604" lon="5.6029">
        <ele>1430</ele>
        <time>2014-01-31T18:20:46Z</time>
      </trkpt>
      <trkpt lat="45.09626" lon="5.60294">
        <ele>1428.800048828</ele>
        <time>2014-01-31T18:20:49Z</time>
      </trkpt>
      <trkpt lat="45.09646" lon="5.603">
        <ele>1427.199951172</ele>
        <time>2014-01-31T18:20:52Z</time>
      </trkpt>
      <trkpt lat="45.09667" lon="5.60311">
        <ele>1425.199951172</ele>
        <time>2014-01-31T18:20:55Z</time>
      </trkpt>
      <trkpt lat="45.09673" lon="5.60313">
        <ele>1424.400024414</ele>
        <time>2014-01-31T18:20:56Z</time>
      </trkpt>
      <trkpt lat="45.09689" lon="5.60312">
        <ele>1423</ele>
        <time>2014-01-31T18:20:59Z</time>
      </trkpt>
      <trkpt lat="45.09701" lon="5.6031">
        <ele>1422</ele>
        <time>2014-01-31T18:21:02Z</time>
      </trkpt>
      <trkpt lat="45.09714" lon="5.60309">
        <ele>1420.800048828</ele>
        <time>2014-01-31T18:21:05Z</time>
      </trkpt>
      <trkpt lat="45.0972" lon="5.60308">
        <ele>1420.400024414</ele>
        <time>2014-01-31T18:21:06Z</time>
      </trkpt>
      <trkpt lat="45.09739" lon="5.60312">
        <ele>1418</ele>
        <time>2014-01-31T18:21:09Z</time>
      </trkpt>
      <trkpt lat="45.09751" lon="5.60318">
        <ele>1416</ele>
        <time>2014-01-31T18:21:11Z</time>
      </trkpt>
      <trkpt lat="45.09763" lon="5.60317">
        <ele>1413</ele>
        <time>2014-01-31T18:21:13Z</time>
      </trkpt>
      <trkpt lat="45.09775" lon="5.60313">
        <ele>1410.599975586</ele>
        <time>2014-01-31T18:21:15Z</time>
      </trkpt>
      <trkpt lat="45.09786" lon="5.60308">
        <ele>1408.599975586</ele>
        <time>2014-01-31T18:21:17Z</time>
      </trkpt>
      <trkpt lat="45.09791" lon="5.60304">
        <ele>1407.800048828</ele>
        <time>2014-01-31T18:21:18Z</time>
      </trkpt>
      <trkpt lat="45.09803" lon="5.60299">
        <ele>1405.400024414</ele>
        <time>2014-01-31T18:21:20Z</time>
      </trkpt>
      <trkpt lat="45.09817" lon="5.60298">
        <ele>1402</ele>
        <time>2014-01-31T18:21:22Z</time>
      </trkpt>
      <trkpt lat="45.09837" lon="5.60302">
        <ele>1397</ele>
        <time>2014-01-31T18:21:25Z</time>
      </trkpt>
      <trkpt lat="45.09843" lon="5.60301">
        <ele>1396.199951172</ele>
        <time>2014-01-31T18:21:26Z</time>
      </trkpt>
      <trkpt lat="45.09855" lon="5.6029">
        <ele>1395.400024414</ele>
        <time>2014-01-31T18:21:29Z</time>
      </trkpt>
      <trkpt lat="45.09868" lon="5.60283">
        <ele>1394.199951172</ele>
        <time>2014-01-31T18:21:32Z</time>
      </trkpt>
      <trkpt lat="45.09882" lon="5.60283">
        <ele>1392.199951172</ele>
        <time>2014-01-31T18:21:34Z</time>
      </trkpt>
      <trkpt lat="45.09889" lon="5.60284">
        <ele>1391.199951172</ele>
        <time>2014-01-31T18:21:35Z</time>
      </trkpt>
      <trkpt lat="45.09897" lon="5.60283">
        <ele>1390.199951172</ele>
        <time>2014-01-31T18:21:36Z</time>
      </trkpt>
      <trkpt lat="45.09912" lon="5.60281">
        <ele>1388</ele>
        <time>2014-01-31T18:21:38Z</time>
      </trkpt>
      <trkpt lat="45.09926" lon="5.6028">
        <ele>1386.599975586</ele>
        <time>2014-01-31T18:21:40Z</time>
      </trkpt>
      <trkpt lat="45.09937" lon="5.60281">
        <ele>1385.400024414</ele>
        <time>2014-01-31T18:21:42Z</time>
      </trkpt>
      <trkpt lat="45.09942" lon="5.60283">
        <ele>1384.800048828</ele>
        <time>2014-01-31T18:21:43Z</time>
      </trkpt>
      <trkpt lat="45.09958" lon="5.60288">
        <ele>1382.599975586</ele>
        <time>2014-01-31T18:21:47Z</time>
      </trkpt>
      <trkpt lat="45.09981" lon="5.60292">
        <ele>1379.800048828</ele>
        <time>2014-01-31T18:21:52Z</time>
      </trkpt>
      <trkpt lat="45.09987" lon="5.60293">
        <ele>1379.199951172</ele>
        <time>2014-01-31T18:21:53Z</time>
      </trkpt>
      <trkpt lat="45.10005" lon="5.60295">
        <ele>1376.599975586</ele>
        <time>2014-01-31T18:21:56Z</time>
      </trkpt>
      <trkpt lat="45.10018" lon="5.60299">
        <ele>1373.400024414</ele>
        <time>2014-01-31T18:21:58Z</time>
      </trkpt>
      <trkpt lat="45.10042" lon="5.60302">
        <ele>1368.599975586</ele>
        <time>2014-01-31T18:22:01Z</time>
      </trkpt>
      <trkpt lat="45.10065" lon="5.60303">
        <ele>1364</ele>
        <time>2014-01-31T18:22:04Z</time>
      </trkpt>
      <trkpt lat="45.10073" lon="5.60304">
        <ele>1362.400024414</ele>
        <time>2014-01-31T18:22:05Z</time>
      </trkpt>
      <trkpt lat="45.10086" lon="5.60305">
        <ele>1360.199951172</ele>
        <time>2014-01-31T18:22:07Z</time>
      </trkpt>
      <trkpt lat="45.10093" lon="5.60305">
        <ele>1360.199951172</ele>
        <time>2014-01-31T18:22:08Z</time>
      </trkpt>
      <trkpt lat="45.10107" lon="5.60306">
        <ele>1359.599975586</ele>
        <time>2014-01-31T18:22:10Z</time>
      </trkpt>
      <trkpt lat="45.10113" lon="5.60307">
        <ele>1359.199951172</ele>
        <time>2014-01-31T18:22:11Z</time>
      </trkpt>
      <trkpt lat="45.10133" lon="5.60307">
        <ele>1358.599975586</ele>
        <time>2014-01-31T18:22:14Z</time>
      </trkpt>
      <trkpt lat="45.10148" lon="5.60305">
        <ele>1358.800048828</ele>
        <time>2014-01-31T18:22:16Z</time>
      </trkpt>
      <trkpt lat="45.1017" lon="5.603">
        <ele>1359</ele>
        <time>2014-01-31T18:22:19Z</time>
      </trkpt>
      <trkpt lat="45.10177" lon="5.60299">
        <ele>1359</ele>
        <time>2014-01-31T18:22:20Z</time>
      </trkpt>
      <trkpt lat="45.102" lon="5.60301">
        <ele>1357.599975586</ele>
        <time>2014-01-31T18:22:23Z</time>
      </trkpt>
      <trkpt lat="45.10209" lon="5.60304">
        <ele>1356.599975586</ele>
        <time>2014-01-31T18:22:24Z</time>
      </trkpt>
      <trkpt lat="45.10229" lon="5.60309">
        <ele>1354.800048828</ele>
        <time>2014-01-31T18:22:26Z</time>
      </trkpt>
      <trkpt lat="45.1024" lon="5.60312">
        <ele>1353.599975586</ele>
        <time>2014-01-31T18:22:27Z</time>
      </trkpt>
      <trkpt lat="45.10249" lon="5.60314">
        <ele>1352.800048828</ele>
        <time>2014-01-31T18:22:28Z</time>
      </trkpt>
      <trkpt lat="45.10268" lon="5.60318">
        <ele>1349.599975586</ele>
        <time>2014-01-31T18:22:30Z</time>
      </trkpt>
      <trkpt lat="45.10278" lon="5.60319">
        <ele>1348.199951172</ele>
        <time>2014-01-31T18:22:31Z</time>
      </trkpt>
      <trkpt lat="45.10296" lon="5.60322">
        <ele>1345</ele>
        <time>2014-01-31T18:22:33Z</time>
      </trkpt>
      <trkpt lat="45.10314" lon="5.60321">
        <ele>1342.800048828</ele>
        <time>2014-01-31T18:22:35Z</time>
      </trkpt>
      <trkpt lat="45.10337" lon="5.6032">
        <ele>1339.800048828</ele>
        <time>2014-01-31T18:22:38Z</time>
      </trkpt>
      <trkpt lat="45.10344" lon="5.60322">
        <ele>1338.599975586</ele>
        <time>2014-01-31T18:22:39Z</time>
      </trkpt>
      <trkpt lat="45.10366" lon="5.60323">
        <ele>1335.400024414</ele>
        <time>2014-01-31T18:22:42Z</time>
      </trkpt>
      <trkpt lat="45.10387" lon="5.60329">
        <ele>1330.400024414</ele>
        <time>2014-01-31T18:22:45Z</time>
      </trkpt>
      <trkpt lat="45.10407" lon="5.60337">
        <ele>1326.199951172</ele>
        <time>2014-01-31T18:22:48Z</time>
      </trkpt>
      <trkpt lat="45.1042" lon="5.60341">
        <ele>1324.400024414</ele>
        <time>2014-01-31T18:22:50Z</time>
      </trkpt>
      <trkpt lat="45.10441" lon="5.60345">
        <ele>1322.599975586</ele>
        <time>2014-01-31T18:22:53Z</time>
      </trkpt>
      <trkpt lat="45.10454" lon="5.60345">
        <ele>1321.599975586</ele>
        <time>2014-01-31T18:22:55Z</time>
      </trkpt>
      <trkpt lat="45.10477" lon="5.60345">
        <ele>1319.800048828</ele>
        <time>2014-01-31T18:22:59Z</time>
      </trkpt>
      <trkpt lat="45.1049" lon="5.60345">
        <ele>1318.800048828</ele>
        <time>2014-01-31T18:23:01Z</time>
      </trkpt>
      <trkpt lat="45.10511" lon="5.60347">
        <ele>1317</ele>
        <time>2014-01-31T18:23:04Z</time>
      </trkpt>
      <trkpt lat="45.10525" lon="5.6035">
        <ele>1315.800048828</ele>
        <time>2014-01-31T18:23:06Z</time>
      </trkpt>
      <trkpt lat="45.10532" lon="5.60353">
        <ele>1315</ele>
        <time>2014-01-31T18:23:07Z</time>
      </trkpt>
      <trkpt lat="45.10539" lon="5.60353">
        <ele>1314.199951172</ele>
        <time>2014-01-31T18:23:08Z</time>
      </trkpt>
      <trkpt lat="45.10553" lon="5.60358">
        <ele>1312.599975586</ele>
        <time>2014-01-31T18:23:10Z</time>
      </trkpt>
      <trkpt lat="45.1056" lon="5.60358">
        <ele>1312</ele>
        <time>2014-01-31T18:23:11Z</time>
      </trkpt>
      <trkpt lat="45.10572" lon="5.6036">
        <ele>1310.800048828</ele>
        <time>2014-01-31T18:23:13Z</time>
      </trkpt>
      <trkpt lat="45.1059" lon="5.60362">
        <ele>1309.199951172</ele>
        <time>2014-01-31T18:23:16Z</time>
      </trkpt>
      <trkpt lat="45.10608" lon="5.60366">
        <ele>1307.400024414</ele>
        <time>2014-01-31T18:23:19Z</time>
      </trkpt>
      <trkpt lat="45.10614" lon="5.60367">
        <ele>1306.800048828</ele>
        <time>2014-01-31T18:23:20Z</time>
      </trkpt>
      <trkpt lat="45.1062" lon="5.60367">
        <ele>1306.400024414</ele>
        <time>2014-01-31T18:23:21Z</time>
      </trkpt>
      <trkpt lat="45.10631" lon="5.60366">
        <ele>1306</ele>
        <time>2014-01-31T18:23:23Z</time>
      </trkpt>
      <trkpt lat="45.10643" lon="5.60366">
        <ele>1305.199951172</ele>
        <time>2014-01-31T18:23:25Z</time>
      </trkpt>
      <trkpt lat="45.10656" lon="5.60359">
        <ele>1305.599975586</ele>
        <time>2014-01-31T18:23:27Z</time>
      </trkpt>
      <trkpt lat="45.10662" lon="5.60358">
        <ele>1305.400024414</ele>
        <time>2014-01-31T18:23:28Z</time>
      </trkpt>
      <trkpt lat="45.10682" lon="5.60357">
        <ele>1303.599975586</ele>
        <time>2014-01-31T18:23:31Z</time>
      </trkpt>
      <trkpt lat="45.10699" lon="5.60357">
        <ele>1301.400024414</ele>
        <time>2014-01-31T18:23:34Z</time>
      </trkpt>
      <trkpt lat="45.1071" lon="5.60355">
        <ele>1300.199951172</ele>
        <time>2014-01-31T18:23:36Z</time>
      </trkpt>
      <trkpt lat="45.10716" lon="5.60357">
        <ele>1299.199951172</ele>
        <time>2014-01-31T18:23:39Z</time>
      </trkpt>
      <trkpt lat="45.10716" lon="5.60358">
        <ele>1299</ele>
        <time>2014-01-31T18:23:42Z</time>
      </trkpt>
      <trkpt lat="45.10717" lon="5.6036">
        <ele>1298.800048828</ele>
        <time>2014-01-31T18:23:45Z</time>
      </trkpt>
      <trkpt lat="45.10717" lon="5.6036">
        <ele>1298.599975586</ele>
        <time>2014-01-31T18:23:50Z</time>
      </trkpt>
      <trkpt lat="45.10719" lon="5.60365">
        <ele>1297.800048828</ele>
        <time>2014-01-31T18:23:54Z</time>
      </trkpt>
      <trkpt lat="45.1072" lon="5.60367">
        <ele>1297.599975586</ele>
        <time>2014-01-31T18:24:01Z</time>
      </trkpt>
      <trkpt lat="45.1072" lon="5.60369">
        <ele>1297.199951172</ele>
        <time>2014-01-31T18:24:02Z</time>
      </trkpt>
      <trkpt lat="45.10721" lon="5.60369">
        <ele>1297.199951172</ele>
        <time>2014-01-31T18:24:03Z</time>
      </trkpt>
      <trkpt lat="45.1072" lon="5.60368">
        <ele>1297.400024414</ele>
        <time>2014-01-31T18:24:09Z</time>
      </trkpt>
      <trkpt lat="45.10724" lon="5.60365">
        <ele>1297.400024414</ele>
        <time>2014-01-31T18:24:19Z</time>
      </trkpt>
    </trkseg>
  </trk>
</gpx>